[[{"header":{"parameterUnit":"m.s-1","parameterCategory":1,"la1":30.6,"la2":29.2853,"lo1":-89.7004,"lo2":-87.6739,"dy":0.0162,"dx":0.0183,"nx":112,"ny":82,"refTime":"2023-09-12T18:00:00:Z","depth":0,"parameterNumber":2,"parameterNumberName":"U-component_of_WINDS"},"data":[0.0,0.0,0.0,0.0,0.0,0.0,0.0,0.0,0.0,0.0,0.0,0.0,0.0,0.0,0.0,0.0,0.0,0.0,0.0,0.0,0.0,0.0,0.0,0.0,0.0,0.0,0.0,0.0,0.0,0.0,0.0,0.0,0.0,0.0,0.0,0.0,0.0,0.0,0.0,0.0,0.0,0.0,0.0,0.0,0.0,0.0,0.0,0.0,0.0,0.0,0.0,0.0,0.0,0.0,0.0,0.0,0.0,0.0,0.0,0.0,0.0,0.0,0.0,0.0,0.0,0.0,0.0,0.0,0.0,0.0,0.0,0.0,0.0,0.0,0.0,0.0,0.0,0.0,0.0,0.0,0.0,0.0,0.0,0.0,0.0,0.0,0.0,0.0,0.0,0.0,2.1637,2.305,2.4124,2.4533,2.4059,2.2383,2.0828,1.9572,0.0,0.0,0.0,0.0,0.0,0.0,0.0,0.0,0.0,0.0,0.0,0.0,0.0,0.0,0.0,0.0,0.0,0.0,0.0,0.0,0.0,0.0,0.0,0.0,0.0,0.0,0.0,0.0,0.0,0.0,0.0,0.0,0.0,0.0,0.0,0.0,0.0,0.0,0.0,0.0,0.0,0.0,0.0,0.0,0.0,0.0,0.0,0.0,0.0,0.0,0.0,0.0,0.0,0.0,0.0,0.0,0.0,0.0,0.0,0.0,0.0,0.0,0.0,0.0,0.0,0.0,0.0,0.0,0.0,0.0,0.0,0.0,0.0,0.0,0.0,0.0,0.0,0.0,0.0,0.0,0.0,0.0,0.0,0.0,0.0,0.0,0.0,0.0,0.0,0.0,0.0,0.0,0.0,0.0,0.0,0.0,0.0,0.0,0.0,0.0,0.0,0.0,0.0,0.0,2.2354,2.3495,2.3861,2.4042,2.4006,2.1687,2.0269,2.0304,0.0,0.0,0.0,0.0,0.0,0.0,0.0,0.0,0.0,0.0,0.0,0.0,0.0,0.0,0.0,0.0,0.0,0.0,0.0,0.0,0.0,0.0,0.0,0.0,0.0,0.0,0.0,0.0,0.0,0.0,0.0,0.0,0.0,0.0,0.0,0.0,0.0,0.0,0.0,0.0,0.0,0.0,0.0,0.0,0.0,0.0,0.0,0.0,0.0,0.0,0.0,0.0,0.0,0.0,0.0,0.0,0.0,0.0,0.0,0.0,0.0,0.0,0.0,0.0,0.0,0.0,0.0,0.0,0.0,0.0,0.0,0.0,0.0,0.0,0.0,0.0,0.0,0.0,0.0,0.0,0.0,0.0,0.0,0.0,0.0,0.0,0.0,0.0,0.0,0.0,0.0,0.0,0.0,0.0,0.0,0.0,0.0,0.0,0.0,0.0,0.0,0.0,0.0,2.2351,2.3208,2.3955,2.3997,2.387,2.3693,2.1419,2.0127,2.0476,1.9381,0.0,0.0,0.0,0.0,0.0,0.0,0.0,0.0,0.0,0.0,0.0,0.0,0.0,0.0,0.0,0.0,0.0,0.0,0.0,0.0,0.0,0.0,0.0,0.0,0.0,0.0,0.0,0.0,0.0,0.0,0.0,0.0,0.0,0.0,0.0,0.0,0.0,0.0,0.0,0.0,0.0,0.0,0.0,0.0,0.0,0.0,0.0,0.0,0.0,0.0,0.0,0.0,0.0,0.0,0.0,0.0,0.0,0.0,0.0,0.0,0.0,0.0,0.0,0.0,0.0,0.0,0.0,0.0,0.0,0.0,0.0,0.0,0.0,0.0,0.0,0.0,0.0,0.0,0.0,0.0,0.0,0.0,0.0,0.0,0.0,0.0,0.0,0.0,0.0,0.0,0.0,0.0,0.0,0.0,0.0,0.0,0.0,0.0,0.0,0.0,0.0,0.0,2.3337,2.3427,2.3978,2.3929,2.3663,2.3185,2.1059,1.9965,2.0476,1.8918,0.0,0.0,0.0,0.0,0.0,0.0,0.0,0.0,0.0,0.0,0.0,0.0,0.0,0.0,0.0,0.0,0.0,0.0,0.0,0.0,0.0,0.0,0.0,0.0,0.0,0.0,0.0,0.0,0.0,0.0,0.0,0.0,0.0,0.0,0.0,0.0,0.0,0.0,0.0,0.0,0.0,0.0,0.0,0.0,0.0,0.0,0.0,0.0,0.0,0.0,0.0,0.0,0.0,0.0,0.0,0.0,0.0,0.0,0.0,0.0,0.0,0.0,0.0,0.0,0.0,0.0,0.0,0.0,0.0,0.0,0.0,0.0,0.0,0.0,0.0,0.0,0.0,0.0,0.0,0.0,0.0,0.0,0.0,0.0,0.0,0.0,0.0,0.0,0.0,0.0,0.0,0.0,0.0,0.0,0.0,0.0,0.0,0.0,0.0,0.0,0.0,0.0,2.3057,2.2335,2.3189,2.3394,2.3151,2.2446,2.0297,1.9403,2.0442,1.8537,0.0,0.0,0.0,0.0,0.0,0.0,0.0,0.0,0.0,0.0,0.0,0.0,0.0,0.0,0.0,0.0,0.0,0.0,0.0,0.0,0.0,0.0,0.0,0.0,0.0,0.0,0.0,0.0,0.0,0.0,0.0,0.0,0.0,0.0,0.0,0.0,0.0,0.0,0.0,0.0,0.0,0.0,0.0,0.0,0.0,0.0,0.0,0.0,0.0,0.0,0.0,0.0,0.0,0.0,0.0,0.0,0.0,0.0,0.0,0.0,0.0,0.0,0.0,0.0,0.0,0.0,0.0,0.0,0.0,0.0,0.0,0.0,0.0,0.0,0.0,0.0,0.0,0.0,0.0,0.0,0.0,0.0,0.0,0.0,0.0,0.0,0.0,0.0,0.0,0.0,0.0,0.0,0.0,0.0,0.0,0.0,0.0,0.0,0.0,0.0,0.0,0.0,2.2592,2.2513,0.0,2.3076,2.2593,2.1695,1.9942,1.9177,1.9829,0.0,0.0,0.0,0.0,0.0,0.0,0.0,0.0,0.0,0.0,0.0,0.0,0.0,0.0,0.0,0.0,0.0,0.0,0.0,0.0,0.0,0.0,0.0,0.0,0.0,0.0,0.0,0.0,0.0,0.0,0.0,0.0,0.0,0.0,0.0,0.0,0.0,0.0,0.0,0.0,0.0,0.0,0.0,0.0,0.0,0.0,0.0,0.0,0.0,0.0,0.0,0.0,0.0,0.0,0.0,0.0,0.0,0.0,0.0,0.0,0.0,0.0,0.0,0.0,0.0,0.0,0.0,0.0,0.0,0.0,0.0,0.0,0.0,0.0,0.0,0.0,0.0,0.0,0.0,0.0,0.0,0.0,0.0,0.0,0.0,0.0,0.0,0.0,0.0,0.0,0.0,0.0,0.0,0.0,0.0,0.0,0.0,0.0,0.0,0.0,0.0,0.0,2.2416,2.2282,2.2413,0.0,2.2898,2.2289,2.1298,1.957,1.8825,1.9485,0.0,0.0,0.0,0.0,0.0,0.0,0.0,0.0,0.0,0.0,0.0,0.0,0.0,0.0,0.0,0.0,0.0,0.0,0.0,0.0,0.0,0.0,0.0,0.0,0.0,0.0,0.0,0.0,0.0,0.0,0.0,0.0,0.0,0.0,0.0,0.0,0.0,0.0,0.0,0.0,0.0,0.0,0.0,0.0,0.0,0.0,0.0,0.0,0.0,0.0,0.0,0.0,0.0,0.0,0.0,0.0,0.0,0.0,0.0,0.0,0.0,0.0,0.0,0.0,0.0,0.0,0.0,0.0,0.0,0.0,0.0,0.0,0.0,0.0,0.0,0.0,0.0,0.0,0.0,0.0,0.0,0.0,0.0,0.0,0.0,0.0,0.0,0.0,0.0,0.0,0.0,0.0,0.0,0.0,0.0,0.0,0.0,0.0,0.0,0.0,0.0,0.0,2.3046,2.2132,2.1767,2.3058,2.2863,2.2255,2.1264,1.9096,1.83,0.0,0.0,0.0,0.0,0.0,0.0,0.0,0.0,0.0,0.0,0.0,0.0,0.0,0.0,0.0,0.0,0.0,0.0,0.0,0.0,0.0,0.0,0.0,0.0,0.0,0.0,0.0,0.0,0.0,0.0,0.0,0.0,0.0,0.0,0.0,0.0,0.0,0.0,0.0,0.0,0.0,0.0,0.0,0.0,0.0,0.0,0.0,0.0,0.0,0.0,0.0,0.0,0.0,0.0,0.0,0.0,0.0,0.0,0.0,0.0,0.0,0.0,0.0,0.0,0.0,0.0,0.0,0.0,0.0,0.0,0.0,0.0,0.0,0.0,0.0,0.0,0.0,0.0,0.0,0.0,0.0,0.0,0.0,0.0,0.0,0.0,0.0,0.0,0.0,0.0,0.0,0.0,0.0,0.0,0.0,0.0,0.0,0.0,0.0,0.0,0.0,0.0,0.0,2.1482,2.0528,2.017,2.1444,2.133,2.0522,1.8934,1.771,1.7336,1.8071,0.0,0.0,0.0,0.0,0.0,0.0,0.0,0.0,0.0,0.0,0.0,0.0,0.0,0.0,0.0,0.0,0.0,0.0,0.0,0.0,0.0,0.0,0.0,0.0,0.0,0.0,0.0,0.0,0.0,0.0,0.0,0.0,0.0,0.0,0.0,0.0,0.0,0.0,0.0,0.0,0.0,0.0,0.0,0.0,0.0,0.0,0.0,0.0,0.0,0.0,0.0,0.0,0.0,0.0,0.0,0.0,0.0,0.0,0.0,0.0,0.0,0.0,0.0,0.0,0.0,0.0,0.0,0.0,0.0,0.0,0.0,0.0,0.0,0.0,0.0,0.0,0.0,0.0,0.0,0.0,0.0,0.0,0.0,0.0,0.0,0.0,0.0,0.0,0.0,0.0,0.0,0.0,0.0,0.0,0.0,0.0,0.0,0.0,0.0,0.0,0.0,0.0,2.0833,1.9933,1.9578,2.0773,2.0494,1.9569,1.7935,1.6847,1.6478,1.6976,0.0,0.0,0.0,0.0,0.0,0.0,0.0,0.0,0.0,0.0,0.0,0.0,0.0,0.0,0.0,0.0,0.0,0.0,0.0,0.0,0.0,0.0,0.0,0.0,0.0,0.0,0.0,0.0,0.0,0.0,0.0,0.0,0.0,0.0,0.0,0.0,0.0,0.0,0.0,0.0,0.0,0.0,0.0,0.0,0.0,0.0,0.0,0.0,0.0,0.0,0.0,0.0,0.0,0.0,0.0,0.0,0.0,0.0,0.0,0.0,0.0,0.0,0.0,0.0,0.0,0.0,0.0,0.0,0.0,0.0,0.0,0.0,0.0,0.0,0.0,0.0,0.0,0.0,0.0,0.0,0.0,0.0,0.0,0.0,0.0,0.0,0.0,0.0,0.0,0.0,0.0,0.0,0.0,0.0,0.0,0.0,0.0,0.0,0.0,0.0,0.0,0.0,2.0766,1.9843,1.9462,2.0601,2.0005,1.9044,1.7747,1.6326,1.5705,1.6162,0.0,0.0,0.0,0.0,0.0,0.0,0.0,0.0,0.0,0.0,0.0,0.0,0.0,0.0,0.0,0.0,0.0,0.0,0.0,0.0,0.0,0.0,0.0,0.0,0.0,0.0,0.0,0.0,0.0,0.0,0.0,0.0,0.0,0.0,0.0,0.0,0.0,0.0,0.0,0.0,0.0,0.0,0.0,0.0,0.0,0.0,0.0,0.0,0.0,0.0,0.0,0.0,0.0,0.0,0.0,0.0,0.0,0.0,0.0,0.0,2.2499,0.0,0.0,0.0,0.0,0.0,0.0,0.0,0.0,0.0,0.0,0.0,0.0,0.0,0.0,0.0,0.0,0.0,0.0,0.0,0.0,0.0,0.0,0.0,0.0,0.0,0.0,0.0,0.0,0.0,0.0,0.0,0.0,0.0,0.0,0.0,0.0,0.0,0.0,0.0,0.0,0.0,1.9933,1.8382,1.7684,1.9237,1.8373,1.7335,1.6455,1.5373,1.4933,1.5409,1.5558,0.0,0.0,0.0,0.0,0.0,0.0,0.0,0.0,0.0,0.0,0.0,0.0,0.0,0.0,0.0,0.0,0.0,0.0,0.0,0.0,0.0,0.0,0.0,0.0,0.0,0.0,0.0,0.0,0.0,0.0,0.0,0.0,0.0,0.0,0.0,0.0,0.0,0.0,0.0,0.0,0.0,0.0,0.0,0.0,0.0,0.0,0.0,0.0,0.0,0.0,0.0,0.0,0.0,0.0,0.0,0.0,0.0,0.0,0.0,0.0,2.3052,0.0,0.0,0.0,0.0,0.0,0.0,0.0,0.0,0.0,0.0,0.0,0.0,0.0,0.0,0.0,0.0,0.0,0.0,0.0,0.0,0.0,0.0,0.0,0.0,0.0,0.0,0.0,0.0,0.0,0.0,0.0,0.0,0.0,0.0,0.0,0.0,0.0,0.0,0.0,0.0,2.0257,1.8285,1.7128,1.8244,1.7468,1.6499,1.559,1.4723,1.4368,1.4691,1.5202,0.0,0.0,0.0,0.0,0.0,0.0,0.0,0.0,0.0,0.0,0.0,0.0,0.0,0.0,0.0,0.0,0.0,0.0,0.0,0.0,0.0,0.0,0.0,0.0,0.0,0.0,0.0,0.0,0.0,0.0,0.0,0.0,0.0,0.0,0.0,0.0,0.0,0.0,0.0,0.0,0.0,0.0,0.0,0.0,0.0,0.0,0.0,0.0,0.0,0.0,0.0,0.0,0.0,2.7223,2.7474,2.7264,2.7145,2.6661,2.5867,2.5127,2.3785,2.2081,2.2712,0.0,0.0,0.0,0.0,0.0,0.0,0.0,0.0,0.0,0.0,0.0,0.0,0.0,0.0,0.0,0.0,0.0,0.0,0.0,0.0,0.0,0.0,0.0,0.0,2.1494,2.2126,2.0807,0.0,0.0,0.0,0.0,0.0,0.0,0.0,0.0,0.0,0.0,0.0,2.0475,1.8379,1.6913,1.7496,1.6866,1.6034,1.5145,1.4338,1.3983,1.4188,1.4983,1.5584,0.0,0.0,0.0,0.0,0.0,0.0,0.0,0.0,0.0,0.0,0.0,0.0,0.0,0.0,0.0,0.0,0.0,0.0,0.0,0.0,0.0,0.0,0.0,0.0,0.0,0.0,0.0,0.0,0.0,0.0,0.0,0.0,2.1001,2.1022,0.0,0.0,0.0,0.0,0.0,0.0,0.0,0.0,0.0,0.0,0.0,0.0,0.0,2.8592,2.9093,2.9155,2.9077,2.8855,2.8964,2.8934,2.8709,2.8709,2.8246,2.7497,2.7365,0.0,2.3634,2.1998,0.0,0.0,0.0,0.0,0.0,0.0,0.0,0.0,0.0,0.0,0.0,0.0,0.0,0.0,0.0,0.0,0.0,0.0,0.0,0.0,0.0,0.0,2.2856,2.1963,2.1697,2.1614,0.0,2.0927,2.0604,2.0816,2.0382,0.0,0.0,0.0,0.0,0.0,0.0,0.0,1.8897,1.7158,1.6156,1.6922,1.6137,1.5496,1.536,1.4456,1.3983,1.4188,1.4317,1.4879,1.5945,1.6374,0.0,0.0,0.0,0.0,0.0,0.0,0.0,0.0,0.0,0.0,0.0,0.0,0.0,0.0,0.0,0.0,0.0,0.0,0.0,0.0,0.0,0.0,0.0,0.0,0.0,0.0,0.0,0.0,0.0,2.2092,2.297,2.2407,2.3186,2.3626,0.0,0.0,0.0,0.0,0.0,0.0,0.0,0.0,0.0,2.9361,3.0227,3.0711,3.0823,3.1392,3.1495,3.1172,3.1774,3.1927,3.1715,3.1715,3.1256,3.0442,2.9787,2.859,2.6946,2.4599,2.2912,2.1762,0.0,0.0,0.0,0.0,2.065,2.1227,2.1783,2.1962,0.0,2.2428,0.0,0.0,0.0,0.0,0.0,0.0,0.0,0.0,0.0,0.0,2.2697,2.177,2.1883,2.2185,2.2185,2.175,2.1333,0.0,2.1213,2.106,2.0786,0.0,0.0,0.0,0.0,1.8461,1.9863,1.79,1.6505,1.6853,1.6104,1.5389,1.4921,1.4494,1.427,1.4362,1.4375,1.4623,1.5132,1.613,1.7073,0.0,0.0,0.0,0.0,0.0,0.0,0.0,0.0,0.0,0.0,0.0,0.0,0.0,0.0,0.0,0.0,0.0,0.0,0.0,0.0,0.0,0.0,0.0,0.0,0.0,0.0,0.0,0.0,2.3343,2.4567,2.3472,2.4698,2.5261,0.0,0.0,0.0,0.0,0.0,0.0,2.9532,3.019,3.0856,3.1611,3.2495,3.2932,3.2889,3.3655,3.39,3.3568,3.4375,3.4626,3.4431,3.4431,3.388,3.2845,3.1846,3.0754,2.9482,2.6872,2.4699,2.2962,2.2733,2.234,2.1879,2.1697,2.2234,2.3112,2.3508,2.3873,2.4139,2.4205,2.3573,2.2774,2.2849,0.0,0.0,0.0,0.0,2.2303,2.197,2.2567,2.2991,2.1958,2.2522,2.318,2.2712,2.2601,2.2456,0.0,2.1935,2.198,2.1551,0.0,0.0,0.0,0.0,1.8889,2.0243,1.836,1.6817,1.6615,1.6059,1.5362,1.4561,1.4488,1.4488,1.4488,1.4488,1.4488,1.4488,1.5986,1.6929,1.7192,0.0,0.0,0.0,0.0,0.0,0.0,0.0,0.0,0.0,0.0,0.0,0.0,0.0,0.0,0.0,0.0,0.0,0.0,0.0,0.0,0.0,0.0,0.0,0.0,0.0,0.0,0.0,0.0,0.0,2.3401,2.5968,0.0,0.0,0.0,0.0,2.932,2.938,3.0077,3.1748,3.1879,3.2526,3.39,3.4773,3.5506,3.6056,3.6111,3.613,3.6101,3.6185,3.6203,3.6156,3.6156,3.5275,3.3707,3.327,3.1966,2.9968,2.7213,2.6381,2.6602,2.4198,2.3915,2.4809,2.432,2.4319,2.4728,2.5623,2.529,2.4492,2.454,2.3739,2.2735,2.2923,2.2511,0.0,0.0,2.3046,2.3265,2.3878,2.4411,2.4491,2.336,2.4068,2.4503,2.2711,2.3414,2.3996,0.0,2.2118,2.1865,2.1946,0.0,2.0847,2.1088,1.9564,1.8425,1.851,1.7588,1.6615,1.5839,1.571,1.5362,1.4561,1.4488,1.4488,1.4488,1.4488,1.4488,1.4488,1.5319,1.6218,1.7173,1.8029,0.0,0.0,0.0,0.0,0.0,0.0,0.0,0.0,0.0,0.0,0.0,0.0,0.0,0.0,0.0,0.0,0.0,0.0,0.0,0.0,0.0,0.0,0.0,0.0,0.0,0.0,0.0,0.0,2.7897,2.978,0.0,2.8964,2.9902,3.0973,3.1858,3.1934,3.3053,3.5602,3.5224,3.5602,3.7016,3.7366,3.765,3.7845,3.7845,3.7845,3.7845,3.7845,3.7656,3.733,3.733,3.6533,3.5142,3.4712,3.3581,3.1882,3.0602,2.9087,2.7505,2.7131,2.6753,2.6415,2.5973,2.633,2.6957,2.6554,2.6508,2.6554,2.6045,2.4889,2.3764,2.4355,2.4026,2.3474,2.3695,2.3805,2.3971,2.4502,2.4773,2.4743,2.4117,2.4317,2.4321,2.3135,2.3466,2.3844,2.3364,2.2959,2.2726,2.2824,2.2046,2.154,2.1834,2.0666,1.9796,1.9917,1.861,1.7564,1.7289,1.6316,1.5582,1.5307,1.527,1.527,1.527,1.527,1.5509,1.6028,1.5821,1.611,1.7003,1.7801,1.8799,0.0,0.0,0.0,0.0,0.0,0.0,0.0,0.0,0.0,0.0,0.0,0.0,0.0,0.0,0.0,0.0,0.0,0.0,0.0,0.0,0.0,0.0,0.0,0.0,0.0,0.0,3.0812,3.1004,3.2614,3.3193,3.1912,3.26,3.3642,3.494,3.5349,3.6526,3.8783,3.8413,3.842,3.9074,3.9093,3.8964,3.8707,3.8707,3.8707,3.8707,3.8515,3.8249,3.7893,3.772,3.7023,3.5878,3.5213,3.4181,3.2965,3.2497,3.097,2.8991,2.9262,2.9059,2.8499,2.7754,2.8121,2.8789,2.7771,2.7585,2.7658,2.6869,2.5755,2.4764,2.5023,2.4764,2.4466,2.4726,2.4561,2.4432,2.5029,2.5124,2.4918,2.4318,2.4545,2.4628,2.3443,2.3651,2.3995,2.3747,2.3599,2.3544,2.3591,2.2825,2.2305,2.2593,2.1667,2.091,2.0826,1.9711,1.8702,1.817,1.7142,1.6408,1.6133,1.6403,1.6447,1.6109,1.6396,1.6668,1.6885,1.6951,1.7224,1.7768,1.8254,1.9224,2.0713,0.0,0.0,0.0,0.0,0.0,0.0,0.0,0.0,0.0,0.0,0.0,0.0,0.0,0.0,0.0,0.0,0.0,0.0,0.0,0.0,0.0,0.0,0.0,2.7576,3.1315,3.364,3.2409,3.4292,3.5353,3.4596,3.5209,3.6572,3.8658,3.9515,4.0304,4.1148,4.1148,4.0763,3.9992,3.9937,3.9551,3.8781,3.8762,3.8744,3.8713,3.815,3.7859,3.7825,3.7379,3.6693,3.5841,3.4652,3.3731,3.298,3.2514,3.185,3.1123,3.0446,3.0609,3.1091,2.9571,2.9503,3.002,2.9269,2.8484,2.7677,2.6924,2.626,2.5595,2.4847,2.4714,2.5012,2.5786,2.5289,2.4679,2.5497,2.556,2.5161,2.4073,2.4924,2.5499,2.3684,2.4068,2.459,2.3858,2.3996,2.4209,2.419,2.3547,2.3102,2.3299,2.2458,0.0,2.0998,2.0656,1.9877,1.8327,1.8157,1.7845,1.7054,1.781,1.7941,1.7012,1.7801,1.7909,1.7022,1.8545,1.9422,1.947,1.9344,2.0252,2.2269,0.0,0.0,0.0,0.0,0.0,0.0,0.0,0.0,0.0,0.0,0.0,0.0,0.0,0.0,0.0,0.0,0.0,0.0,0.0,0.0,0.0,0.0,3.2579,3.1769,3.447,3.6828,3.7625,3.8807,3.9451,3.9232,3.9414,4.0046,4.124,4.0983,4.1387,4.2763,4.1735,4.1277,4.1625,4.1075,4.0671,4.0451,3.9863,3.9355,3.8985,3.8251,3.7524,3.6808,3.6147,3.5758,3.5617,3.4226,3.3478,3.324,3.2574,3.185,3.1224,3.1562,3.1159,3.0328,2.9607,2.9166,2.8905,2.8978,2.8484,2.7886,2.8447,2.7697,2.6673,2.7221,2.6604,2.571,2.5937,2.5382,2.4904,2.5716,2.5893,2.5901,2.6166,2.6131,2.5872,2.5333,2.4996,2.47,2.4338,2.4338,2.4375,2.4228,2.4025,2.3879,2.3951,2.2718,0.0,2.1565,2.0433,1.9727,1.9954,1.9458,1.9071,1.8946,1.9167,1.8981,1.8178,1.8278,1.8523,1.884,1.805,1.7952,1.8677,1.8755,1.9692,0.0,0.0,0.0,0.0,0.0,0.0,0.0,0.0,0.0,0.0,0.0,0.0,0.0,0.0,0.0,0.0,0.0,0.0,0.0,0.0,0.0,0.0,3.4547,3.6675,3.6732,3.8044,3.9397,4.0406,4.0972,4.1409,4.1739,4.1482,4.1679,4.2745,4.2378,4.2506,4.3442,4.2598,4.2176,4.2304,4.1864,4.1442,4.1111,4.0304,3.9717,3.9431,3.8168,3.7323,3.6689,3.57,3.5501,3.5856,3.4547,3.3995,3.3943,3.3183,3.2441,0.0,0.0,0.0,0.0,0.0,2.952,2.9137,2.9038,2.8754,2.8519,2.8776,2.8334,2.7735,2.8048,2.7509,2.686,2.7203,2.6667,2.6162,2.6963,2.6866,2.6657,2.7126,2.688,2.6431,2.6088,2.5635,2.5171,2.4711,2.4623,0.0,2.4461,2.4321,2.4247,2.4355,2.3196,2.2238,2.2066,2.0808,2.0028,2.0279,1.9896,1.9662,1.9746,2.0086,0.0,0.0,0.0,1.9754,2.0241,1.9231,0.0,0.0,0.0,2.0875,2.2292,0.0,0.0,0.0,2.4178,2.3874,0.0,0.0,0.0,0.0,0.0,0.0,0.0,0.0,0.0,0.0,0.0,0.0,0.0,0.0,0.0,0.0,3.8442,4.0284,4.1675,4.158,4.1439,4.1614,4.1686,4.1994,4.2716,4.2139,4.2232,4.3424,4.3497,4.3497,4.3497,0.0,0.0,0.0,0.0,4.2084,4.1387,4.0579,4.0125,4.0075,3.8349,3.7461,3.7279,3.602,3.5798,3.6452,3.5308,3.4836,3.4854,3.4039,3.3241,3.24,3.1571,3.1251,3.1235,3.0529,3.0235,3.0033,2.9407,0.0,0.0,2.854,2.8598,2.8812,2.8128,2.7972,2.8179,2.889,2.8406,2.7797,2.8517,2.8032,2.7388,2.7479,2.7441,2.718,2.6502,2.6275,2.5958,2.5116,2.4965,2.4927,2.4823,2.4478,2.4321,2.4572,2.3719,2.2908,2.2569,2.1531,2.065,2.0145,0.0,0.0,1.9979,2.0695,2.0764,1.9918,2.0552,2.1075,2.1307,2.1182,2.1551,2.2497,2.2463,2.2912,2.3853,2.3919,2.4443,2.5369,2.3592,2.3657,0.0,0.0,0.0,0.0,0.0,0.0,0.0,0.0,0.0,0.0,0.0,0.0,0.0,0.0,0.0,3.935,4.0777,4.2125,4.3848,4.3477,4.3041,4.31,4.3118,4.3173,4.3321,4.321,4.3226,4.3479,4.3497,4.3497,4.3497,4.3497,4.3424,4.3259,4.3259,4.3185,4.3039,4.2231,4.1622,4.118,0.0,0.0,3.815,3.7276,3.6973,3.697,3.5527,3.5226,3.5669,3.4269,3.3241,3.2413,3.1663,3.1394,3.1337,3.0936,3.0323,2.9759,3.0157,2.989,2.9435,2.9572,2.9692,2.978,2.9845,2.9387,0.0,2.9063,2.8533,2.7945,2.8049,2.7977,2.7999,2.8617,2.8253,2.7908,2.8387,2.7984,2.724,2.6206,2.6009,2.576,2.4946,2.4591,2.451,2.4741,2.3899,2.3238,2.3269,2.1972,2.1257,2.1843,2.1272,2.091,2.1076,2.1246,2.1029,2.0252,2.0208,2.0785,2.2029,2.1491,2.1621,2.2566,2.2677,2.3176,2.412,2.4197,2.4667,2.5465,2.5143,2.5182,0.0,0.0,0.0,0.0,0.0,0.0,0.0,0.0,0.0,0.0,0.0,3.3781,0.0,0.0,4.0236,4.3035,4.3858,4.4562,4.5742,4.5183,4.4376,4.3584,4.3497,4.3497,4.3497,4.3497,4.3497,4.3497,4.3497,4.3497,4.3497,4.3497,4.3497,4.3497,4.3497,4.3497,4.3497,4.269,4.2166,4.1903,4.08,3.9986,3.9296,3.8133,3.7793,3.8079,3.6777,3.6425,3.6663,3.5489,3.4767,3.4388,3.4003,3.3232,3.2217,3.1438,3.1203,3.1238,3.0757,3.0487,3.0313,3.0072,3.0089,3.0241,3.0355,3.0121,2.9794,2.9794,2.9575,2.928,2.9253,2.9284,2.9398,2.9756,2.9544,2.9256,2.9244,2.8937,2.8357,2.7397,2.7198,2.6899,2.5963,2.5609,2.5308,2.4875,2.4001,2.3451,2.3626,2.26,2.2038,2.2552,2.1823,2.1338,2.1429,2.1478,2.1363,2.1009,2.1308,2.1857,2.2621,2.2312,2.2537,2.3434,2.3525,2.3986,2.4851,2.4913,2.5164,2.5541,2.5628,2.562,0.0,0.0,0.0,0.0,0.0,0.0,0.0,0.0,3.4308,3.5451,3.624,3.7679,4.0766,4.1982,4.3476,4.6326,4.6663,4.6739,4.7273,4.6588,4.5538,4.4105,4.3885,4.3747,4.3532,4.3497,4.3497,4.3497,4.3497,4.3497,4.3497,4.3497,4.3497,4.3497,4.3497,4.3497,4.3497,4.2855,4.2525,4.2525,4.1449,4.0854,4.0654,3.917,3.879,3.9186,3.8199,3.7624,3.7452,3.6849,3.6509,3.6362,3.6445,3.5441,3.3826,3.2647,3.2678,3.3138,3.1703,3.1372,3.144,3.0782,3.072,3.0929,3.0929,3.0968,3.0991,3.0816,3.0821,3.0835,3.0658,3.0622,3.0617,3.0606,3.0595,3.0411,2.9783,2.9619,2.9378,2.8512,2.8348,2.8076,2.7198,2.6861,2.6314,2.5101,2.4282,2.3866,2.4068,2.3395,2.293,2.3034,2.2274,2.1754,2.1773,2.1837,2.197,2.2183,2.2709,2.3153,2.3473,2.3361,2.3661,2.4514,2.4554,2.489,2.5504,2.5571,2.5596,2.5582,2.564,2.5638,2.7719,2.773,0.0,3.1637,3.1989,3.3122,0.0,0.0,3.8104,4.045,4.1027,4.1662,4.3528,4.4603,4.5917,4.8174,4.7899,4.7638,4.8096,4.7483,4.6607,4.5668,4.5279,4.4665,4.3621,4.3497,4.3497,4.3497,4.3497,4.3497,4.3497,4.3497,4.3497,4.3497,4.3497,4.3497,4.3497,4.3406,4.3369,4.3351,4.3206,4.2768,4.2054,4.1156,4.0404,3.9763,3.8915,3.8157,3.7489,3.7645,3.7296,3.6677,3.6971,3.6971,3.6603,3.5464,3.4809,3.4393,3.3691,3.3013,3.2462,3.2544,3.2679,3.28,3.28,3.2832,3.2739,3.1965,3.1796,3.1637,3.0814,3.0638,3.0667,3.0611,3.0594,3.0575,3.0497,3.0477,3.0225,2.9402,2.9247,2.8987,2.809,2.794,2.7317,2.5582,2.505,2.4901,2.5119,2.4428,2.3938,2.3956,2.3167,2.2686,2.2733,2.2804,2.3178,2.396,2.3368,2.3674,2.5162,2.4599,2.4599,2.5357,2.5486,2.5524,2.5507,2.5561,2.557,2.5506,2.5525,2.5576,2.9573,0.0,0.0,0.0,3.5007,3.7051,4.035,4.1043,4.1393,4.2931,4.3662,4.4528,4.6201,4.6817,4.7684,0.0,4.9196,4.8713,4.8911,4.822,4.7293,4.6212,4.5975,4.5421,4.4258,4.3744,4.3563,4.3772,4.3631,4.3497,4.3497,4.3497,4.3497,4.3497,4.3497,4.3497,4.3497,4.3497,4.3497,4.3497,4.3497,4.3314,4.2965,4.2176,4.1461,4.0889,4.0728,4.0483,4.0192,4.0303,3.9865,3.9156,3.9297,3.9169,3.8648,3.6519,3.5696,3.5456,3.4232,3.3693,3.3465,3.3038,3.3,3.3108,3.3108,3.3171,3.318,3.2822,3.2764,3.2727,3.2335,3.2241,3.2148,3.1645,3.1895,3.2109,3.1621,3.1895,3.2129,3.1797,3.1348,3.0752,2.9888,2.9275,2.8481,2.7229,2.6476,2.6079,2.615,2.5438,2.4736,2.4274,2.389,2.3485,2.3056,2.3514,2.3976,2.4341,2.4481,2.4889,2.559,2.532,2.5297,2.5607,2.5626,2.5607,2.5568,2.5548,2.5523,2.5499,2.5499,2.5543,3.0795,0.0,0.0,3.5484,3.8016,4.0408,4.1443,4.2794,4.3989,4.4547,4.5163,4.6028,4.7509,4.7778,4.8259,4.974,4.9452,4.9048,4.9048,4.8509,4.7684,4.6602,4.6383,4.591,4.4972,4.4136,4.3758,4.3986,4.3693,4.3497,4.3497,4.3597,4.3597,4.3479,4.3597,4.3597,4.3497,4.3497,4.3548,4.3646,4.3646,4.3712,4.3772,4.2939,4.227,4.1734,4.1977,4.21,4.21,4.2214,4.1745,4.1007,4.1114,4.0766,3.9985,3.7966,3.7184,3.6905,3.5509,3.5139,3.5193,3.4578,3.4475,3.4526,3.4302,3.4309,3.4309,3.3816,3.373,3.3691,3.3457,3.3398,3.3242,3.2676,3.2988,3.3242,3.2656,3.2988,3.3396,3.3383,3.2904,3.2302,3.1656,3.0968,3.0311,2.9664,2.8588,2.7686,2.7221,2.6395,2.5548,2.472,2.4658,2.4428,2.3846,2.4393,2.4756,2.4765,2.5352,2.5703,2.5703,2.5703,2.5681,2.5673,2.5619,2.5582,2.5543,2.5505,2.5466,2.5447,2.5447,2.5486,0.0,0.0,3.5286,3.8697,4.0788,4.2429,4.4023,4.5064,4.5699,4.5566,4.5566,4.5874,4.6778,4.6951,4.7221,4.8048,4.8163,4.8144,4.8144,4.8125,4.7798,4.6972,4.6527,4.6101,0.0,4.4619,4.3986,4.4016,4.3693,4.3497,4.3497,4.3804,4.3836,4.3513,4.3836,4.3836,4.3479,4.3497,4.3679,4.3967,4.3967,4.4175,4.4535,4.3674,4.2825,4.2076,4.21,4.21,4.2124,4.2457,4.2085,4.1322,4.1658,4.1242,4.0489,4.0539,3.998,3.9104,3.833,3.806,3.8075,3.8122,3.8175,3.8097,3.7313,3.7129,3.6836,3.5136,3.4668,3.4473,3.3613,3.3398,3.3398,3.3379,3.3379,3.3398,3.3379,3.3379,3.3375,3.3334,3.3275,3.3234,3.3153,3.3109,3.3077,3.3057,3.159,2.9893,2.8279,2.7308,2.6427,2.5561,2.553,2.5543,2.5524,2.5601,2.5664,2.5664,2.5684,2.5703,2.5703,2.5703,2.5665,2.5601,2.5592,2.5543,2.5409,2.5409,2.537,2.5303,2.5303,2.5341,3.4795,0.0,3.9296,4.1009,4.2675,4.415,4.52,4.566,4.568,4.5007,4.4469,4.4023,4.3661,4.4071,4.4712,4.5499,4.7022,4.7913,4.7394,4.7759,4.7586,4.6201,4.5917,0.0,0.0,0.0,0.0,4.4713,4.4401,4.4223,4.4223,4.4337,4.4337,4.4223,4.4337,4.4337,4.4223,4.4223,4.428,4.4419,4.4419,4.4474,4.4606,4.4545,4.4353,4.411,4.4322,4.4422,4.4441,4.4652,4.3865,4.2579,4.2783,4.197,4.0696,4.075,4.0926,4.0953,3.9598,3.8755,3.8277,3.8287,3.8349,3.8348,3.8078,3.8077,3.8047,3.7441,3.7285,3.7226,3.6934,3.6855,3.6699,3.6133,3.6367,3.655,3.5979,3.6277,3.6481,3.5879,3.528,3.4732,3.4156,3.3577,3.3128,3.2955,3.1593,2.999,2.8315,2.7832,2.7327,2.6454,2.6386,2.6152,2.5586,2.5551,2.5564,2.5564,2.5564,2.5564,2.5564,2.5564,2.555,2.5531,2.5492,2.5447,2.5409,2.537,2.5322,2.5303,2.5163,2.5134,3.7681,3.9833,4.1913,4.3377,4.4531,4.5446,4.5865,4.5966,4.5522,4.3935,4.325,4.2452,4.0842,4.075,4.1284,4.247,4.3965,4.5247,4.5943,4.6535,4.6692,4.6161,4.5855,4.5719,0.0,0.0,0.0,4.5115,4.48,4.458,4.458,4.4707,4.4707,4.4606,4.4726,4.4707,4.458,4.458,4.4657,4.4776,4.4896,4.4966,4.4966,4.5161,4.5301,4.536,4.559,4.5699,4.5719,4.5796,4.4974,4.3663,4.3771,4.2907,4.1665,4.1995,4.2276,4.2317,4.1003,4.0169,3.9669,3.9707,3.952,3.9201,3.8928,3.8897,3.8885,3.8573,3.8495,3.8495,3.8495,3.8495,3.8358,3.7789,3.8008,3.8215,3.7655,3.7829,3.7958,3.7363,3.6699,3.606,3.552,3.4721,3.401,3.3502,3.2382,3.0904,2.8984,2.8483,2.7865,2.6772,2.6657,2.6333,2.5564,2.5506,2.5506,2.5506,2.5506,2.5506,2.5506,2.5506,2.5486,2.5467,2.5415,2.539,2.537,2.5322,2.5303,2.5303,2.5099,2.5024,3.9594,4.1319,4.3205,4.5682,4.6308,4.625,4.6074,4.5976,4.5149,4.2424,4.1828,4.0949,0.0,0.0,3.7331,3.9099,3.9518,4.0784,4.4167,4.4788,4.5438,0.0,0.0,0.0,0.0,0.0,0.0,4.5182,0.0,4.4676,4.4676,4.4943,4.4985,4.4676,4.4966,4.4966,4.4657,4.4676,4.4825,4.5137,4.5457,4.5605,4.5605,4.5605,4.568,4.5796,4.5808,4.5844,4.5883,4.5883,4.5337,4.4492,4.4511,4.3921,4.3193,4.4091,4.3917,4.3144,4.2578,4.2279,4.2151,4.2273,4.1641,4.0721,3.9974,3.974,3.9565,3.8741,3.8508,3.8508,3.8508,3.8508,3.8488,3.8449,3.8441,3.8433,3.8396,3.8117,3.7857,3.775,3.7431,3.7162,3.7092,3.6424,3.5614,3.4762,3.3915,3.2523,3.0261,2.9228,2.8118,2.66,2.6446,2.6178,2.5534,2.5476,2.5476,2.5486,2.5486,2.5486,2.5486,2.5476,2.5437,2.538,2.5408,2.5379,2.5264,2.5321,2.5302,2.5264,2.5077,2.4967,4.2261,4.4,4.5466,4.6133,4.6308,4.6113,4.5449,4.4277,4.2754,4.0643,3.8756,3.6655,0.0,0.0,0.0,3.7537,4.0346,0.0,4.6119,4.7105,0.0,4.806,0.0,4.7589,4.6937,4.686,0.0,0.0,4.5635,4.5572,4.5572,4.5611,4.5573,4.5515,4.5496,4.5438,4.5342,4.5438,4.5534,4.5629,4.576,4.5815,4.5815,4.5815,4.5834,4.5868,4.5819,4.5816,4.5835,4.5835,4.5297,4.451,4.4608,4.3952,4.2986,4.3216,4.3388,4.3484,4.3313,4.3023,4.2651,4.2389,4.2126,4.189,4.166,4.1603,4.1565,4.1355,4.1277,4.1277,4.1277,4.1277,4.1127,4.054,4.0342,4.0151,3.9566,3.9274,3.8935,3.8282,3.7589,3.7126,3.7118,3.6264,3.553,3.5301,3.3863,3.2284,3.0829,3.0451,2.9449,2.7233,2.6996,2.6483,2.5229,2.5126,2.519,2.5341,2.5341,2.5341,2.5341,2.522,2.5126,2.5107,2.5589,2.5541,2.4942,2.5541,2.5503,2.491,2.4727,2.4636,4.3883,4.5268,4.6308,4.6308,4.6016,4.5409,4.413,4.2778,4.0842,3.7482,3.5718,0.0,0.0,0.0,0.0,0.0,0.0,0.0,4.5059,4.6698,4.7798,0.0,4.8639,0.0,4.7988,4.796,4.7713,0.0,4.6371,4.5905,4.5905,4.5866,4.5853,4.5834,4.5776,4.5738,4.5738,4.5815,4.5838,4.5847,4.5886,4.5886,4.5852,4.5852,4.5852,4.5852,0.0,4.5821,4.5835,4.5696,4.5315,4.4838,4.4748,4.4275,4.3641,4.3641,4.3657,4.3624,4.3471,4.3072,4.2618,4.2473,4.1977,4.1474,4.1734,4.1825,4.1871,4.2102,4.2172,4.2172,4.2172,4.2172,4.2065,4.1604,4.1481,4.1316,4.0854,4.0603,4.0195,3.9189,3.8633,3.8223,3.7851,3.7013,3.6258,3.5906,3.4602,3.3088,3.157,3.0913,2.9958,2.8296,2.7826,2.7142,2.6058,2.563,2.5481,2.559,2.529,2.508,2.508,2.4968,2.4917,2.4917,2.5267,2.5261,2.4804,2.5605,2.5586,2.479,2.4968,2.4849,4.4902,4.5723,4.6308,4.6308,4.5566,4.4368,4.2626,4.1159,3.8811,3.4036,0.0,3.1689,2.8605,2.8213,2.9496,3.3006,0.0,3.7887,4.3104,4.5251,4.6943,4.8674,4.8984,4.9078,4.9055,4.905,4.8941,4.8692,4.7174,4.6195,4.6103,4.5979,4.591,4.5896,4.5899,4.5899,4.5899,4.5926,4.5916,4.593,4.593,4.5902,4.5846,4.5827,4.5807,4.5807,4.5763,4.5782,4.5802,4.5447,4.5199,4.5052,4.4693,4.4449,4.4298,4.4298,4.3949,4.3407,4.3133,4.2557,4.2049,4.2359,4.1572,4.0604,4.1106,4.1286,4.1366,4.1829,4.1977,4.1977,4.2069,4.2023,4.1958,4.1919,4.1852,4.1732,4.1659,4.152,4.1144,4.0239,3.9955,3.968,3.8902,3.7992,3.7131,3.6358,3.5433,3.4186,3.2439,3.1219,3.0226,2.9407,2.8676,2.7978,2.7372,2.6578,2.6123,2.6174,2.5491,2.511,2.511,2.5081,2.5081,2.5081,2.5163,2.5148,2.5035,2.585,2.5831,2.5054,2.5591,2.5448,4.5801,4.6172,4.6308,4.6308,4.5098,4.3473,4.1714,3.8469,0.0,0.0,3.0544,2.8684,2.7379,2.8267,3.036,3.3901,0.0,0.0,0.0,0.0,4.7164,0.0,0.0,0.0,0.0,0.0,0.0,0.0,0.0,4.7777,4.7166,4.6459,4.6015,4.5901,4.589,4.589,4.589,4.6012,4.6061,4.6063,4.6062,4.6054,4.6037,4.5926,4.5868,4.5868,4.553,0.0,4.5357,4.4921,4.4447,4.3988,4.389,4.3393,4.2704,4.2704,4.2463,4.2119,4.2073,4.1262,4.0414,4.1573,4.1742,4.1546,4.1685,4.1685,4.1725,4.1805,4.1845,4.1941,4.2468,4.2208,4.1761,4.1578,4.0995,4.0399,3.9946,4.0167,4.0524,4.0844,4.0359,3.9713,3.913,3.7796,3.6651,3.6061,3.4779,3.373,3.3364,3.2658,3.1503,2.9751,2.9119,2.8584,2.7997,2.7196,2.6819,2.697,2.6855,2.6779,2.6779,2.6612,2.6543,2.6543,2.7042,2.694,2.6276,2.7087,2.7069,2.6294,2.6401,2.6381,4.585,4.6144,4.6072,4.5587,4.3876,4.1712,3.9478,0.0,0.0,0.0,2.8695,2.7262,2.6427,0.0,0.0,0.0,0.0,0.0,0.0,0.0,0.0,0.0,0.0,0.0,0.0,0.0,0.0,0.0,0.0,4.8342,4.7995,4.7157,4.6672,4.6683,4.6249,4.6035,4.6113,4.6176,4.6167,4.6092,4.6092,4.5936,4.5665,4.5607,4.5679,4.5795,4.4865,0.0,4.5557,4.4438,4.3818,4.3521,4.3342,4.2765,4.2007,4.1576,4.1157,4.0689,4.0271,3.9547,3.8863,3.9512,3.9983,4.0408,4.1115,4.1313,4.1402,4.1707,4.181,4.1853,4.2162,4.2038,4.1789,4.1645,4.131,4.106,4.1135,4.133,4.1542,4.169,4.115,4.0326,3.9281,3.8241,3.7165,3.6056,3.526,3.4429,3.344,3.3179,3.2439,3.0654,2.9591,2.8871,2.8608,2.7483,2.6913,2.7177,2.6811,2.6688,2.6879,2.6585,2.642,2.642,2.6553,2.6405,2.6021,2.6837,2.6819,2.6045,2.6453,2.6417,4.5453,4.5898,4.5896,4.4965,4.2734,4.0062,3.7366,3.4012,0.0,0.0,2.7218,2.6417,2.578,0.0,0.0,0.0,0.0,0.0,0.0,0.0,0.0,0.0,0.0,0.0,0.0,0.0,0.0,0.0,0.0,0.0,4.8534,4.7675,4.7259,4.7409,4.6529,4.6119,4.6257,4.6237,4.6137,4.595,4.5936,4.5602,4.5004,4.513,4.5176,4.5081,4.405,0.0,0.0,4.3571,4.2931,4.274,4.2356,4.1795,4.1053,4.0288,3.9715,3.9289,3.864,3.806,3.7573,3.7748,3.8189,3.8891,4.0101,4.046,4.0603,4.1268,4.142,4.1464,4.1578,4.1534,4.1411,4.1384,4.1367,4.1603,4.2127,4.2275,4.2282,4.2232,4.1649,4.0735,3.9281,3.8507,3.7629,3.6068,3.57,3.506,3.3529,3.3465,3.3037,3.1653,3.029,2.9496,2.9496,2.807,2.7307,2.7564,2.6828,2.6555,2.6868,2.658,2.6415,2.6415,2.6135,2.6021,2.6021,2.6639,2.6621,2.6038,2.6657,2.6621,4.4696,4.554,4.5907,4.5094,4.2416,3.9289,3.6538,0.0,0.0,2.7309,2.6282,2.5686,2.5543,2.5534,0.0,0.0,0.0,3.1455,0.0,0.0,0.0,0.0,0.0,0.0,0.0,0.0,0.0,0.0,0.0,0.0,4.8567,4.768,4.727,4.7391,4.6443,4.5977,4.6121,4.5997,4.577,4.5468,4.5413,4.49,4.4063,4.4612,4.4177,4.2985,4.3226,0.0,0.0,4.1869,4.1342,4.0812,4.0128,3.9542,3.8988,3.8286,3.8003,3.7962,3.7905,3.7365,3.6843,3.7573,3.7879,3.8035,3.8837,3.9053,3.9229,4.002,4.0254,4.0385,4.0874,4.0625,4.0214,3.9934,4.0096,4.0374,4.0715,4.0955,4.1233,4.1747,4.1221,4.0253,3.8971,3.8104,3.7137,3.5827,3.5043,3.455,3.4389,3.382,3.309,3.2298,3.1533,3.1105,3.1105,2.969,2.8788,2.8847,2.8138,2.7741,2.7769,2.7741,2.7741,2.7741,2.7685,2.7685,2.7685,2.7756,2.7756,2.7685,2.7756,2.7756,4.3497,4.4885,4.5596,4.4233,4.1357,3.8188,3.5504,0.0,2.8293,2.7001,2.6037,2.5406,2.5339,2.5207,2.565,0.0,0.0,0.0,0.0,0.0,0.0,0.0,0.0,0.0,0.0,0.0,0.0,0.0,0.0,0.0,4.8427,4.7966,4.7567,4.7162,4.6293,4.5791,4.5681,4.5628,4.523,4.4513,4.4485,4.3902,4.2923,4.272,4.2665,4.2693,4.1591,0.0,0.0,4.0934,4.0382,4.013,3.9418,3.9017,3.8647,3.7531,3.7084,3.704,3.66,3.6196,3.6006,3.6305,3.643,3.6662,3.7847,3.8525,3.8978,3.9315,3.9731,4.0171,4.0368,4.0237,4.0086,3.9961,4.0033,4.0218,4.0676,4.0833,4.1087,4.1664,4.1244,4.048,3.951,3.882,3.7933,3.653,3.6062,3.5537,3.4607,3.4235,3.3778,3.3034,3.1931,3.1057,3.0609,2.9593,2.9106,2.9301,2.8617,2.832,2.8541,2.7894,2.753,2.753,2.7303,2.7178,2.7178,2.7178,2.7178,2.7178,2.7178,2.7178,4.1351,4.3011,4.3965,4.2164,3.9422,3.6462,0.0,0.0,2.7404,2.6445,2.5716,2.5207,2.5133,2.4873,2.4842,0.0,0.0,2.5585,0.0,0.0,0.0,0.0,0.0,0.0,0.0,0.0,0.0,0.0,0.0,0.0,4.8324,4.8176,4.7697,4.6723,4.6123,4.5532,4.4956,4.4908,4.4405,4.3431,4.3196,4.2569,4.154,4.0989,4.1057,4.1476,3.9852,0.0,0.0,3.9349,3.8831,3.8739,3.7861,3.7538,3.7318,3.5967,3.5409,3.5359,3.4795,3.4624,3.4706,3.4986,3.5067,3.5299,3.6692,3.7616,3.8286,3.8525,3.9156,3.9731,3.9731,3.9901,4.007,4.007,4.007,4.0204,4.0577,4.0655,4.0797,4.1196,4.0967,4.0414,3.9674,3.9228,3.8481,3.7009,3.6772,3.6315,3.4996,3.4827,3.4539,3.3795,3.2797,3.1782,3.0835,2.9724,2.9171,2.9396,2.8732,2.8339,2.8377,2.7764,2.7274,2.6937,2.6774,2.6624,2.6505,2.6624,2.6691,2.6691,2.6691,2.6741,3.8012,3.9624,4.0603,3.8724,3.648,3.3979,0.0,0.0,2.6429,2.5416,2.5152,2.5057,2.4924,2.4467,2.4247,2.4652,2.3989,0.0,0.0,0.0,0.0,0.0,0.0,0.0,0.0,0.0,0.0,0.0,0.0,0.0,4.8249,4.8221,4.7537,4.606,4.5855,4.5188,4.3931,4.3775,4.3254,4.2296,4.1586,4.0725,3.9817,3.9727,3.9317,3.8642,0.0,0.0,0.0,3.6668,3.6249,3.6138,3.4934,3.4463,3.4311,3.3107,3.2664,3.2664,3.2593,3.2593,3.282,3.3739,3.4027,3.4177,3.5198,3.6054,3.6783,3.7573,3.8358,3.8908,3.8908,3.9489,4.007,4.007,4.007,4.007,4.0121,4.0121,4.0121,4.0138,4.0121,3.9884,3.9123,3.8988,3.8481,3.7009,3.6772,3.6502,3.5707,3.5605,3.5318,3.4556,3.4472,3.3863,3.2374,3.0359,2.9189,2.9189,2.853,2.7767,2.6934,2.749,2.7242,2.603,2.6487,2.647,2.6013,2.647,2.6691,2.6691,2.6691,2.6906,3.532,3.725,3.8609,3.6921,3.4997,3.2841,3.019,0.0,2.6322,2.5213,2.4831,2.4542,2.4099,2.3642,2.344,2.3693,2.3198,0.0,0.0,0.0,0.0,0.0,0.0,0.0,0.0,0.0,0.0,0.0,0.0,0.0,4.5443,4.5932,4.6159,4.6012,4.5971,4.5419,4.437,4.331,4.227,4.1358,4.0031,3.9105,3.8421,3.7571,3.7315,0.0,0.0,0.0,0.0,3.5315,3.4969,3.4844,3.3643,3.3422,3.3758,3.2897,3.2593,3.2593,3.2593,3.2593,3.2664,3.2961,3.3031,3.3101,3.3394,3.497,3.6798,3.7573,3.7978,3.8149,3.8149,3.8318,3.8668,3.9156,3.887,3.8832,3.985,3.9662,3.9437,4.0003,4.007,4.0003,3.9766,3.9732,3.9242,3.777,3.755,3.7077,3.5791,3.5622,3.552,3.5284,3.4404,3.3433,3.2442,3.1378,3.05,3.0061,2.8888,2.8114,2.7846,2.7559,2.6999,2.6147,2.6286,2.6065,2.5449,2.5961,2.6401,2.6691,2.6691,2.6791,0.0,3.4061,3.5044,3.3967,3.2362,0.0,0.0,0.0,2.5671,2.487,2.4431,2.4026,2.3476,2.2911,2.2493,2.2387,2.2281,0.0,0.0,0.0,0.0,0.0,0.0,0.0,0.0,0.0,0.0,0.0,0.0,0.0,4.4156,4.4364,4.4512,4.4538,4.4986,4.4718,4.3585,4.2298,4.1291,4.0481,3.9186,3.8109,3.7171,3.6079,3.5736,0.0,0.0,0.0,0.0,3.3668,3.3272,3.3101,3.1724,3.1491,3.1727,3.0672,3.0302,3.0302,3.0302,3.0302,3.0377,3.0725,3.1082,3.1349,3.1349,3.3127,3.52,3.5682,3.6307,3.6826,3.6826,3.7291,3.7921,3.8358,3.8133,3.8035,3.8995,3.9032,3.9032,3.9542,3.9901,4.007,4.007,4.007,3.9681,3.8497,3.8091,3.7466,3.6214,3.5808,3.5622,3.5622,3.4806,3.3909,3.2916,3.1526,3.0493,3.0085,2.9027,2.8239,2.7955,2.7763,2.7206,2.6299,2.6449,2.6268,2.5661,2.6428,2.68,2.6768,2.7011,2.6962,0.0,0.0,0.0,0.0,0.0,0.0,0.0,0.0,0.0,2.4348,2.3914,2.3433,2.2929,2.2146,2.1404,2.0847,2.1234,0.0,0.0,0.0,0.0,0.0,0.0,0.0,0.0,0.0,0.0,0.0,0.0,0.0,4.3933,4.3266,4.2599,4.1946,4.3031,4.303,4.187,4.0958,4.027,3.9658,3.8758,3.7512,3.6015,3.5143,3.4594,0.0,0.0,0.0,0.0,3.1914,3.1279,3.1016,2.9364,2.8727,2.8586,2.7053,2.6483,2.6483,2.6483,2.6483,2.6625,2.7485,2.8397,2.9085,2.9085,3.062,3.2352,3.2437,3.3679,3.4901,3.4996,3.6245,3.7557,3.7616,3.7632,3.7648,3.7764,3.8302,3.8728,3.8799,3.9437,3.9952,3.9952,3.9952,3.9767,3.904,3.8364,3.7686,3.6874,3.6146,3.5673,3.5622,3.5577,3.5005,3.3684,3.1231,2.9658,2.9512,2.8879,2.8184,2.7442,2.7944,2.7658,2.6425,2.6875,2.6859,2.6377,2.7476,2.7633,2.6984,2.7554,2.7451,2.6699,0.0,2.8253,2.7577,2.6893,0.0,0.0,0.0,0.0,0.0,0.0,2.2289,2.1391,2.0751,2.0361,2.0397,2.0764,0.0,0.0,0.0,0.0,0.0,0.0,0.0,0.0,0.0,0.0,0.0,0.0,4.1474,4.1098,4.0903,4.0702,4.0505,4.0176,4.0373,4.1188,4.0372,3.9442,3.8515,3.6698,3.5464,3.4685,3.3342,3.3131,0.0,0.0,0.0,3.2472,3.0829,2.9856,2.934,2.766,2.7053,2.7042,2.6599,2.6483,2.6483,2.6483,2.6483,2.6554,2.6767,2.6977,2.7198,2.7198,2.8512,3.0284,3.1129,3.164,3.2201,3.3017,3.4076,3.502,3.5652,3.59,3.6368,3.7531,3.744,3.7306,3.7905,3.8206,3.8318,3.8318,3.8816,3.896,3.8195,3.8455,3.8261,3.6958,3.662,3.6282,3.569,3.5144,3.4496,3.3684,3.2554,3.1193,2.9675,2.8973,2.8293,2.7599,2.7701,2.7382,2.6555,2.6167,2.6123,2.6377,2.667,2.7131,2.7833,2.7965,2.7848,2.3936,2.4993,2.5888,2.6155,2.5601,2.4813,0.0,0.0,0.0,0.0,0.0,0.0,2.059,0.0,0.0,0.0,0.0,0.0,0.0,0.0,0.0,0.0,0.0,0.0,0.0,0.0,0.0,0.0,0.0,3.9849,3.9539,3.8869,3.8451,3.8473,3.7977,3.8181,3.9274,3.8461,3.7649,3.6866,3.5752,3.4673,3.3684,3.2824,3.2359,0.0,0.0,0.0,3.0538,2.8916,2.8115,2.766,2.6229,2.5714,2.5641,2.5136,2.4607,2.4139,2.4139,2.3776,2.3248,2.3248,2.369,2.4139,2.4139,2.5228,2.6806,2.847,2.9247,2.9682,3.0325,3.1535,3.2695,3.3168,3.3708,3.4432,3.5235,3.5334,3.5604,3.643,3.693,3.7207,3.7301,3.7923,3.8297,3.7933,3.8216,3.8187,3.7385,3.6992,3.6485,3.5707,3.5253,3.464,3.3684,3.3297,3.2175,3.0153,2.9116,2.8427,2.8053,2.7739,2.7445,2.7051,2.6692,2.6642,2.6961,2.7226,2.7674,2.8208,2.8125,2.7985,2.1789,2.2464,2.3439,2.4957,2.4487,2.3601,0.0,0.0,0.0,0.0,0.0,0.0,0.0,0.0,0.0,0.0,0.0,0.0,0.0,0.0,0.0,0.0,0.0,0.0,0.0,0.0,0.0,0.0,0.0,3.869,3.8564,3.7291,3.6554,3.6446,3.639,3.6425,3.658,3.6181,3.5778,3.5341,3.5085,3.4221,3.283,3.2476,3.1573,3.0363,0.0,0.0,2.8504,2.7001,2.629,2.6141,2.4967,2.4447,2.418,2.3193,2.2031,2.1025,2.1025,2.0395,1.9497,1.9497,2.0215,2.1025,2.1025,2.1756,2.3008,2.5115,2.6535,2.7462,2.7622,2.908,3.0524,3.0524,3.1316,3.2181,3.2352,3.2905,3.3675,3.4655,3.5337,3.5922,3.6295,3.6954,3.7476,3.7595,3.7847,3.7845,3.758,3.7216,3.662,3.5723,3.5515,3.4958,3.37,3.3495,3.2667,3.0743,2.946,2.8652,2.8457,2.7874,2.7625,2.7625,2.7625,2.7625,2.7625,2.8091,2.8342,2.8319,2.8167,2.8037,2.1696,2.1395,2.11,2.2375,2.2673,2.2548,0.0,0.0,0.0,0.0,0.0,0.0,0.0,0.0,0.0,0.0,0.0,0.0,0.0,0.0,0.0,0.0,0.0,0.0,0.0,0.0,0.0,0.0,0.0,3.7674,3.7008,3.6722,3.6337,3.5668,3.5659,3.4882,3.3339,3.5125,3.5778,3.5264,3.3563,3.2568,3.2275,2.9917,2.9274,2.9798,0.0,2.747,2.7454,2.6259,2.5477,2.4957,2.38,2.2736,2.1817,2.1649,2.0845,1.9761,1.9761,1.967,1.9497,1.9497,1.9588,1.9761,1.9761,1.9943,2.0305,2.1719,2.3624,2.5514,2.6438,2.7497,2.8379,2.8379,2.9083,3.0046,3.1056,3.1349,3.1726,3.2821,3.3115,3.3419,3.4309,3.5111,3.569,3.5907,3.7552,3.8104,3.6257,3.7014,3.7195,3.5774,3.5098,3.4431,3.3684,3.3093,3.2321,3.1432,3.0148,2.8921,2.7784,2.7619,2.7625,2.7625,2.7625,2.7625,2.7625,2.766,2.7981,2.8467,2.8335,2.8199,1.9433,1.9335,1.9227,1.9496,2.0679,2.1628,0.0,0.0,0.0,0.0,0.0,0.0,0.0,0.0,0.0,0.0,0.0,0.0,0.0,0.0,0.0,0.0,0.0,0.0,0.0,0.0,0.0,0.0,0.0,0.0,3.66,3.6212,3.5831,3.5504,3.4986,3.4259,3.3394,3.3362,3.3159,3.2712,3.1824,3.1325,3.1242,2.9359,2.8631,2.8809,0.0,2.5955,2.5871,2.4691,2.4068,2.379,2.2561,2.1756,2.1114,1.9852,1.9047,1.8411,1.7762,1.7483,1.7483,1.7483,1.794,1.8503,1.8503,1.8956,1.9579,2.0215,2.1542,2.3221,2.4372,2.5419,2.6195,2.6195,2.7048,2.7917,2.8427,2.8597,2.8885,2.9872,3.0099,3.0446,3.1605,3.2486,3.3115,3.355,3.5199,3.5922,3.4649,3.5454,3.5745,3.4627,3.4235,3.3786,3.3093,3.2788,3.2118,3.1057,3.0417,2.949,2.8173,2.8128,2.7949,2.7625,2.7625,2.7625,2.7625,2.7625,2.791,2.8496,2.7952,2.7824,1.75,1.7594,1.7709,1.7188,0.0,2.0542,2.0115,0.0,0.0,0.0,0.0,0.0,0.0,0.0,0.0,0.0,0.0,0.0,0.0,0.0,0.0,0.0,0.0,0.0,0.0,0.0,0.0,0.0,0.0,0.0,3.5664,3.5124,3.4854,3.4854,3.4109,3.3602,3.338,3.1642,3.0701,3.0557,3.0206,2.9967,2.9756,2.8504,2.7719,2.7174,2.5284,2.4372,2.4296,2.3474,2.295,2.2589,2.1658,2.0935,2.0215,1.8041,1.7225,1.7131,1.6109,1.5832,1.5832,1.5832,1.648,1.7225,1.7225,1.7855,1.8764,1.9314,2.0124,2.1114,2.2403,2.3531,2.4372,2.4372,2.5052,2.5808,2.6058,2.6141,2.6356,2.7417,2.7554,2.7956,2.9249,3.0151,3.0831,3.1471,3.2853,3.3617,3.2871,3.3725,3.4107,3.3391,3.336,3.3093,3.2382,3.2327,3.1814,3.0608,3.0507,2.9998,2.8876,2.8682,2.8353,2.7814,2.77,2.7625,2.7625,2.7625,2.786,2.8304,2.7706,2.7734,1.7384,1.7053,1.6637,1.6203,0.0,0.0,1.9813,0.0,0.0,0.0,0.0,0.0,0.0,0.0,0.0,0.0,0.0,0.0,0.0,0.0,0.0,0.0,0.0,0.0,0.0,0.0,0.0,0.0,0.0,0.0,3.2933,3.2806,3.282,3.282,3.2749,3.2321,3.1389,3.0252,2.9907,3.0394,2.8986,2.7999,2.7454,2.588,2.5062,2.4957,2.3714,2.3222,2.3222,2.3135,2.2403,2.1391,2.1293,1.9943,1.7777,1.648,1.592,1.592,1.5832,1.5832,1.5832,1.5832,1.5825,1.592,1.592,1.6015,1.6567,1.8856,1.9579,1.9943,2.1114,2.2306,2.3222,2.3222,2.3309,2.3637,2.4702,2.4957,2.5294,2.6378,2.6625,2.6907,2.7882,2.8926,2.9744,3.0111,3.176,3.25,3.1151,3.2458,3.3216,3.2439,3.2532,3.2382,3.164,3.1582,3.1297,3.0552,3.0507,3.0208,2.9535,2.8921,2.8577,2.8532,2.7904,2.7625,2.7625,2.7625,2.7625,2.7695,2.8042,2.8211,1.6281,1.6127,1.5898,1.5391,0.0,0.0,0.0,0.0,0.0,0.0,0.0,0.0,0.0,0.0,0.0,0.0,0.0,0.0,0.0,0.0,0.0,0.0,0.0,0.0,0.0,0.0,0.0,0.0,0.0,0.0,3.2593,3.2593,3.2593,3.2593,3.1369,3.0527,3.0176,2.8476,2.7383,2.69,2.7021,2.6985,2.6752,2.538,2.4787,2.4702,2.3551,2.2677,2.1943,2.1943,2.1756,2.1203,2.0486,1.8664,1.648,1.6015,1.5832,1.5832,1.5832,1.5832,1.5832,1.5832,1.5832,1.5832,1.5832,1.5832,1.6197,1.7855,1.8956,1.9943,2.1943,2.2765,2.3135,2.3135,2.3135,2.3222,2.3627,2.3714,2.3887,2.4307,2.4392,2.4702,2.5815,2.6289,2.6748,2.7162,2.8921,2.9852,2.899,3.0508,3.1411,3.0805,3.1013,3.1291,3.1467,3.1029,3.066,3.0412,3.0002,2.9554,2.9011,2.8626,2.8523,2.8607,2.8742,2.8622,2.8203,2.8203,2.7993,2.7595,2.7705,2.7955,1.5637,1.5504,0.0,0.0,0.0,0.0,0.0,0.0,0.0,0.0,0.0,0.0,0.0,0.0,0.0,0.0,0.0,0.0,0.0,0.0,0.0,0.0,0.0,0.0,0.0,0.0,0.0,0.0,0.0,0.0,0.0,3.0852,3.069,3.069,2.9297,2.853,2.853,2.6826,2.5546,2.4787,2.5221,2.54,2.5389,2.4638,2.4296,2.4211,2.3008,2.2031,2.1293,2.0845,2.0486,2.0034,1.8848,1.7296,1.5832,1.5832,1.5832,1.5832,1.5832,1.5832,1.5832,1.5832,1.5832,1.5832,1.5832,1.5832,1.6109,1.777,1.8864,2.0042,2.2501,2.3135,2.3135,2.3135,2.3135,2.3135,2.3135,2.3135,2.3135,2.3135,2.3135,2.3387,2.4125,2.4542,2.4925,2.5256,2.663,2.7456,2.7095,2.8587,2.9712,2.9759,2.9869,3.0133,3.0644,3.0208,2.9803,2.9604,2.8983,2.8651,2.872,2.8412,2.834,2.84,2.8925,2.8946,2.8503,2.8591,2.8353,2.7925,2.7806,2.7983,1.5681,1.5301,0.0,0.0,0.0,0.0,0.0,0.0,0.0,0.0,0.0,0.0,0.0,0.0,0.0,0.0,0.0,0.0,0.0,0.0,0.0,0.0,0.0,0.0,0.0,0.0,0.0,0.0,0.0,0.0,0.0,2.7046,2.6483,2.6483,2.6483,2.6472,2.6483,2.5378,2.4787,2.4787,2.3627,2.3047,2.3135,2.3135,2.3047,2.3047,2.1845,2.1293,2.1203,1.9943,1.8772,1.7598,1.6298,1.5832,1.5832,1.5832,1.5832,1.5832,1.5832,1.5832,1.5832,1.5832,1.5832,1.5832,1.5832,1.5832,1.6285,1.8764,1.9488,2.0042,2.2501,2.3047,2.3135,2.3135,2.3135,2.3135,2.3135,2.3135,2.3135,2.3135,2.3135,2.3135,2.3135,2.4049,2.4787,2.4787,2.5207,2.555,2.563,2.6828,2.8267,2.9627,2.9297,2.9002,2.9002,2.9002,2.8677,2.8023,2.731,2.7501,2.8898,2.8346,2.7968,2.7982,2.8177,2.8283,2.8283,2.8532,2.8607,2.8592,2.8526,2.8527,1.4582,0.0,0.0,0.0,0.0,0.0,0.0,0.0,0.0,0.0,0.0,0.0,0.0,0.0,0.0,0.0,0.0,0.0,0.0,0.0,0.0,0.0,0.0,0.0,0.0,0.0,0.0,0.0,0.0,0.0,0.0,2.6637,2.6483,2.6483,2.5714,2.4935,2.4033,2.293,2.2347,2.2337,2.1114,2.1498,2.3135,2.3135,2.2677,2.1845,2.148,2.0305,1.8772,1.8411,1.749,1.6386,1.6943,1.6574,1.5832,1.5832,1.5832,1.5832,1.5832,1.5832,1.5832,1.5832,1.5832,1.5832,1.5832,1.5832,1.6103,1.777,1.8864,1.9852,2.1391,2.2492,2.3135,2.3135,2.3135,2.3135,2.3135,2.3135,2.3135,2.3135,2.3135,2.3135,2.3135,2.3387,2.3627,2.3627,2.4158,2.4925,2.5641,2.6375,2.725,2.8254,2.8197,2.8298,2.8939,2.8427,2.7971,2.7798,2.7037,2.6935,2.755,2.7006,2.7066,2.7968,2.8168,2.819,2.807,2.8742,2.8606,2.769,2.8286,2.8564,1.4878,0.0,0.0,0.0,0.0,0.0,0.0,0.0,0.0,0.0,0.0,0.0,0.0,0.0,0.0,0.0,0.0,0.0,0.0,0.0,0.0,0.0,0.0,0.0,0.0,0.0,0.0,0.0,0.0,0.0,0.0,2.4101,2.368,2.368,2.3095,2.2309,2.1594,2.0917,2.0576,2.0576,1.9852,2.0223,2.1676,2.1676,2.1311,2.0576,2.0124,1.8764,1.6943,1.6943,1.648,1.5927,1.6669,1.648,1.5832,1.5832,1.5832,1.5832,1.5832,1.5832,1.5832,1.5832,1.5832,1.5832,1.5832,1.5832,1.6197,1.7948,1.8956,1.9852,2.1578,2.258,2.3135,2.3135,2.3135,2.3135,2.3135,2.3135,2.3135,2.3135,2.3135,2.3135,2.3135,2.3135,2.3135,2.3135,2.3353,2.3888,2.4745,2.4937,2.5367,2.6282,2.6503,2.6828,2.7339,2.7324,2.7229,2.7229,2.6782,2.6598,2.6821,2.6438,2.6608,2.7389,2.7773,2.7963,2.7899,2.846,2.8566,2.8095,2.8061,2.8271,0.0,0.0,0.0,0.0,0.0,0.0,0.0,0.0,0.0,0.0,0.0,0.0,0.0,0.0,0.0,0.0,0.0,0.0,0.0,0.0,0.0,0.0,0.0,0.0,0.0,0.0,0.0,0.0,0.0,0.0,0.0,2.0368,1.9447,1.9447,1.948,1.9405,1.9314,1.9314,1.9298,1.9257,1.9174,1.9157,1.9216,1.9464,1.9405,1.9314,1.8048,1.685,1.5825,1.5798,1.5805,1.5825,1.5798,1.5805,1.5832,1.5832,1.5832,1.5832,1.5832,1.5832,1.5832,1.5832,1.5832,1.5832,1.5832,1.5832,1.6285,1.8488,1.9314,2.0042,2.2227,2.296,2.3135,2.3135,2.3135,2.3135,2.3135,2.3135,2.3135,2.3135,2.3135,2.3135,2.3135,2.3135,2.3115,2.3037,2.2734,2.2661,2.3192,2.2914,2.3107,2.4026,2.4638,2.5004,2.5004,2.5943,2.6533,2.6533,2.6533,2.6533,2.6533,2.6483,2.6471,2.6533,2.7165,2.7551,2.7604,2.7823,2.8344,2.9054,2.7883,2.7752,0.0,0.0,0.0,0.0,0.0,0.0,0.0,0.0,0.0,0.0,0.0,0.0,0.0,0.0,0.0,0.0,0.0,0.0,0.0,0.0,0.0,0.0,0.0,0.0,0.0,0.0,0.0,0.0,0.0,0.0,1.935,1.9222,1.9165,1.9165,1.9348,1.9047,1.8141,1.8048,1.7995,0.0,1.674,1.6701,1.7432,1.8872,1.8956,1.8048,1.6756,1.6015,1.5812,1.5585,1.5625,1.5805,1.5578,1.5625,1.5832,1.5832,1.5832,1.5832,1.5832,1.5832,1.5832,1.5832,1.5832,1.5832,1.5832,1.5832,1.592,1.6473,1.8033,1.9579,2.0133,2.1676,2.3135,2.3135,2.3135,2.3135,2.3135,2.3135,2.3135,2.3135,2.3135,2.3135,2.3135,2.3135,2.292,2.2256,2.2353,2.231,2.1769,2.2265,2.2808,2.303,2.4198,2.5004,2.5004,2.5943,2.6533,2.6533,2.6533,2.6533,2.6533,2.6025,2.6,2.6521,2.6202,2.6257,2.6782,2.7419,2.7611,2.7256,2.7693,2.778,0.0,0.0,0.0,0.0,0.0,0.0,0.0,0.0,0.0,0.0,0.0,0.0,0.0,0.0,0.0,0.0,0.0,0.0,0.0,0.0,0.0,0.0,0.0,0.0,0.0,0.0,0.0,0.0,0.0,1.7194,1.7375,1.7198,1.713,1.713,1.7296,1.7032,1.6408,1.6408,1.6323,1.6145,1.554,1.5458,1.6006,1.6959,1.7032,1.6415,1.5688,1.5418,1.5404,1.5251,1.5277,1.5418,1.5398,1.5491,1.5638,1.5778,1.5832,1.5832,1.5832,1.5832,1.5832,1.5832,1.5832,1.5832,1.5832,1.5832,1.592,1.6574,1.8033,1.967,2.0215,2.1765,2.3135,2.3135,2.3135,2.3135,2.3135,2.3135,2.3135,2.3135,2.3135,2.3135,2.3135,2.2969,2.2627,2.1982,2.1894,2.1814,2.1597,2.1653,2.1875,2.2318,2.3067,2.3588,2.3588,2.4921,2.5804,2.5804,2.6245,2.6533,2.6533,2.5741,2.5716,2.6452,2.6163,2.6163,2.6533,2.6905,2.7128,2.7183,2.7354,2.7671,0.0,0.0,0.0,0.0,0.0,0.0,0.0,0.0,0.0,0.0,0.0,0.0,0.0,0.0,0.0,0.0,0.0,0.0,0.0,0.0,0.0,0.0,0.0,0.0,0.0,0.0,0.0,0.0,0.0,1.5679,1.5679,1.5154,1.479,1.4736,1.4836,1.4863,1.4816,1.4863,1.4863,1.4816,1.4816,1.4816,1.4816,1.4816,1.487,1.4963,1.4963,1.4963,1.4963,1.491,1.4917,1.4983,1.517,1.5277,1.5357,1.5651,1.5718,1.5698,1.5792,1.5798,1.5765,1.5812,1.5832,1.5832,1.5832,1.5832,1.6015,1.7037,1.8226,1.9405,2.0395,2.1578,2.2501,2.2765,2.2775,2.2862,2.3047,2.3135,2.3135,2.3135,2.3135,2.3135,2.3135,2.2793,2.2373,2.1953,2.1514,2.1372,2.1731,2.1078,2.0934,2.1669,2.1886,2.2027,2.2027,2.3672,2.4791,2.5016,2.5804,2.6314,2.6465,2.5734,2.5664,2.6452,2.6314,2.6314,2.6533,2.6533,2.685,2.7471,2.6909,2.7427,0.0,0.0,0.0,0.0,0.0,0.0,0.0,0.0,0.0,0.0,0.0,0.0,0.0,0.0,0.0,0.0,0.0,0.0,0.0,0.0,0.0,0.0,0.0,0.0,0.0,0.0,0.0,0.0,1.3974,1.3912,1.3912,1.4126,1.4088,1.3828,1.4309,1.4462,1.4208,1.4456,1.4456,1.4202,1.4202,1.4202,1.4202,1.4202,1.4482,1.4963,1.4963,1.4963,1.4943,1.4689,1.473,1.4943,1.4723,1.4796,1.5057,1.5344,1.5297,1.515,1.5658,1.5665,1.5498,1.5745,1.5832,1.5832,1.5832,1.5832,1.5832,1.6015,1.6943,1.7963,1.8141,1.9047,2.0215,2.1302,2.1569,2.1845,2.2862,2.3135,2.3135,2.3135,2.3135,2.3135,2.3135,2.2793,2.2373,2.1953,2.1514,2.1074,2.0848,2.0712,2.0644,2.0789,2.1517,2.2027,2.2027,2.3073,2.4036,2.4933,2.5158,2.5594,2.6452,2.6383,2.6383,2.6533,2.5664,2.5664,2.6533,2.6533,2.6589,2.6658,2.6582,2.6709,0.0,0.0,0.0,0.0,0.0,0.0,0.0,0.0,0.0,0.0,0.0,0.0,0.0,0.0,0.0,0.0,0.0,0.0,0.0,0.0,0.0,0.0,0.0,0.0,0.0,0.0,0.0,0.0,1.34,1.34,1.34,1.3527,1.3534,1.3407,1.3647,1.3721,1.3601,1.3721,1.3721,1.3601,1.3601,1.3601,1.3601,1.3761,1.4068,1.4476,1.4476,1.4476,1.4462,1.4329,1.4355,1.4476,1.4509,1.4603,1.475,1.5044,1.507,1.4997,1.5257,1.5257,1.5204,1.5491,1.5478,1.5404,1.5732,1.5718,1.5618,1.5785,1.6756,1.7647,1.7445,1.8831,2.035,2.0968,2.1512,2.2149,2.2611,2.2969,2.3066,2.2832,2.2978,2.2988,2.2519,2.2285,2.2012,2.1582,2.1143,2.1006,2.1328,2.0934,2.0789,2.1298,2.1298,2.1231,2.1231,2.2113,2.3073,2.4108,2.4707,2.5441,2.6452,2.5955,2.5664,2.5664,2.5804,2.5804,2.5664,2.6245,2.6233,2.5664,2.6245,2.6764,0.0,0.0,0.0,0.0,0.0,0.0,0.0,0.0,0.0,0.0,0.0,0.0,0.0,0.0,0.0,0.0,0.0,0.0,0.0,0.0,0.0,0.0,0.0,0.0,0.0,0.0,0.0,0.0,1.3046,1.3093,1.3093,1.3093,1.306,1.2979,1.3053,1.3053,1.2979,1.3053,1.3093,1.3093,1.3173,1.3213,1.322,1.3434,1.3654,1.3874,1.4021,1.4088,1.4088,1.4088,1.4088,1.4108,1.4322,1.4409,1.4442,1.4743,1.4803,1.4763,1.491,1.4963,1.4997,1.5217,1.5244,1.5251,1.5611,1.5571,1.5458,1.5745,1.6425,1.7065,1.6883,1.8367,2.0043,2.0298,2.1253,2.2149,2.2425,2.2676,2.2734,2.2412,2.2607,2.2617,2.1992,2.1885,2.1777,2.1445,2.1113,2.1204,2.1865,2.135,2.1154,2.1701,2.1181,2.0684,2.0576,2.1221,2.2038,2.3073,2.3818,2.4707,2.5721,2.5123,2.4776,2.4636,2.5491,2.5491,2.4636,2.5358,2.5358,2.4636,2.5664,2.6414,0.0,0.0,0.0,0.0,0.0,0.0,0.0,0.0,0.0,0.0,0.0,0.0,0.0,0.0,0.0,0.0,0.0,0.0,0.0,0.0,0.0,0.0,0.0,0.0,0.0,0.0,0.0,0.0,1.2612,1.2849,1.2849,1.2849,1.2721,1.2358,1.2625,1.2632,1.2351,1.2632,1.2849,1.2849,1.3073,1.3213,1.3213,1.3227,1.324,1.3287,1.3848,1.4088,1.4088,1.4088,1.4088,1.4088,1.4108,1.4108,1.4142,1.4436,1.4369,1.4208,1.477,1.4963,1.497,1.4983,1.5351,1.5738,1.5491,1.5404,1.5458,1.5745,1.5631,1.557,1.5826,1.6821,1.8034,1.8775,1.993,2.108,2.2244,2.2217,2.1943,2.1924,2.1934,2.1934,2.1894,2.1885,2.1875,2.1855,2.1836,2.1816,2.1899,2.1899,2.166,2.132,2.1201,2.1025,2.0596,2.0644,2.1078,2.2027,2.2103,2.2627,2.3588,2.4048,2.4007,2.3599,2.406,2.4071,2.3599,2.3661,2.3661,2.3588,2.4636,2.5075,0.0,0.0,0.0,0.0,0.0,0.0,0.0,0.0,0.0,0.0,0.0,0.0,0.0,0.0,0.0,0.0,0.0,0.0,0.0,0.0,0.0,0.0,0.0,0.0,0.0,0.0,0.0,0.0,0.0,1.1897,1.1897,1.1897,1.185,1.1744,1.1844,1.1937,1.2024,1.2131,1.2278,1.2458,1.2579,1.2625,1.2632,1.2826,1.2913,1.2933,1.3347,1.3627,1.3814,1.4008,1.4088,1.4088,1.4088,1.4088,1.4095,1.4202,1.4175,1.4115,1.4329,1.4402,1.4462,1.4836,1.4977,1.5044,1.5311,1.5398,1.5378,1.5297,1.5331,1.5378,1.5297,1.6543,1.8181,1.9928,2.095,2.1578,2.2026,2.1768,2.1465,2.1465,2.1699,2.1797,2.1514,2.1699,2.1885,2.1885,2.1885,2.1885,2.1885,2.1885,2.1826,2.167,2.1396,2.1172,2.1006,2.0732,2.1001,2.1952,2.2027,2.2617,2.391,2.41,2.3941,2.3367,2.3538,2.3249,2.2553,2.322,2.3147,2.2553,2.3588,2.4409,0.0,0.0,0.0,0.0,0.0,0.0,0.0,0.0,0.0,0.0,0.0,0.0,0.0,0.0,0.0,0.0,0.0,0.0,0.0,0.0,0.0,0.0,0.0,0.0,0.0,0.0,0.0,0.0,0.0,0.0,1.1423,1.1423,1.1423,1.1423,1.1423,1.1523,1.1717,1.1724,1.1864,1.2158,1.2158,1.2204,1.2311,1.2505,1.2599,1.2612,1.2919,1.322,1.3514,1.3707,1.3848,1.3928,1.3828,1.3915,1.4075,1.3975,1.4001,1.4088,1.4088,1.4155,1.4282,1.4576,1.4669,1.4723,1.501,1.517,1.5211,1.5017,1.5104,1.5204,1.5017,1.6446,1.8456,2.0251,2.1202,2.167,2.167,2.1445,2.123,2.123,2.1592,2.1748,2.1309,2.1719,2.21,2.21,2.2217,2.2305,2.2305,2.2305,2.2246,2.2119,2.1709,2.1455,2.1455,2.1045,2.1154,2.19,2.1845,2.2268,2.3353,2.3442,2.3203,2.2644,2.2716,2.2429,2.1517,2.2357,2.2347,2.1517,2.2553,2.3745,0.0,0.0,0.0,0.0,0.0,0.0,0.0,0.0,0.0,0.0,0.0,0.0,0.0,0.0,0.0,0.0,0.0,0.0,0.0,0.0,0.0,0.0,0.0,0.0,0.0,0.0,0.0,0.0,1.1229,1.139,1.1403,1.1403,1.1403,1.1403,1.1403,1.1403,1.141,1.141,1.1563,1.1857,1.1857,1.2011,1.2285,1.2285,1.2291,1.2318,1.2605,1.2906,1.3186,1.32,1.3373,1.3519,1.332,1.3561,1.4028,1.3748,1.3828,1.4075,1.4082,1.4269,1.4462,1.4188,1.4482,1.4897,1.4609,1.473,1.4963,1.4943,1.4943,1.495,1.5026,1.6683,1.8581,1.9377,2.0395,2.1179,2.1269,2.1269,2.1269,2.126,2.1592,2.1758,2.1338,2.1963,2.2519,2.2529,2.2881,2.3135,2.3135,2.3135,2.2988,2.2578,2.2158,2.1904,2.1904,2.1504,2.1435,2.1855,2.1484,2.1445,2.1885,2.1894,2.1689,2.1279,2.168,2.1455,2.0586,2.1016,2.0986,2.0644,2.1593,2.3073,1.2317,0.0,0.0,0.0,0.0,0.0,0.0,0.0,0.0,0.0,0.0,0.0,0.0,0.0,0.0,0.0,0.0,0.0,0.0,0.0,0.0,0.0,0.0,0.0,0.0,0.0,0.0,0.0,1.0401,1.0575,1.0788,1.0795,1.0795,1.0795,1.0795,1.0902,1.1109,1.1109,1.1263,1.155,1.155,1.1703,1.1991,1.1991,1.2104,1.2305,1.2392,1.2472,1.2585,1.3026,1.326,1.332,1.324,1.3307,1.3467,1.3594,1.3694,1.3801,1.4015,1.4142,1.4229,1.4355,1.4509,1.4629,1.4543,1.473,1.4877,1.4449,1.4482,1.4764,1.5376,1.641,1.7628,1.9212,2.0008,2.0819,2.1913,2.2158,2.207,2.1768,2.1807,2.1943,2.2129,2.2353,2.2617,2.292,2.3066,2.3135,2.3135,2.3135,2.3096,2.2978,2.2588,2.2344,2.2344,2.1953,2.1758,2.1875,2.1777,2.1894,2.2324,2.2041,2.1973,2.2158,2.1982,2.1611,2.1045,2.085,2.0684,2.0644,2.1593,2.2702,0.0,0.0,0.0,0.0,0.0,0.0,1.2122,1.2502,0.0,0.0,0.0,0.0,0.0,0.0,0.0,0.0,0.0,0.0,0.0,0.0,0.0,0.0,0.0,0.0,0.0,0.9513,0.9606,0.9892,1.002,1.0247,1.0611,1.0441,1.0434,1.0618,1.0624,1.0705,1.0808,1.0815,1.0955,1.1243,1.1243,1.1396,1.169,1.1817,1.1964,1.2131,1.2245,1.2305,1.2331,1.2685,1.2906,1.3006,1.2879,1.306,1.34,1.3447,1.3614,1.3854,1.4028,1.4088,1.4115,1.4282,1.4342,1.4342,1.4342,1.4543,1.4683,1.4215,1.4208,1.4467,1.4943,1.5837,1.6814,1.7722,1.8708,1.9844,2.1212,2.1228,2.1188,2.201,2.2295,2.2432,2.25,2.2656,2.2852,2.3105,2.3135,2.3135,2.3135,2.3135,2.3135,2.3135,2.2764,2.2578,2.2754,2.2383,2.2217,2.2402,2.2246,2.2334,2.2754,2.2373,2.2178,2.2246,2.2012,2.1582,2.0957,2.0879,2.0752,2.0644,2.1155,2.1962,0.0,0.0,0.0,0.0,0.0,0.0,1.3138,1.3097,1.3042,0.0,0.0,0.0,0.0,0.0,0.0,0.0,0.0,0.0,0.0,0.0,0.0,0.0,0.0,0.0,0.9213,0.9185,0.9312,0.9613,0.99,1.02,1.0557,1.0261,1.0254,1.0611,1.0624,1.0624,1.0624,1.0624,1.0688,1.0949,1.0949,1.1109,1.143,1.167,1.1824,1.1931,1.2158,1.2271,1.2305,1.2305,1.2458,1.2748,1.2405,1.2792,1.3393,1.328,1.354,1.4001,1.4068,1.4068,1.4041,1.4075,1.4062,1.4041,1.4075,1.4269,1.4422,1.4162,1.4088,1.4088,1.4088,1.5099,1.5985,1.5808,1.7046,1.8537,1.9765,1.935,1.9431,2.1702,2.2582,2.2746,2.2465,2.2804,2.3135,2.3135,2.3135,2.3135,2.3135,2.3135,2.3135,2.3135,2.2803,2.2734,2.3105,2.2793,2.2744,2.3115,2.2783,2.2754,2.3125,2.2734,2.2314,2.1894,2.1787,2.1348,2.0566,2.0967,2.0957,2.0566,2.0566,2.1078,0.0,0.0,0.0,0.0,0.0,0.0,1.0734,1.0981,1.1327,0.0,0.0,0.0,0.0,0.0,0.0,0.0,0.0,0.0,0.0,0.0,0.0,0.0,0.0,0.0,0.9702,0.9196,0.9011,0.9305,0.9599,0.99,1.0187,1.0147,1.0254,1.0611,1.0624,1.0624,1.0624,1.0624,1.0651,1.0705,1.0705,1.0915,1.1416,1.1243,1.155,1.2204,1.2031,1.2084,1.2305,1.2305,1.2338,1.2385,1.2325,1.2412,1.2619,1.3053,1.328,1.3447,1.3921,1.3928,1.3768,1.4008,1.3928,1.3774,1.4015,1.4128,1.4162,1.4102,1.4088,1.4088,1.4088,1.4291,1.4782,1.5955,1.6437,1.711,1.8598,1.881,1.8866,1.9615,2.0766,2.164,2.1557,2.2435,2.3135,2.3135,2.3135,2.3135,2.3135,2.3135,2.3135,2.3135,2.3066,2.3047,2.3135,2.3066,2.3057,2.3135,2.3057,2.3057,2.3135,2.2734,2.2314,2.1894,2.1182,2.0742,2.0566,2.0654,2.0654,2.0566,2.0566,2.1078,0.0,0.0,0.0,1.0885,0.0,0.0,0.0,1.1438,1.1646,0.0,0.0,0.0,0.0,0.0,0.0,0.0,0.0,0.0,0.0,0.0,0.0,0.0,0.0,0.0,0.9309,0.9008,0.8925,0.9163,0.9245,0.9439,0.988,0.976,0.988,1.0327,1.0341,1.0408,1.0624,1.0624,1.0624,1.0624,1.0624,1.0715,1.0995,1.0995,1.1309,1.1864,1.187,1.1951,1.2098,1.2238,1.2218,1.2098,1.2245,1.2392,1.2559,1.2866,1.308,1.3273,1.3714,1.3768,1.3667,1.3814,1.3768,1.3592,1.3821,1.3968,1.4088,1.4088,1.4088,1.4088,1.4088,1.4088,1.4291,1.5007,1.5326,1.5857,1.7384,1.7208,1.7105,1.8151,1.8856,1.9527,2.0271,2.1391,2.2217,2.2217,2.2677,2.3135,2.3135,2.3135,2.3057,2.2852,2.3018,2.3057,2.2842,2.3018,2.3135,2.3135,2.3135,2.3135,2.3135,2.2939,2.2529,2.1894,2.124,2.0898,2.0898,2.0898,2.0781,2.0566,2.0566,2.0857,0.0,0.0,0.0,0.0,0.0,1.1252,0.0,0.0,0.0,0.0,0.0,0.0,0.0,0.0,0.0,0.0,0.0,0.0,0.0,0.0,0.0,0.0,0.0,0.0,0.0,0.8745,0.8803,0.9084,0.8829,0.8934,0.9573,0.9426,0.9546,1.002,1.014,1.0294,1.0474,1.0598,1.0624,1.0624,1.0624,1.0651,1.0648,1.0828,1.1096,1.1436,1.1617,1.1737,1.1804,1.2037,1.1997,1.1817,1.2171,1.2452,1.2741,1.2802,1.2906,1.3173,1.352,1.3607,1.3581,1.3694,1.3687,1.3572,1.3707,1.3854,1.4015,1.4075,1.4088,1.4088,1.4088,1.4088,1.4088,1.4088,1.4269,1.4749,1.6009,1.5525,1.539,1.6842,1.696,1.7447,1.9157,2.0486,2.1382,2.1569,2.2492,2.3135,2.3135,2.3135,2.2978,2.2559,2.2891,2.2969,2.2549,2.29,2.3135,2.3135,2.3135,2.3135,2.3135,2.3057,2.2705,2.2021,2.1582,2.1357,2.1357,2.1357,2.1133,2.0693,2.0605,2.0566,0.0,0.0,0.0,0.0,1.1002,0.0,0.0,0.0,1.1065,1.1116,0.0,0.0,0.0,0.0,0.0,0.0,0.0,0.0,0.0,0.0,0.0,0.0,0.0,0.0,0.0,0.8632,0.8435,0.8818,0.8513,0.8546,0.923,0.9512,0.9666,0.9733,1.0241,1.0401,1.0167,1.0428,1.0624,1.0624,1.0624,1.0695,1.0935,1.0715,1.0909,1.1416,1.1189,1.1243,1.1476,1.151,1.1503,1.153,1.2084,1.2325,1.2385,1.2728,1.2842,1.2956,1.3447,1.3474,1.3347,1.3868,1.3854,1.3694,1.3955,1.3874,1.3748,1.4015,1.4088,1.4088,1.4088,1.4088,1.4088,1.4088,1.4115,1.4226,1.4345,1.4468,1.4669,1.5176,1.5511,1.6472,1.9066,2.0486,2.1658,2.2765,2.3047,2.3135,2.3135,2.3135,2.2978,2.2559,2.2891,2.2969,2.2549,2.29,2.3135,2.3135,2.3135,2.3135,2.3135,2.2783,2.2539,2.2441,2.2031,2.1816,2.1816,2.1816,2.1582,2.1152,2.0752,2.0566,0.0,0.0,0.0,0.0,0.0,0.0,1.1416,0.0,1.1023,0.0,0.0,0.0,0.0,0.0,0.0,0.0,0.8837,0.0,0.0,0.0,0.0,0.0,0.0,0.0,0.0,0.0,0.0,0.0,0.8851,0.8816,0.95,0.9316,0.9332,0.9673,0.9927,1.0154,1.0374,1.0557,1.0624,1.0624,1.0624,1.0692,1.0735,1.0678,1.0782,1.1169,1.1049,1.1062,1.1189,1.1356,1.1423,1.1463,1.1891,1.2051,1.2084,1.2378,1.2485,1.2572,1.318,1.3313,1.3253,1.35,1.3494,1.3414,1.354,1.3728,1.3928,1.4048,1.4088,1.4088,1.4088,1.4088,1.4088,1.4088,1.4088,1.4135,1.4302,1.4302,1.4456,1.509,1.5177,1.5825,1.8041,1.9497,2.0666,2.1845,2.2677,2.3135,2.3135,2.3135,2.2881,2.2217,2.2519,2.25,2.1826,2.2168,2.2519,2.2754,2.2998,2.3135,2.3135,2.2734,2.251,2.251,2.2344,2.2246,2.2246,2.2246,2.2031,2.1602,2.1162,2.0957,1.257,0.0,0.0,0.0,0.0,0.0,0.0,0.0,0.0,0.0,0.0,0.0,0.0,0.0,0.0,0.0,0.0,0.8425,0.0,0.0,0.0,0.0,0.0,0.0,0.0,0.0,0.0,0.9607,0.9169,0.9182,0.9769,0.9446,0.9296,0.9432,0.9673,0.9967,1.0376,1.0544,1.0624,1.0624,1.0624,1.0624,1.0624,1.0624,1.0739,1.0875,1.0875,1.0875,1.0895,1.1102,1.1236,1.1336,1.1637,1.1797,1.1904,1.2191,1.2351,1.2498,1.3026,1.332,1.3434,1.3353,1.3327,1.3327,1.3327,1.3627,1.3981,1.4062,1.4088,1.4088,1.4088,1.4088,1.4088,1.4088,1.4088,1.4142,1.4355,1.4302,1.4396,1.503,1.505,1.5562,1.7268,1.8617,1.9943,2.1114,2.2031,2.2589,2.2589,2.2589,2.2265,2.1444,2.2184,2.2295,2.1318,2.1738,2.2187,2.249,2.291,2.3135,2.3135,2.2852,2.2685,2.2685,2.2685,2.2685,2.2685,2.2568,2.2353,2.2041,2.1494,2.123,0.0,0.0,0.0,1.2067,0.0,0.0,0.0,0.0,1.1276,0.0,0.0,0.0,0.0,0.0,0.0,0.0,0.0,0.0,0.0,0.0,0.0,0.0,0.0,0.0,0.0,0.0,0.8251,0.9152,0.9173,0.9369,0.9777,1.0067,0.9789,0.8844,0.9659,0.9973,0.9713,1.0335,1.0624,1.0624,1.0624,1.0624,1.0624,1.0624,1.0624,1.0638,1.0638,1.0638,1.0638,1.0651,1.0755,1.1035,1.1323,1.1617,1.1904,1.2191,1.2485,1.2856,1.31,1.3581,1.4008,1.3721,1.3627,1.3627,1.3627,1.3559,1.3714,1.4008,1.4088,1.4088,1.4088,1.4088,1.4088,1.4088,1.4088,1.4088,1.4095,1.4315,1.4516,1.4543,1.477,1.5493,1.6943,1.8533,1.9943,2.1114,2.1293,2.1382,2.1382,2.1382,2.0995,2.0117,2.1892,2.2607,2.1348,2.2012,2.25,2.251,2.291,2.3135,2.3135,2.3125,2.3115,2.3115,2.3115,2.3115,2.3115,2.2715,2.251,2.2471,2.1631,2.123,0.0,0.0,1.4318,1.3294,0.0,0.0,0.0,0.0,0.0,0.0,0.0,0.0,0.0,0.0,0.0,0.0,0.0,0.0,0.0,0.0,0.0,0.0,0.0,0.0,0.0,0.0,0.0,0.982,0.9687,0.9859,1.0423,0.9716,0.926,0.9092,0.9329,0.9673,0.9967,1.0167,1.0367,1.0624,1.0624,1.0624,1.0624,1.0624,1.0624,1.0624,1.0624,1.0668,1.0842,1.0842,1.1136,1.1583,1.1683,1.1897,1.2191,1.2485,1.2735,1.2896,1.332,1.3627,1.3774,1.3674,1.3559,1.3559,1.3559,1.3781,1.3955,1.4055,1.4088,1.4088,1.4088,1.4088,1.4088,1.4088,1.4088,1.4088,1.4088,1.4162,1.4289,1.4482,1.4603,1.4933,1.5576,1.7033,1.8486,1.9901,2.0755,2.1025,2.0215,2.0845,2.1094,2.0476,2.1826,2.2432,2.1728,2.2187,2.251,2.251,2.291,2.3135,2.3135,2.3135,2.3135,2.3135,2.3135,2.3135,2.3135,2.2998,2.2646,2.21,2.208,2.1777,1.4318,1.4549,0.0,1.3542,1.3616,0.0,1.2657,0.0,1.2304,0.0,0.0,0.0,0.0,0.0,0.0,0.0,0.0,0.0,0.0,0.776,0.0,0.0,0.0,0.0,0.0,0.0,0.9358,1.05,1.0167,1.021,0.0,0.0,0.9348,0.9078,0.913,0.9416,0.996,1.0067,1.0267,1.0624,1.0624,1.0624,1.0624,1.0624,1.0624,1.0624,1.0624,1.0728,1.0995,1.0995,1.1343,1.187,1.187,1.2044,1.2325,1.2518,1.2726,1.2986,1.3474,1.3714,1.3781,1.3674,1.3714,1.3781,1.3674,1.3848,1.4088,1.4088,1.4088,1.4088,1.4088,1.4088,1.4088,1.4088,1.4088,1.4088,1.4088,1.4088,1.4175,1.4462,1.4436,1.4496,1.4897,1.6063,1.7405,1.9134,2.0129,2.0567,2.0215,2.0845,2.1148,2.0752,2.1921,2.2568,2.2139,2.2353,2.251,2.251,2.291,2.3135,2.3135,2.3135,2.3135,2.3135,2.3135,2.3066,2.292,2.2764,2.2334,2.167,2.209,2.1914]},{"header":{"parameterUnit":"m.s-1","parameterCategory":1,"la1":30.6,"la2":29.2853,"lo1":-89.7004,"lo2":-87.6739,"dy":0.0162,"dx":0.0183,"nx":112,"ny":82,"refTime":"2023-09-12T18:00:00:Z","depth":0,"parameterNumber":3,"parameterNumberName":"V-component_of_WINDS"},"data":[0.0,0.0,0.0,0.0,0.0,0.0,0.0,0.0,0.0,0.0,0.0,0.0,0.0,0.0,0.0,0.0,0.0,0.0,0.0,0.0,0.0,0.0,0.0,0.0,0.0,0.0,0.0,0.0,0.0,0.0,0.0,0.0,0.0,0.0,0.0,0.0,0.0,0.0,0.0,0.0,0.0,0.0,0.0,0.0,0.0,0.0,0.0,0.0,0.0,0.0,0.0,0.0,0.0,0.0,0.0,0.0,0.0,0.0,0.0,0.0,0.0,0.0,0.0,0.0,0.0,0.0,0.0,0.0,0.0,0.0,0.0,0.0,0.0,0.0,0.0,0.0,0.0,0.0,0.0,0.0,0.0,0.0,0.0,0.0,0.0,0.0,0.0,0.0,0.0,0.0,0.6719,0.8106,0.9686,1.1116,1.2193,1.1652,1.0958,1.0243,0.0,0.0,0.0,0.0,0.0,0.0,0.0,0.0,0.0,0.0,0.0,0.0,0.0,0.0,0.0,0.0,0.0,0.0,0.0,0.0,0.0,0.0,0.0,0.0,0.0,0.0,0.0,0.0,0.0,0.0,0.0,0.0,0.0,0.0,0.0,0.0,0.0,0.0,0.0,0.0,0.0,0.0,0.0,0.0,0.0,0.0,0.0,0.0,0.0,0.0,0.0,0.0,0.0,0.0,0.0,0.0,0.0,0.0,0.0,0.0,0.0,0.0,0.0,0.0,0.0,0.0,0.0,0.0,0.0,0.0,0.0,0.0,0.0,0.0,0.0,0.0,0.0,0.0,0.0,0.0,0.0,0.0,0.0,0.0,0.0,0.0,0.0,0.0,0.0,0.0,0.0,0.0,0.0,0.0,0.0,0.0,0.0,0.0,0.0,0.0,0.0,0.0,0.0,0.0,0.7425,0.9314,1.1127,1.2184,1.2298,1.1836,1.1293,1.0739,0.0,0.0,0.0,0.0,0.0,0.0,0.0,0.0,0.0,0.0,0.0,0.0,0.0,0.0,0.0,0.0,0.0,0.0,0.0,0.0,0.0,0.0,0.0,0.0,0.0,0.0,0.0,0.0,0.0,0.0,0.0,0.0,0.0,0.0,0.0,0.0,0.0,0.0,0.0,0.0,0.0,0.0,0.0,0.0,0.0,0.0,0.0,0.0,0.0,0.0,0.0,0.0,0.0,0.0,0.0,0.0,0.0,0.0,0.0,0.0,0.0,0.0,0.0,0.0,0.0,0.0,0.0,0.0,0.0,0.0,0.0,0.0,0.0,0.0,0.0,0.0,0.0,0.0,0.0,0.0,0.0,0.0,0.0,0.0,0.0,0.0,0.0,0.0,0.0,0.0,0.0,0.0,0.0,0.0,0.0,0.0,0.0,0.0,0.0,0.0,0.0,0.0,0.0,0.7915,0.9083,1.0541,1.1704,1.2559,1.2931,1.2118,1.1387,1.083,1.0143,0.0,0.0,0.0,0.0,0.0,0.0,0.0,0.0,0.0,0.0,0.0,0.0,0.0,0.0,0.0,0.0,0.0,0.0,0.0,0.0,0.0,0.0,0.0,0.0,0.0,0.0,0.0,0.0,0.0,0.0,0.0,0.0,0.0,0.0,0.0,0.0,0.0,0.0,0.0,0.0,0.0,0.0,0.0,0.0,0.0,0.0,0.0,0.0,0.0,0.0,0.0,0.0,0.0,0.0,0.0,0.0,0.0,0.0,0.0,0.0,0.0,0.0,0.0,0.0,0.0,0.0,0.0,0.0,0.0,0.0,0.0,0.0,0.0,0.0,0.0,0.0,0.0,0.0,0.0,0.0,0.0,0.0,0.0,0.0,0.0,0.0,0.0,0.0,0.0,0.0,0.0,0.0,0.0,0.0,0.0,0.0,0.0,0.0,0.0,0.0,0.0,0.0,0.9075,1.0431,1.1245,1.2061,1.2781,1.3319,1.2158,1.1238,1.083,0.9848,0.0,0.0,0.0,0.0,0.0,0.0,0.0,0.0,0.0,0.0,0.0,0.0,0.0,0.0,0.0,0.0,0.0,0.0,0.0,0.0,0.0,0.0,0.0,0.0,0.0,0.0,0.0,0.0,0.0,0.0,0.0,0.0,0.0,0.0,0.0,0.0,0.0,0.0,0.0,0.0,0.0,0.0,0.0,0.0,0.0,0.0,0.0,0.0,0.0,0.0,0.0,0.0,0.0,0.0,0.0,0.0,0.0,0.0,0.0,0.0,0.0,0.0,0.0,0.0,0.0,0.0,0.0,0.0,0.0,0.0,0.0,0.0,0.0,0.0,0.0,0.0,0.0,0.0,0.0,0.0,0.0,0.0,0.0,0.0,0.0,0.0,0.0,0.0,0.0,0.0,0.0,0.0,0.0,0.0,0.0,0.0,0.0,0.0,0.0,0.0,0.0,0.0,0.9199,1.0653,1.0813,1.2373,1.3299,1.2959,1.1719,1.0922,1.0812,0.9394,0.0,0.0,0.0,0.0,0.0,0.0,0.0,0.0,0.0,0.0,0.0,0.0,0.0,0.0,0.0,0.0,0.0,0.0,0.0,0.0,0.0,0.0,0.0,0.0,0.0,0.0,0.0,0.0,0.0,0.0,0.0,0.0,0.0,0.0,0.0,0.0,0.0,0.0,0.0,0.0,0.0,0.0,0.0,0.0,0.0,0.0,0.0,0.0,0.0,0.0,0.0,0.0,0.0,0.0,0.0,0.0,0.0,0.0,0.0,0.0,0.0,0.0,0.0,0.0,0.0,0.0,0.0,0.0,0.0,0.0,0.0,0.0,0.0,0.0,0.0,0.0,0.0,0.0,0.0,0.0,0.0,0.0,0.0,0.0,0.0,0.0,0.0,0.0,0.0,0.0,0.0,0.0,0.0,0.0,0.0,0.0,0.0,0.0,0.0,0.0,0.0,0.0,0.8616,1.0082,0.0,1.1758,1.2459,1.2462,1.1514,1.0685,1.0213,0.0,0.0,0.0,0.0,0.0,0.0,0.0,0.0,0.0,0.0,0.0,0.0,0.0,0.0,0.0,0.0,0.0,0.0,0.0,0.0,0.0,0.0,0.0,0.0,0.0,0.0,0.0,0.0,0.0,0.0,0.0,0.0,0.0,0.0,0.0,0.0,0.0,0.0,0.0,0.0,0.0,0.0,0.0,0.0,0.0,0.0,0.0,0.0,0.0,0.0,0.0,0.0,0.0,0.0,0.0,0.0,0.0,0.0,0.0,0.0,0.0,0.0,0.0,0.0,0.0,0.0,0.0,0.0,0.0,0.0,0.0,0.0,0.0,0.0,0.0,0.0,0.0,0.0,0.0,0.0,0.0,0.0,0.0,0.0,0.0,0.0,0.0,0.0,0.0,0.0,0.0,0.0,0.0,0.0,0.0,0.0,0.0,0.0,0.0,0.0,0.0,0.0,0.664,0.8165,0.963,0.0,1.1416,1.1914,1.2173,1.1299,1.0435,0.9768,0.0,0.0,0.0,0.0,0.0,0.0,0.0,0.0,0.0,0.0,0.0,0.0,0.0,0.0,0.0,0.0,0.0,0.0,0.0,0.0,0.0,0.0,0.0,0.0,0.0,0.0,0.0,0.0,0.0,0.0,0.0,0.0,0.0,0.0,0.0,0.0,0.0,0.0,0.0,0.0,0.0,0.0,0.0,0.0,0.0,0.0,0.0,0.0,0.0,0.0,0.0,0.0,0.0,0.0,0.0,0.0,0.0,0.0,0.0,0.0,0.0,0.0,0.0,0.0,0.0,0.0,0.0,0.0,0.0,0.0,0.0,0.0,0.0,0.0,0.0,0.0,0.0,0.0,0.0,0.0,0.0,0.0,0.0,0.0,0.0,0.0,0.0,0.0,0.0,0.0,0.0,0.0,0.0,0.0,0.0,0.0,0.0,0.0,0.0,0.0,0.0,0.0,0.65,0.7946,0.9352,1.063,1.1399,1.1895,1.2153,1.1025,1.0092,0.0,0.0,0.0,0.0,0.0,0.0,0.0,0.0,0.0,0.0,0.0,0.0,0.0,0.0,0.0,0.0,0.0,0.0,0.0,0.0,0.0,0.0,0.0,0.0,0.0,0.0,0.0,0.0,0.0,0.0,0.0,0.0,0.0,0.0,0.0,0.0,0.0,0.0,0.0,0.0,0.0,0.0,0.0,0.0,0.0,0.0,0.0,0.0,0.0,0.0,0.0,0.0,0.0,0.0,0.0,0.0,0.0,0.0,0.0,0.0,0.0,0.0,0.0,0.0,0.0,0.0,0.0,0.0,0.0,0.0,0.0,0.0,0.0,0.0,0.0,0.0,0.0,0.0,0.0,0.0,0.0,0.0,0.0,0.0,0.0,0.0,0.0,0.0,0.0,0.0,0.0,0.0,0.0,0.0,0.0,0.0,0.0,0.0,0.0,0.0,0.0,0.0,0.0,0.5857,0.7269,0.8666,0.9886,1.0577,1.0912,1.0877,1.0225,0.9413,0.8523,0.0,0.0,0.0,0.0,0.0,0.0,0.0,0.0,0.0,0.0,0.0,0.0,0.0,0.0,0.0,0.0,0.0,0.0,0.0,0.0,0.0,0.0,0.0,0.0,0.0,0.0,0.0,0.0,0.0,0.0,0.0,0.0,0.0,0.0,0.0,0.0,0.0,0.0,0.0,0.0,0.0,0.0,0.0,0.0,0.0,0.0,0.0,0.0,0.0,0.0,0.0,0.0,0.0,0.0,0.0,0.0,0.0,0.0,0.0,0.0,0.0,0.0,0.0,0.0,0.0,0.0,0.0,0.0,0.0,0.0,0.0,0.0,0.0,0.0,0.0,0.0,0.0,0.0,0.0,0.0,0.0,0.0,0.0,0.0,0.0,0.0,0.0,0.0,0.0,0.0,0.0,0.0,0.0,0.0,0.0,0.0,0.0,0.0,0.0,0.0,0.0,0.0,0.5485,0.6718,0.811,0.9522,0.9885,1.0079,1.0303,0.9727,0.8947,0.7916,0.0,0.0,0.0,0.0,0.0,0.0,0.0,0.0,0.0,0.0,0.0,0.0,0.0,0.0,0.0,0.0,0.0,0.0,0.0,0.0,0.0,0.0,0.0,0.0,0.0,0.0,0.0,0.0,0.0,0.0,0.0,0.0,0.0,0.0,0.0,0.0,0.0,0.0,0.0,0.0,0.0,0.0,0.0,0.0,0.0,0.0,0.0,0.0,0.0,0.0,0.0,0.0,0.0,0.0,0.0,0.0,0.0,0.0,0.0,0.0,0.0,0.0,0.0,0.0,0.0,0.0,0.0,0.0,0.0,0.0,0.0,0.0,0.0,0.0,0.0,0.0,0.0,0.0,0.0,0.0,0.0,0.0,0.0,0.0,0.0,0.0,0.0,0.0,0.0,0.0,0.0,0.0,0.0,0.0,0.0,0.0,0.0,0.0,0.0,0.0,0.0,0.0,0.5274,0.6304,0.7666,0.9334,0.9275,0.934,1.0041,0.9378,0.8527,0.758,0.0,0.0,0.0,0.0,0.0,0.0,0.0,0.0,0.0,0.0,0.0,0.0,0.0,0.0,0.0,0.0,0.0,0.0,0.0,0.0,0.0,0.0,0.0,0.0,0.0,0.0,0.0,0.0,0.0,0.0,0.0,0.0,0.0,0.0,0.0,0.0,0.0,0.0,0.0,0.0,0.0,0.0,0.0,0.0,0.0,0.0,0.0,0.0,0.0,0.0,0.0,0.0,0.0,0.0,0.0,0.0,0.0,0.0,0.0,0.0,0.8023,0.0,0.0,0.0,0.0,0.0,0.0,0.0,0.0,0.0,0.0,0.0,0.0,0.0,0.0,0.0,0.0,0.0,0.0,0.0,0.0,0.0,0.0,0.0,0.0,0.0,0.0,0.0,0.0,0.0,0.0,0.0,0.0,0.0,0.0,0.0,0.0,0.0,0.0,0.0,0.0,0.0,0.4739,0.6061,0.7325,0.8215,0.8616,0.8785,0.8657,0.8565,0.8066,0.7022,0.6484,0.0,0.0,0.0,0.0,0.0,0.0,0.0,0.0,0.0,0.0,0.0,0.0,0.0,0.0,0.0,0.0,0.0,0.0,0.0,0.0,0.0,0.0,0.0,0.0,0.0,0.0,0.0,0.0,0.0,0.0,0.0,0.0,0.0,0.0,0.0,0.0,0.0,0.0,0.0,0.0,0.0,0.0,0.0,0.0,0.0,0.0,0.0,0.0,0.0,0.0,0.0,0.0,0.0,0.0,0.0,0.0,0.0,0.0,0.0,0.0,0.8504,0.0,0.0,0.0,0.0,0.0,0.0,0.0,0.0,0.0,0.0,0.0,0.0,0.0,0.0,0.0,0.0,0.0,0.0,0.0,0.0,0.0,0.0,0.0,0.0,0.0,0.0,0.0,0.0,0.0,0.0,0.0,0.0,0.0,0.0,0.0,0.0,0.0,0.0,0.0,0.0,0.4723,0.5853,0.6877,0.7604,0.7777,0.7782,0.7688,0.7542,0.7164,0.6426,0.6065,0.0,0.0,0.0,0.0,0.0,0.0,0.0,0.0,0.0,0.0,0.0,0.0,0.0,0.0,0.0,0.0,0.0,0.0,0.0,0.0,0.0,0.0,0.0,0.0,0.0,0.0,0.0,0.0,0.0,0.0,0.0,0.0,0.0,0.0,0.0,0.0,0.0,0.0,0.0,0.0,0.0,0.0,0.0,0.0,0.0,0.0,0.0,0.0,0.0,0.0,0.0,0.0,0.0,0.7806,0.8269,0.9122,0.9413,0.9376,0.916,0.9084,0.8775,0.8531,0.9875,0.0,0.0,0.0,0.0,0.0,0.0,0.0,0.0,0.0,0.0,0.0,0.0,0.0,0.0,0.0,0.0,0.0,0.0,0.0,0.0,0.0,0.0,0.0,0.0,0.8739,0.9052,0.8512,0.0,0.0,0.0,0.0,0.0,0.0,0.0,0.0,0.0,0.0,0.0,0.4821,0.5619,0.6408,0.7113,0.69,0.6765,0.6942,0.6686,0.6336,0.5913,0.5602,0.5252,0.0,0.0,0.0,0.0,0.0,0.0,0.0,0.0,0.0,0.0,0.0,0.0,0.0,0.0,0.0,0.0,0.0,0.0,0.0,0.0,0.0,0.0,0.0,0.0,0.0,0.0,0.0,0.0,0.0,0.0,0.0,0.0,0.5382,0.5535,0.0,0.0,0.0,0.0,0.0,0.0,0.0,0.0,0.0,0.0,0.0,0.0,0.0,0.6208,0.7321,0.7472,0.7995,0.9029,0.9202,0.9611,1.0378,1.0378,1.0281,0.994,0.996,0.0,0.8954,0.9508,0.0,0.0,0.0,0.0,0.0,0.0,0.0,0.0,0.0,0.0,0.0,0.0,0.0,0.0,0.0,0.0,0.0,0.0,0.0,0.0,0.0,0.0,1.0176,1.0067,1.0583,1.1013,0.0,0.8883,0.6744,0.5773,0.5509,0.0,0.0,0.0,0.0,0.0,0.0,0.0,0.4363,0.5205,0.592,0.6327,0.6356,0.6379,0.6402,0.6474,0.6336,0.5913,0.5857,0.5489,0.4761,0.4541,0.0,0.0,0.0,0.0,0.0,0.0,0.0,0.0,0.0,0.0,0.0,0.0,0.0,0.0,0.0,0.0,0.0,0.0,0.0,0.0,0.0,0.0,0.0,0.0,0.0,0.0,0.0,0.0,0.0,0.5765,0.6262,0.6319,0.6213,0.5836,0.0,0.0,0.0,0.0,0.0,0.0,0.0,0.0,0.0,0.7457,0.7536,0.8086,0.9203,0.8927,0.9479,1.0734,1.0478,1.076,1.1543,1.1543,1.1376,1.1155,1.1509,1.1406,1.0887,1.0824,1.0806,1.085,0.0,0.0,0.0,0.0,0.9739,0.9562,0.9415,0.9492,0.0,0.9694,0.0,0.0,0.0,0.0,0.0,0.0,0.0,0.0,0.0,0.0,0.981,1.1093,1.1513,1.161,1.161,1.02,0.8565,0.0,0.6435,0.5545,0.4418,0.0,0.0,0.0,0.0,0.4904,0.486,0.5515,0.6048,0.6176,0.6061,0.5907,0.5765,0.5783,0.5765,0.5585,0.5554,0.5395,0.5063,0.4893,0.4575,0.0,0.0,0.0,0.0,0.0,0.0,0.0,0.0,0.0,0.0,0.0,0.0,0.0,0.0,0.0,0.0,0.0,0.0,0.0,0.0,0.0,0.0,0.0,0.0,0.0,0.0,0.0,0.0,0.6528,0.7219,0.7064,0.7257,0.7065,0.0,0.0,0.0,0.0,0.0,0.0,0.709,0.7109,0.7837,0.9364,0.9472,0.999,1.1084,1.0692,1.1015,1.2218,1.1752,1.1923,1.2532,1.2532,1.2331,1.2036,1.2786,1.2975,1.2819,1.2388,1.218,1.2145,1.2731,1.2067,1.0789,1.0583,1.0132,0.9632,0.9438,0.9524,0.9753,0.9535,0.9167,0.8742,0.86,0.0,0.0,0.0,0.0,0.7139,0.8654,0.9003,0.9465,1.137,1.1975,1.2067,1.2076,1.1268,1.0116,0.0,0.7446,0.6251,0.5025,0.0,0.0,0.0,0.0,0.555,0.5424,0.5877,0.6162,0.6088,0.5845,0.5591,0.5336,0.5309,0.5309,0.5309,0.5309,0.5309,0.5309,0.5156,0.5015,0.4808,0.0,0.0,0.0,0.0,0.0,0.0,0.0,0.0,0.0,0.0,0.0,0.0,0.0,0.0,0.0,0.0,0.0,0.0,0.0,0.0,0.0,0.0,0.0,0.0,0.0,0.0,0.0,0.0,0.0,0.7491,0.8563,0.0,0.0,0.0,0.0,0.7994,0.8217,0.8624,0.9104,0.9141,0.9712,1.1015,1.1298,1.188,1.3034,1.3054,1.3061,1.314,1.3081,1.3087,1.316,1.316,1.2839,1.2352,1.3273,1.3816,1.3974,1.3791,1.3953,1.4369,1.383,1.3256,1.2572,1.1665,1.1019,1.0624,1.0613,1.08,1.0969,1.0862,0.9955,0.8898,0.84,0.7751,0.0,0.0,0.7879,0.7841,0.8632,0.9493,1.0333,1.0769,1.1869,1.2824,1.2849,1.1738,1.0496,0.0,0.849,0.7529,0.671,0.0,0.5879,0.5356,0.5242,0.5327,0.5659,0.597,0.6088,0.5765,0.5718,0.5591,0.5336,0.5309,0.5309,0.5309,0.5309,0.5309,0.5309,0.5538,0.5387,0.4803,0.4705,0.0,0.0,0.0,0.0,0.0,0.0,0.0,0.0,0.0,0.0,0.0,0.0,0.0,0.0,0.0,0.0,0.0,0.0,0.0,0.0,0.0,0.0,0.0,0.0,0.0,0.0,0.0,0.0,0.9199,1.0037,0.0,0.9202,0.9213,0.9248,0.9286,0.9232,0.9791,1.114,1.1106,1.1654,1.3017,1.314,1.3333,1.3774,1.3774,1.3774,1.3774,1.3774,1.4173,1.4799,1.4799,1.4946,1.528,1.6279,1.6469,1.6157,1.6702,1.6373,1.5561,1.5585,1.4906,1.3678,1.2598,1.193,1.1373,1.0393,1.0242,1.0393,1.0194,0.9554,0.8885,0.8864,0.8567,0.8255,0.8507,0.8488,0.8606,0.9528,1.0009,1.0439,1.0991,1.1534,1.1797,1.1598,1.0818,1.006,0.9738,0.8641,0.7604,0.6978,0.711,0.6895,0.5748,0.622,0.6576,0.6328,0.6363,0.6393,0.6293,0.5939,0.5671,0.5571,0.5558,0.5558,0.5558,0.5558,0.5645,0.5873,0.5758,0.5705,0.5689,0.5827,0.4687,0.0,0.0,0.0,0.0,0.0,0.0,0.0,0.0,0.0,0.0,0.0,0.0,0.0,0.0,0.0,0.0,0.0,0.0,0.0,0.0,0.0,0.0,0.0,0.0,0.0,0.0,1.076,1.0979,1.187,1.2163,1.1457,1.1385,1.142,1.1353,1.123,1.178,1.3165,1.304,1.3323,1.4222,1.4229,1.4182,1.4088,1.4088,1.4088,1.4088,1.4496,1.497,1.5696,1.6108,1.6484,1.6921,1.7749,1.7794,1.7252,1.8199,1.7881,1.6738,1.6894,1.5942,1.4364,1.3312,1.2373,1.1486,1.0383,1.004,1.0067,0.978,0.9184,0.8587,0.8677,0.8406,0.8068,0.8153,0.8277,0.8592,0.9296,0.9707,1.0068,1.0637,1.0993,1.1094,1.0869,1.0407,1.0001,0.9836,0.8882,0.7992,0.7665,0.7859,0.7571,0.616,0.6884,0.7302,0.6367,0.6643,0.6807,0.6613,0.6239,0.5972,0.5872,0.5133,0.4989,0.5823,0.5091,0.5136,0.6146,0.5345,0.498,0.5137,0.6196,0.5151,0.1903,0.0,0.0,0.0,0.0,0.0,0.0,0.0,0.0,0.0,0.0,0.0,0.0,0.0,0.0,0.0,0.0,0.0,0.0,0.0,0.0,0.0,0.0,0.0,0.726,0.9799,1.2078,1.2848,1.4029,1.4734,1.4419,1.4674,1.4591,1.4166,1.4382,1.4669,1.4977,1.4977,1.4836,1.4556,1.4536,1.4396,1.4115,1.4108,1.4102,1.4186,1.522,1.5779,1.5861,1.6838,1.7208,1.6999,1.7561,1.7559,1.7351,1.8209,1.8389,1.7969,1.7578,1.6361,1.4663,1.3947,1.2523,1.1001,1.0725,1.0367,1.0074,0.98,0.9042,0.8131,0.7775,0.7203,0.6643,0.6849,0.7252,0.7722,0.7856,0.849,0.922,0.9604,1.026,1.0758,1.0669,1.0527,1.0249,0.9821,0.9211,0.8752,0.8804,0.8571,0.7955,0.6681,0.7297,0.0,0.5774,0.6711,0.7235,0.658,0.6475,0.6363,0.6081,0.3948,0.3609,0.6024,0.3987,0.3766,0.6112,0.441,0.3337,0.3171,0.5593,0.5759,0.3477,0.0,0.0,0.0,0.0,0.0,0.0,0.0,0.0,0.0,0.0,0.0,0.0,0.0,0.0,0.0,0.0,0.0,0.0,0.0,0.0,0.0,0.0,0.9035,0.8885,1.1283,1.3313,1.3974,1.4606,1.4947,1.4864,1.4933,1.4973,1.501,1.4917,1.5064,1.5565,1.519,1.5023,1.515,1.495,1.4803,1.4723,1.4509,1.4812,1.5553,1.5649,1.6511,1.8052,1.8022,1.8614,1.954,1.9069,1.8845,1.8711,1.8618,1.8389,1.8027,1.8223,1.7629,1.6552,1.5413,1.3523,1.1459,1.0835,1.0367,1.0012,0.9587,0.8932,0.8218,0.7741,0.7191,0.6829,0.6889,0.692,0.6965,0.7253,0.7486,0.7734,0.7937,0.8052,0.8096,0.7987,0.7821,0.7788,0.8203,0.8143,0.8156,0.8699,0.8744,0.8573,0.8189,0.7989,0.0,0.732,0.7186,0.641,0.4561,0.418,0.3837,0.3341,0.2694,0.3134,0.5127,0.4983,0.5268,0.6167,0.5691,0.5275,0.5004,0.4373,0.3605,0.0,0.0,0.0,0.0,0.0,0.0,0.0,0.0,0.0,0.0,0.0,0.0,0.0,0.0,0.0,0.0,0.0,0.0,0.0,0.0,0.0,0.0,0.8854,1.0343,1.1055,1.2914,1.4534,1.5511,1.5728,1.5896,1.6127,1.5924,1.5791,1.5558,1.5424,1.5471,1.5812,1.5504,1.5351,1.5398,1.5237,1.5084,1.4963,1.4669,1.485,1.5433,1.6103,1.7009,1.8292,1.8386,1.8976,1.9875,1.8563,1.798,1.7953,1.7551,1.7158,0.0,0.0,0.0,0.0,0.0,1.2683,1.1404,1.0785,1.0253,0.9681,0.9211,0.8393,0.7497,0.6993,0.6478,0.6078,0.6155,0.6218,0.6402,0.666,0.6886,0.7143,0.7205,0.714,0.7082,0.6929,0.6809,0.6803,0.7144,0.7235,0.0,0.783,0.8374,0.8586,0.8031,0.8044,0.7766,0.6852,0.6811,0.6171,0.4449,0.4093,0.3867,0.3526,0.26,0.0,0.0,0.0,0.4199,0.4441,0.4396,0.0,0.0,0.0,0.2887,0.3581,0.0,0.0,0.0,-0.0317,-0.2089,0.0,0.0,0.0,0.0,0.0,0.0,0.0,0.0,0.0,0.0,0.0,0.0,0.0,0.0,0.0,0.0,0.9942,1.1646,1.3441,1.4521,1.5597,1.6919,1.6948,1.7073,1.7475,1.7132,1.6529,1.5805,1.5832,1.5832,1.5832,0.0,0.0,0.0,0.0,1.5317,1.5064,1.477,1.4704,1.4784,1.6476,1.727,1.7383,1.8057,1.8536,1.8674,1.6936,1.6244,1.6253,1.5782,1.5412,1.5367,1.6964,1.6442,1.44,1.2026,1.1154,1.108,1.0631,0.0,0.0,0.8725,0.7596,0.6387,0.6043,0.5437,0.4969,0.5094,0.5457,0.5908,0.5996,0.6472,0.6892,0.6851,0.6842,0.684,0.6731,0.6673,0.6653,0.6554,0.6514,0.6505,0.6593,0.7777,0.8256,0.6988,0.765,0.7554,0.547,0.5971,0.6068,0.5023,0.0,0.0,0.4797,0.2908,0.2688,0.4966,0.3209,0.2215,0.2428,0.232,0.236,0.2513,0.246,0.3271,0.5016,0.5084,0.4862,0.4132,-0.0257,-0.2852,0.0,0.0,0.0,0.0,0.0,0.0,0.0,0.0,0.0,0.0,0.0,0.0,0.0,0.0,0.0,1.0177,1.1117,1.2378,1.5313,1.5717,1.5772,1.6007,1.6014,1.6035,1.6197,1.6048,1.5947,1.5825,1.5832,1.5832,1.5832,1.5832,1.5805,1.5745,1.5745,1.5718,1.5665,1.5371,1.5665,1.6533,0.0,0.0,1.7688,1.7481,1.7438,1.7535,1.6472,1.6239,1.6538,1.5889,1.5412,1.5201,1.5187,1.489,1.4364,1.2893,1.2174,1.1797,1.0384,0.964,0.9069,0.7579,0.6923,0.6534,0.5734,0.5314,0.0,0.5125,0.5095,0.5053,0.5135,0.5312,0.5506,0.5498,0.5428,0.5362,0.5454,0.5376,0.5418,0.587,0.5945,0.6066,0.651,0.7343,0.761,0.6745,0.7136,0.716,0.6126,0.5836,0.4908,0.2876,0.2565,0.229,0.1798,0.1346,0.1886,0.3799,0.3928,0.4229,0.5035,0.511,0.4892,0.4386,0.482,0.4821,0.4362,0.4267,0.3687,0.2676,0.292,0.2925,0.0,0.0,0.0,0.0,0.0,0.0,0.0,0.0,0.0,0.0,0.0,0.5577,0.0,0.0,0.7548,1.0332,1.0833,1.1628,1.3985,1.4138,1.4419,1.5648,1.5832,1.5832,1.5832,1.5832,1.5832,1.5832,1.5832,1.5832,1.5832,1.5832,1.5832,1.5832,1.5832,1.5832,1.5832,1.5538,1.5661,1.619,1.6484,1.6768,1.7188,1.668,1.6531,1.6656,1.5328,1.4902,1.5093,1.461,1.4312,1.4156,1.3911,1.3935,1.3925,1.2542,1.1744,1.1139,1.0068,0.9031,0.791,0.7012,0.6396,0.5947,0.5557,0.5311,0.5254,0.5254,0.5148,0.49,0.4046,0.4507,0.525,0.5247,0.5209,0.5159,0.5222,0.5167,0.5192,0.5325,0.5225,0.5229,0.5519,0.5853,0.6193,0.6549,0.6712,0.6503,0.5836,0.5426,0.4634,0.3169,0.2873,0.2667,0.2394,0.2305,0.2623,0.3563,0.3997,0.4348,0.4705,0.4844,0.4432,0.3346,0.436,0.4337,0.3217,0.389,0.3929,0.3363,0.4116,0.4518,0.0,0.0,0.0,0.0,0.0,0.0,0.0,0.0,0.5741,0.6012,0.6146,0.6305,0.6913,0.7214,0.796,0.9953,1.0238,1.0791,1.2226,1.2374,1.295,1.4865,1.5325,1.5599,1.5737,1.5832,1.5832,1.5832,1.5832,1.5832,1.5832,1.5832,1.5832,1.5832,1.5832,1.5832,1.5832,1.5598,1.5478,1.5478,1.6119,1.6402,1.6322,1.5826,1.5672,1.5733,1.4282,1.3694,1.3539,1.3139,1.2928,1.2876,1.2638,1.2725,1.2815,1.1721,1.0855,1.0052,0.9466,0.826,0.6898,0.6613,0.6041,0.5454,0.5454,0.546,0.5325,0.495,0.5158,0.4953,0.3155,0.3489,0.4439,0.4779,0.4846,0.4885,0.4851,0.489,0.4785,0.4516,0.43,0.4133,0.4065,0.4074,0.4521,0.5968,0.611,0.584,0.5226,0.4919,0.4561,0.4113,0.3927,0.3836,0.3839,0.3459,0.3234,0.3266,0.3445,0.3512,0.3351,0.37,0.3273,0.1929,0.2743,0.2726,0.1783,0.2406,0.2916,0.3198,0.3205,0.3375,0.4143,0.4578,0.0,0.5011,0.5281,0.584,0.0,0.0,0.6719,0.7132,0.7234,0.7346,0.7675,0.7764,0.851,1.046,1.0619,1.0889,1.2551,1.2501,1.2379,1.2558,1.3627,1.4728,1.5662,1.5832,1.5832,1.5832,1.5832,1.5832,1.5832,1.5832,1.5832,1.5832,1.5832,1.5832,1.5832,1.5798,1.5785,1.5778,1.5833,1.5778,1.5514,1.5183,1.4906,1.4669,1.426,1.3888,1.3552,1.2505,1.1939,1.1564,1.0514,1.0079,1.0237,1.0927,1.0394,0.9135,0.8088,0.747,0.6974,0.6179,0.5762,0.5636,0.5636,0.5568,0.5039,0.343,0.4186,0.5011,0.3171,0.1673,0.1004,0.2611,0.3013,0.3011,0.3004,0.3002,0.2977,0.2961,0.2945,0.2791,0.2519,0.2444,0.2992,0.4511,0.521,0.535,0.4656,0.4417,0.4275,0.417,0.4033,0.3949,0.3906,0.2749,0.1977,0.1991,0.2044,0.2123,0.2367,0.3184,0.3184,0.2163,0.1057,0.039,0.0223,-0.2293,-0.28,-0.1448,-0.1449,-0.0726,0.4288,0.0,0.0,0.0,0.6173,0.6616,0.7024,0.7145,0.7299,0.757,0.7699,0.7851,0.8147,0.8255,0.8623,0.0,0.9563,0.969,1.0285,1.0249,1.0376,1.0988,1.1463,1.2277,1.3426,1.4956,1.5534,1.4752,1.5343,1.5832,1.5832,1.5832,1.5832,1.5832,1.5832,1.5832,1.5832,1.5832,1.5832,1.5832,1.5832,1.5765,1.5638,1.5351,1.4682,1.3582,1.2744,1.228,1.2096,1.1652,1.1337,1.1043,1.053,0.9857,0.9279,0.9956,0.9481,0.8349,0.7746,0.7008,0.6353,0.5974,0.5745,0.5689,0.5689,0.5551,0.5255,0.4467,0.3299,0.2073,0.1341,0.0563,0.021,0.0967,0.1114,0.1121,0.1104,0.1114,0.1122,0.111,0.1095,0.1343,0.209,0.2175,0.2742,0.4252,0.4728,0.4834,0.4552,0.4428,0.4362,0.4389,0.432,0.4141,0.3755,0.32,0.2256,0.085,0.0748,0.0815,0.0894,0.1272,0.1326,0.095,-0.1399,-0.2635,-0.2631,-0.3875,-0.4157,-0.3527,-0.3527,-0.3193,0.3849,0.0,0.0,0.475,0.5936,0.7034,0.7121,0.7449,0.7756,0.7855,0.7963,0.8116,0.8377,0.8425,0.8509,0.8771,0.872,0.8648,0.8648,0.8554,0.8838,0.9587,0.9965,1.0388,1.0797,1.3494,1.4854,1.3974,1.5045,1.5832,1.5832,1.5439,1.5439,1.5825,1.5439,1.5439,1.5832,1.5832,1.5635,1.5242,1.5242,1.5051,1.4752,1.4472,1.3632,1.2461,1.1543,1.1084,1.1084,1.0721,1.0505,1.0319,0.9966,0.9224,0.8408,0.8678,0.8329,0.7676,0.7386,0.6751,0.6126,0.6019,0.5924,0.5855,0.5894,0.4975,0.3909,0.3928,0.1989,0.0,0.0,0.0,0.0,0.0,0.0,0.0,0.0,0.0,-0.0364,-0.1531,-0.1724,-0.1199,0.0483,0.0743,0.1125,0.2204,0.2438,0.2849,0.3765,0.3886,0.3875,0.386,0.4237,0.4307,0.3884,0.3103,0.184,0.0108,0.0,0.0,0.0,0.0,-0.0392,-0.1233,-0.3373,-0.4511,-0.4504,-0.4497,-0.449,-0.4487,-0.4487,-0.4494,0.0,0.0,0.3787,0.1605,0.3927,0.691,0.7564,0.7845,0.7955,0.8035,0.8035,0.8089,0.8248,0.8279,0.8326,0.8472,0.8492,0.8489,0.8489,0.8486,0.8428,0.8388,0.9466,0.9694,0.0,1.1643,1.3974,1.3878,1.5045,1.5832,1.5832,1.4657,1.4561,1.573,1.4561,1.4561,1.5825,1.5832,1.5146,1.3968,1.3968,1.3295,1.2037,1.1702,1.1475,1.1176,1.1084,1.1084,1.0992,0.9802,0.9234,0.9066,0.7909,0.7365,0.7139,0.6966,0.687,0.6895,0.6672,0.6625,0.6542,0.6379,0.6303,0.629,0.6244,0.3412,0.0161,0.0153,0.0076,0.0,0.0,0.0,0.0,0.0,0.0,0.0,0.0,0.0,-0.1238,-0.528,-0.6092,-0.5412,-0.3338,-0.2969,-0.2894,-0.2892,-0.2625,-0.1305,0.1854,0.2269,0.2254,0.2293,0.3588,0.4504,0.4501,0.179,0.0056,0.0,0.0,0.0,0.0,0.0,-0.1401,-0.4284,-0.4455,-0.4504,-0.448,-0.448,-0.4473,-0.4519,-0.4519,-0.4525,0.2738,0.0,0.249,0.0716,0.1304,0.2797,0.4751,0.6722,0.7952,0.7835,0.7143,0.6579,0.6623,0.6783,0.6982,0.7003,0.7869,0.8448,0.8357,0.8421,0.8391,0.8147,0.851,0.0,0.0,0.0,0.0,1.1356,1.2522,1.3204,1.3204,1.2818,1.2818,1.3204,1.2818,1.2818,1.3204,1.3204,1.3011,1.2528,1.2528,1.2334,1.1848,1.09,1.0444,1.0285,0.9421,0.9038,0.9042,0.8578,0.8328,0.8084,0.7736,0.74,0.7084,0.7002,0.6025,0.4938,0.6183,0.5619,0.4277,0.4193,0.5134,0.6331,0.6287,0.3331,0.0,0.0,0.0,0.0,0.0,0.0,0.0,0.0,-0.2384,-0.4731,-0.4737,-0.3493,-0.2711,-0.3929,-0.5351,-0.6046,-0.5333,-0.5243,-0.5692,-0.7005,-0.4651,-0.2294,-0.1174,-0.1033,-0.0954,-0.075,-0.023,0.0057,0.0056,-0.0892,-0.1452,-0.1452,-0.1452,-0.1452,-0.1452,-0.1452,-0.1955,-0.2965,-0.3981,-0.4487,-0.448,-0.4473,-0.4522,-0.4519,-0.4948,-0.5285,0.2635,0.2349,0.183,0.0379,0.0,0.0496,0.2203,0.392,0.5388,0.637,0.6464,0.625,0.5649,0.5455,0.5435,0.5403,0.6571,0.747,0.7688,0.7579,0.7709,0.8036,0.8085,0.7959,0.0,0.0,0.0,1.0002,1.117,1.1945,1.1945,1.1458,1.1458,1.1848,1.1463,1.1458,1.1945,1.1945,1.1653,1.1268,1.0779,1.0485,1.0485,0.9702,0.932,0.9229,0.8347,0.7955,0.7959,0.7972,0.6822,0.4975,0.489,0.4699,0.4379,0.4414,0.3513,0.2681,0.5763,0.4754,0.1732,0.0,0.0949,0.2741,0.2722,0.0849,-0.1273,-0.1263,-0.126,-0.126,-0.126,-0.126,-0.1256,-0.132,-0.366,-0.6053,-0.6894,-0.6585,-0.5927,-0.5417,-0.6802,-0.8077,-0.7712,-0.7618,-0.793,-0.9212,-0.6883,-0.4895,-0.4655,-0.4575,-0.4227,-0.3287,-0.3096,-0.3,-0.3026,-0.3019,-0.3019,-0.3019,-0.3019,-0.3019,-0.3019,-0.3019,-0.3016,-0.3014,-0.3968,-0.4477,-0.4473,-0.4522,-0.4519,-0.4519,-0.5164,-0.5605,0.2075,0.1985,0.1792,0.0399,0.0,0.0,0.0,0.0,0.0788,0.3618,0.5786,0.6761,0.0,0.0,0.3759,0.3937,0.4765,0.5641,0.6404,0.6195,0.6487,0.0,0.0,0.0,0.0,0.0,0.0,0.9604,0.0,1.1658,1.1658,1.0583,1.0489,1.1658,1.0485,1.0485,1.1653,1.1658,1.1072,0.9903,0.863,0.8041,0.8041,0.8041,0.7952,0.7972,0.7666,0.7569,0.7575,0.7575,0.4565,-0.0,-0.0291,-0.0671,-0.0942,-0.0962,-0.0862,-0.0188,0.4475,0.3235,-0.1196,-0.5847,-0.5852,-0.4011,-0.4025,-0.4002,-0.3984,-0.3986,-0.3962,-0.3962,-0.3962,-0.3962,-0.396,-0.3956,-0.404,-0.4634,-0.6857,-0.9063,-1.0321,-0.9412,-1.0468,-1.1184,-1.0374,-0.993,-0.971,-0.964,-0.9406,-0.8943,-0.8108,-0.8037,-0.7272,-0.5231,-0.4782,-0.4616,-0.456,-0.4549,-0.4549,-0.4494,-0.4494,-0.4494,-0.4494,-0.4549,-0.4543,-0.4532,-0.4595,-0.4646,-0.4625,-0.4636,-0.4632,-0.4625,-0.5273,-0.5592,0.2307,0.144,0.0496,0.0101,0.0,0.0,0.0,0.0,-0.0093,-0.0355,0.1015,0.2162,0.0,0.0,0.0,0.246,0.3619,0.0,0.5153,0.683,0.0,0.537,0.0,0.5002,0.5037,0.5029,0.0,0.0,0.7637,0.8962,0.8962,0.866,0.8652,0.895,0.8638,0.8627,0.9019,0.9038,0.8851,0.8457,0.8172,0.7975,0.7975,0.7975,0.7979,0.7779,0.3807,0.2,0.2001,0.2001,0.1186,-0.0388,-0.4394,-0.7158,-0.8941,-0.8989,-0.8926,-0.8748,-0.754,-0.6526,-0.6374,-0.9397,-1.0016,-0.9479,-0.9522,-0.9509,-0.95,-0.9453,-0.953,-0.953,-0.953,-0.953,-0.94,-0.8895,-0.9499,-1.0197,-1.0509,-1.0615,-1.0524,-1.0168,-1.0336,-1.0471,-1.0207,-1.057,-1.0778,-1.0793,-1.1003,-1.049,-0.855,-0.8302,-0.7891,-0.679,-0.6606,-0.6236,-0.5305,-0.5226,-0.5011,-0.4525,-0.4525,-0.4525,-0.4525,-0.4959,-0.5226,-0.5222,-0.6025,-0.6309,-0.6046,-0.6309,-0.63,-0.6095,-0.6799,-0.7122,0.1437,0.0691,0.0,0.0,0.0,-0.0297,-0.1637,-0.2148,-0.214,-0.1145,-0.1325,0.0,0.0,0.0,0.0,0.0,0.0,0.0,0.2953,0.4497,0.5763,0.0,0.3828,0.0,0.3882,0.3985,0.2396,0.0,0.3243,0.6247,0.6247,0.6242,0.6751,0.7979,0.7969,0.7962,0.7962,0.7975,0.7363,0.6239,0.6245,0.5634,0.4516,0.4516,0.4516,0.4314,0.0,-0.13,-0.3607,-0.4702,-0.4963,-0.501,-0.88,-1.0936,-1.1898,-1.1898,-1.221,-1.2819,-1.3394,-1.2963,-1.2221,-1.2985,-1.3135,-1.2977,-1.2461,-1.229,-1.2204,-1.1676,-1.1497,-1.1497,-1.1497,-1.1497,-1.137,-1.1051,-1.1504,-1.1945,-1.1715,-1.1739,-1.1811,-1.2169,-1.2181,-1.2052,-1.1934,-1.2116,-1.222,-1.2101,-1.2168,-1.188,-1.0717,-0.997,-0.9231,-0.8382,-0.8111,-0.7591,-0.6497,-0.6272,-0.6059,-0.5673,-0.5491,-0.5445,-0.5445,-0.5764,-0.5982,-0.5982,-0.6593,-0.6769,-0.6588,-0.6921,-0.6916,-0.6642,-0.7514,-0.7835,0.0196,0.0,0.0,0.0,0.0,-0.0774,-0.3542,-0.469,-0.425,-0.0668,0.0,-0.3051,-0.0687,-0.0739,-0.0966,-0.036,0.0,0.1323,-0.0282,0.0494,0.2871,0.7166,0.3103,0.0642,0.2142,0.2249,-0.0641,-0.7821,-0.175,0.2623,0.3426,0.3518,0.4724,0.7372,0.7475,0.7475,0.7475,0.7788,0.6862,0.4524,0.3111,0.1202,-0.11,-0.11,-0.11,-0.11,-0.1298,-0.4005,-0.8489,-1.0911,-1.1584,-1.1128,-1.271,-1.3061,-1.2598,-1.2598,-1.3437,-1.4735,-1.5806,-1.7086,-1.7957,-1.6472,-1.5854,-1.5485,-1.4456,-1.4115,-1.3941,-1.2888,-1.2534,-1.2534,-1.2362,-1.2448,-1.2528,-1.2318,-1.2199,-1.2263,-1.2439,-1.3091,-1.3866,-1.4447,-1.4543,-1.4442,-1.4352,-1.411,-1.379,-1.3684,-1.3424,-1.3294,-1.3603,-1.214,-1.0778,-0.9982,-0.9456,-0.8821,-0.7784,-0.7433,-0.7245,-0.7136,-0.689,-0.6728,-0.6728,-0.6838,-0.6838,-0.6838,-0.6978,-0.7033,-0.7002,-0.7351,-0.7346,-0.7007,-0.7946,-0.8269,0.0,0.0,0.0,0.0,0.0,-0.0569,-0.2917,-0.3958,0.0,0.0,-0.1601,-0.1252,-0.1854,-0.2287,-0.2056,-0.0592,0.0,0.0,0.0,0.0,0.0617,0.0,0.0,0.0,0.0,0.0,0.0,0.0,0.0,-0.4495,0.0412,0.071,0.1908,0.4622,0.4722,0.4722,0.4722,0.6877,0.7811,0.7193,-0.1709,-0.6165,-0.6573,-0.6659,-0.6651,-0.6651,-0.8131,0.0,-1.0263,-1.1409,-1.2431,-1.3239,-1.3628,-1.4836,-1.65,-1.65,-1.7372,-1.8533,-1.8732,-2.0236,-2.1715,-1.9496,-1.8803,-1.8715,-1.8451,-1.8451,-1.836,-1.8177,-1.8086,-1.7911,-1.6836,-1.7375,-1.7834,-1.6483,-1.6045,-1.6118,-1.7162,-1.674,-1.5963,-1.5068,-1.4689,-1.4749,-1.5611,-1.5367,-1.5275,-1.615,-1.5667,-1.5283,-1.5381,-1.3278,-1.1778,-1.1869,-1.096,-0.9912,-0.8827,-0.851,-0.8072,-0.748,-0.7384,-0.7364,-0.7364,-0.7946,-0.8242,-0.8242,-0.9048,-0.9408,-0.9176,-0.9459,-0.9453,-0.9182,-0.9349,-0.9407,-0.2102,-0.3126,-0.3828,-0.2289,-0.0957,-0.0728,-0.3454,0.0,0.0,0.0,-0.2069,-0.1847,-0.2022,0.0,0.0,0.0,0.0,0.0,0.0,0.0,0.0,0.0,0.0,0.0,0.0,0.0,0.0,0.0,0.0,-0.7009,-0.262,-0.2162,-0.0815,0.1834,0.1918,0.1909,0.1913,0.3229,0.242,-0.0402,-0.5557,-0.8514,-0.9394,-0.9383,-0.9709,-1.0362,-1.1707,0.0,-1.2956,-1.4546,-1.5517,-1.6164,-1.6855,-1.7714,-1.8593,-1.9167,-2.0185,-2.1407,-2.1979,-2.3295,-2.4639,-2.3507,-2.2737,-2.2054,-2.0836,-2.0486,-2.0305,-1.967,-1.9497,-1.9405,-1.8772,-1.9047,-1.9265,-1.8541,-1.8285,-1.8174,-1.81,-1.765,-1.6889,-1.5484,-1.559,-1.5986,-1.607,-1.643,-1.6742,-1.6909,-1.6629,-1.6422,-1.6491,-1.5033,-1.3853,-1.3648,-1.2713,-1.1959,-1.1413,-1.0965,-1.0331,-0.9557,-0.9363,-0.9059,-0.8669,-0.9414,-0.9812,-0.9812,-1.0661,-1.1073,-1.0978,-1.1254,-1.1246,-1.0922,-1.1161,-1.1145,-0.3477,-0.5534,-0.7372,-0.4925,-0.2895,-0.21,-0.434,-0.3575,0.0,0.0,-0.2621,-0.2777,-0.2255,0.0,0.0,0.0,0.0,0.0,0.0,0.0,0.0,0.0,0.0,0.0,0.0,0.0,0.0,0.0,0.0,0.0,-0.553,-0.5116,-0.3927,-0.1759,-0.1117,-0.1107,-0.1716,-0.111,-0.3226,-0.7999,-0.841,-0.9693,-1.1639,-1.1461,-1.221,-1.3675,-1.4846,0.0,0.0,-1.8719,-1.9678,-2.0044,-2.0888,-2.1181,-2.1257,-2.1989,-2.293,-2.3841,-2.4735,-2.5793,-2.6801,-2.6554,-2.588,-2.4777,-2.2688,-2.2082,-2.1817,-2.0576,-2.0314,-2.0223,-1.9943,-2.0034,-2.0198,-1.985,-2.0065,-1.9844,-1.8317,-1.8272,-1.8057,-1.6529,-1.7039,-1.7501,-1.6978,-1.7752,-1.815,-1.7787,-1.7605,-1.7576,-1.7734,-1.7051,-1.6292,-1.561,-1.4529,-1.3832,-1.3832,-1.3239,-1.2517,-1.1842,-1.1526,-1.1068,-1.0448,-1.101,-1.1349,-1.1349,-1.1979,-1.2272,-1.2272,-1.2564,-1.2555,-1.228,-1.2572,-1.2555,-0.1658,-0.4084,-0.7785,-0.6941,-0.6623,-0.6135,-0.4973,0.0,0.0,-0.3232,-0.2936,-0.2813,-0.3193,-0.3418,0.0,0.0,0.0,-0.6829,0.0,0.0,0.0,0.0,0.0,0.0,0.0,0.0,0.0,0.0,0.0,0.0,-0.8564,-0.8193,-0.7804,-0.7294,-0.4881,-0.4832,-0.7202,-0.4834,-0.5114,-0.7915,-0.9549,-1.2031,-1.5172,-1.4388,-1.5319,-1.7695,-1.9359,0.0,0.0,-2.3328,-2.4596,-2.5502,-2.5197,-2.5679,-2.6546,-2.619,-2.6119,-2.6213,-2.6295,-2.7023,-2.7763,-2.6801,-2.64,-2.6141,-2.4861,-2.4522,-2.4276,-2.3105,-2.2775,-2.2501,-2.1391,-2.1943,-2.2406,-2.1122,-2.177,-2.2036,-1.9529,-1.9975,-2.0558,-1.9356,-1.9003,-1.9092,-1.9536,-1.952,-1.9642,-2.0167,-1.9927,-1.9647,-1.9655,-1.9232,-1.8817,-1.8273,-1.6067,-1.4587,-1.4587,-1.3924,-1.3501,-1.3375,-1.3046,-1.2789,-1.2728,-1.2789,-1.2789,-1.2789,-1.291,-1.291,-1.291,-1.2943,-1.2943,-1.291,-1.2943,-1.2943,-0.5052,-0.6208,-0.763,-0.6217,-0.6181,-0.6219,-0.5306,0.0,-0.3224,-0.3495,-0.3486,-0.3627,-0.407,-0.4501,-0.5102,0.0,0.0,0.0,0.0,0.0,0.0,0.0,0.0,0.0,0.0,0.0,0.0,0.0,0.0,0.0,-1.1292,-0.9541,-0.8387,-0.821,-0.5992,-0.6639,-1.0337,-0.9283,-1.0027,-1.2554,-1.3283,-1.4796,-1.68,-1.7152,-1.8551,-2.0823,-2.27,0.0,0.0,-2.6078,-2.6855,-2.7195,-2.6713,-2.6816,-2.7313,-2.7393,-2.7441,-2.7533,-2.8211,-2.8791,-2.9028,-2.8621,-2.8462,-2.8131,-2.6378,-2.5378,-2.4713,-2.4211,-2.3637,-2.296,-2.2492,-2.2765,-2.2911,-2.2379,-2.265,-2.2639,-2.0838,-2.0918,-2.0935,-1.9761,-2.0005,-2.0404,-2.0458,-2.0968,-2.1244,-2.0985,-2.082,-2.0518,-1.998,-1.9766,-1.9502,-1.9072,-1.7609,-1.66,-1.6361,-1.5818,-1.5233,-1.4769,-1.4346,-1.3889,-1.3385,-1.3605,-1.3726,-1.3726,-1.4213,-1.4451,-1.4451,-1.4451,-1.4451,-1.4451,-1.4451,-1.4451,-0.7198,-0.7681,-0.7555,-0.5926,-0.5365,-0.5368,0.0,0.0,-0.3425,-0.3952,-0.4188,-0.4501,-0.4999,-0.5742,-0.6598,0.0,0.0,-0.9312,0.0,0.0,0.0,0.0,0.0,0.0,0.0,0.0,0.0,0.0,0.0,0.0,-1.2836,-1.0901,-0.9596,-0.9082,-0.8029,-0.9264,-1.2997,-1.2665,-1.3682,-1.6238,-1.6581,-1.7524,-1.915,-2.0436,-2.2292,-2.4676,-2.6628,0.0,0.0,-2.9922,-3.0338,-3.0266,-2.9581,-2.9328,-2.9419,-2.9386,-2.9449,-2.9539,-3.038,-3.0633,-3.057,-3.0279,-3.0216,-2.9883,-2.8028,-2.6707,-2.5703,-2.5378,-2.4467,-2.3637,-2.3637,-2.3387,-2.3135,-2.3135,-2.3135,-2.2862,-2.2031,-2.1845,-2.1578,-2.0764,-2.1212,-2.1715,-2.1318,-2.1969,-2.2217,-2.1367,-2.123,-2.0967,-2.0205,-2.0107,-1.9941,-1.9512,-1.8936,-1.835,-1.7803,-1.7421,-1.7012,-1.6462,-1.6008,-1.5467,-1.4772,-1.4763,-1.4809,-1.4855,-1.5225,-1.5526,-1.569,-1.5526,-1.541,-1.541,-1.541,-1.5284,-0.6788,-0.7523,-0.7709,-0.6567,-0.4965,-0.3871,0.0,0.0,-0.4304,-0.4768,-0.5003,-0.5269,-0.5869,-0.7074,-0.8349,-0.9463,-1.1314,0.0,0.0,0.0,0.0,0.0,0.0,0.0,0.0,0.0,0.0,0.0,0.0,0.0,-1.3041,-1.2921,-1.2294,-1.0952,-1.1859,-1.3385,-1.5665,-1.4435,-1.4999,-1.752,-1.8624,-2.0527,-2.2988,-2.4584,-2.6896,-2.9785,0.0,0.0,0.0,-3.5721,-3.6091,-3.5981,-3.4782,-3.4313,-3.4162,-3.2963,-3.2522,-3.2522,-3.2593,-3.2593,-3.2393,-3.1462,-3.118,-3.1044,-3.0062,-2.8937,-2.7844,-2.6801,-2.563,-2.4787,-2.4787,-2.3963,-2.3135,-2.3135,-2.3135,-2.3135,-2.3047,-2.3047,-2.3047,-2.3057,-2.3047,-2.2911,-2.2588,-2.251,-2.2217,-2.1367,-2.123,-2.1074,-2.0615,-2.0557,-2.0391,-1.9951,-1.9902,-1.9551,-1.8691,-1.8604,-1.8596,-1.8596,-1.8176,-1.7775,-1.7408,-1.6517,-1.6208,-1.6503,-1.5758,-1.5748,-1.6492,-1.5748,-1.541,-1.541,-1.541,-1.4991,-0.465,-0.565,-0.6548,-0.56,-0.4996,-0.4616,-0.4782,0.0,-0.47,-0.5474,-0.6249,-0.7095,-0.818,-0.9313,-1.0498,-1.1878,-1.3058,0.0,0.0,0.0,0.0,0.0,0.0,0.0,0.0,0.0,0.0,0.0,0.0,0.0,-1.813,-1.8325,-1.6914,-1.3629,-1.3836,-1.5307,-1.7814,-1.7829,-1.9152,-2.1645,-2.2533,-2.373,-2.543,-2.7801,-2.9549,0.0,0.0,0.0,0.0,-3.5008,-3.4969,-3.4844,-3.3643,-3.3422,-3.3611,-3.2897,-3.2593,-3.2593,-3.2593,-3.2593,-3.2522,-3.2249,-3.2177,-3.2105,-3.1829,-2.9999,-2.7855,-2.6801,-2.6224,-2.5975,-2.5975,-2.5724,-2.5231,-2.4467,-2.4882,-2.4978,-2.3474,-2.3714,-2.4049,-2.3212,-2.3135,-2.3096,-2.2959,-2.2939,-2.2656,-2.1807,-2.168,-2.1406,-2.0664,-2.0566,-2.0508,-2.0371,-2.0672,-2.0689,-2.0174,-1.9702,-1.9807,-2.0468,-1.9761,-1.9232,-1.9138,-1.8589,-1.8126,-1.7887,-1.7647,-1.7416,-1.7246,-1.6539,-1.5864,-1.541,-1.541,-1.5235,0.0,-0.4635,-0.5472,-0.5152,-0.5053,0.0,0.0,0.0,-0.5574,-0.649,-0.7469,-0.8567,-0.9724,-1.0989,-1.2276,-1.3518,-1.4817,0.0,0.0,0.0,0.0,0.0,0.0,0.0,0.0,0.0,0.0,0.0,0.0,0.0,-2.0473,-2.1042,-2.0403,-1.8334,-1.8061,-1.8867,-2.0906,-2.1785,-2.3242,-2.5295,-2.6183,-2.7058,-2.801,-3.014,-3.1617,0.0,0.0,0.0,0.0,-3.5634,-3.5524,-3.5496,-3.4773,-3.4669,-3.4929,-3.4668,-3.4552,-3.4552,-3.4552,-3.4552,-3.4486,-3.4124,-3.3772,-3.3471,-3.3471,-3.1712,-2.9668,-2.9024,-2.8239,-2.7624,-2.7624,-2.7093,-2.6307,-2.563,-2.5964,-2.6141,-2.4723,-2.4628,-2.4628,-2.3877,-2.3387,-2.3135,-2.3135,-2.3135,-2.291,-2.2227,-2.1992,-2.1631,-2.0908,-2.0674,-2.0566,-2.0566,-2.0913,-2.1291,-2.1786,-2.1265,-2.1252,-2.1858,-2.1089,-2.0611,-2.0404,-1.9803,-1.9406,-1.9195,-1.8953,-1.8737,-1.8644,-1.7575,-1.6746,-1.6163,-1.5831,-1.5566,0.0,0.0,0.0,0.0,0.0,0.0,0.0,0.0,0.0,-0.7735,-0.8763,-0.9826,-1.0814,-1.2339,-1.3767,-1.4665,-1.6664,0.0,0.0,0.0,0.0,0.0,0.0,0.0,0.0,0.0,0.0,0.0,0.0,0.0,-2.072,-2.169,-2.2889,-2.434,-2.3852,-2.3975,-2.4663,-2.5968,-2.7162,-2.8418,-2.9473,-3.0241,-3.076,-3.1782,-3.3117,0.0,0.0,0.0,0.0,-3.7367,-3.7443,-3.7459,-3.7584,-3.7608,-3.7592,-3.7753,-3.7822,-3.7822,-3.7822,-3.7822,-3.7674,-3.6808,-3.586,-3.5127,-3.5127,-3.4008,-3.2778,-3.2721,-3.1269,-2.9809,-2.9758,-2.8318,-2.6789,-2.6707,-2.6719,-2.673,-2.6565,-2.5714,-2.5031,-2.4957,-2.4049,-2.3299,-2.3299,-2.3299,-2.3075,-2.2654,-2.2261,-2.1758,-2.1289,-2.0869,-2.0596,-2.0566,-2.0644,-2.1451,-2.3368,-2.3004,-2.2757,-2.285,-2.236,-2.1822,-2.1344,-2.0584,-2.028,-2.0553,-1.9796,-1.9784,-2.0423,-1.8884,-1.7945,-1.744,-1.6638,-1.5929,-0.5432,0.0,-0.5109,-0.5111,-0.5839,0.0,0.0,0.0,0.0,0.0,0.0,-1.1914,-1.3497,-1.4598,-1.5623,-1.674,-1.7971,0.0,0.0,0.0,0.0,0.0,0.0,0.0,0.0,0.0,0.0,0.0,0.0,-2.2052,-2.4088,-2.4456,-2.531,-2.681,-2.7612,-2.7877,-2.7651,-2.8797,-2.9993,-3.105,-3.1343,-3.2213,-3.3642,-3.4078,-3.5066,0.0,0.0,0.0,-3.802,-3.8242,-3.8043,-3.7554,-3.7723,-3.7753,-3.7737,-3.7812,-3.7822,-3.7822,-3.7822,-3.7822,-3.7748,-3.7526,-3.7302,-3.7093,-3.7093,-3.5844,-3.423,-3.3675,-3.3196,-3.2625,-3.2024,-3.0952,-2.991,-2.8999,-2.8942,-2.8542,-2.6894,-2.6953,-2.7105,-2.6295,-2.5891,-2.5724,-2.5724,-2.4967,-2.4227,-2.3867,-2.2992,-2.209,-2.1338,-2.1143,-2.0947,-2.0605,-2.1221,-2.2188,-2.3368,-2.3007,-2.3187,-2.4245,-2.3777,-2.322,-2.265,-2.2432,-2.2174,-2.189,-2.1284,-2.0779,-2.0423,-2.0006,-1.9174,-1.7817,-1.7645,-1.6982,-0.6358,-0.6,-0.568,-0.5918,-0.686,-0.7883,0.0,0.0,0.0,0.0,0.0,0.0,-1.4891,0.0,0.0,0.0,0.0,0.0,0.0,0.0,0.0,0.0,0.0,0.0,0.0,0.0,0.0,0.0,0.0,-2.359,-2.5068,-2.6095,-2.7049,-2.7824,-2.9272,-2.9965,-2.973,-3.0868,-3.2155,-3.3487,-3.3485,-3.4073,-3.5187,-3.5354,-3.5938,0.0,0.0,0.0,-3.805,-3.82,-3.7995,-3.7723,-3.8164,-3.8302,-3.8374,-3.8707,-3.8999,-3.9199,-3.9199,-3.9374,-3.9665,-3.9665,-3.9426,-3.9199,-3.9199,-3.8297,-3.7065,-3.5952,-3.5322,-3.4907,-3.4427,-3.3377,-3.2269,-3.1613,-3.1296,-3.0732,-2.9566,-2.9387,-2.909,-2.808,-2.7452,-2.6909,-2.624,-2.5821,-2.5228,-2.4282,-2.3649,-2.2832,-2.1693,-2.1357,-2.1064,-2.0615,-2.1078,-2.1962,-2.3368,-2.3206,-2.3699,-2.5078,-2.4431,-2.3853,-2.354,-2.3276,-2.2927,-2.2698,-2.2397,-2.206,-2.1638,-2.1272,-2.0292,-1.8848,-1.8265,-1.7318,-0.7449,-0.7083,-0.6832,-0.7274,-0.8312,-0.9416,0.0,0.0,0.0,0.0,0.0,0.0,0.0,0.0,0.0,0.0,0.0,0.0,0.0,0.0,0.0,0.0,0.0,0.0,0.0,0.0,0.0,0.0,0.0,-2.5126,-2.5284,-2.7093,-2.8176,-2.8347,-2.9732,-3.07,-3.1242,-3.2293,-3.3657,-3.5341,-3.5239,-3.5592,-3.6302,-3.6069,-3.632,-3.6833,0.0,0.0,-3.7826,-3.803,-3.8075,-3.8035,-3.8816,-3.9123,-3.9265,-3.9969,-4.0577,-4.1041,-4.1041,-4.1358,-4.181,-4.181,-4.1446,-4.1041,-4.1041,-4.0703,-4.0053,-3.8674,-3.7546,-3.6776,-3.6656,-3.5435,-3.4199,-3.4199,-3.3582,-3.2891,-3.2778,-3.2055,-3.1129,-3.0125,-2.926,-2.8192,-2.6734,-2.6726,-2.6363,-2.4766,-2.4344,-2.3763,-2.2247,-2.1595,-2.1143,-2.0625,-2.0712,-2.1527,-2.3379,-2.3672,-2.4282,-2.5682,-2.472,-2.4042,-2.3879,-2.3389,-2.3078,-2.3078,-2.3078,-2.3078,-2.3078,-2.2445,-2.1454,-2.02,-1.891,-1.7604,-0.9321,-0.9807,-0.9839,-0.9268,-1.0392,-1.18,0.0,0.0,0.0,0.0,0.0,0.0,0.0,0.0,0.0,0.0,0.0,0.0,0.0,0.0,0.0,0.0,0.0,0.0,0.0,0.0,0.0,0.0,0.0,-2.6625,-2.751,-2.7924,-2.8518,-2.9534,-2.9789,-3.0725,-3.2336,-3.2611,-3.3657,-3.5418,-3.506,-3.6012,-3.7957,-3.6945,-3.7134,-3.8311,0.0,-3.8511,-3.8667,-3.93,-3.9231,-3.8799,-3.961,-4.0186,-4.0603,-4.0716,-4.1133,-4.1664,-4.1664,-4.1707,-4.181,-4.181,-4.1768,-4.1664,-4.1664,-4.1578,-4.1402,-4.0634,-3.9511,-3.8365,-3.7758,-3.6823,-3.5999,-3.5999,-3.5281,-3.4412,-3.3743,-3.3471,-3.3141,-3.2253,-3.1979,-3.1575,-3.0488,-2.9592,-2.8517,-2.7058,-2.5568,-2.4158,-2.2766,-2.213,-2.1475,-2.0654,-2.1298,-2.2253,-2.3368,-2.4264,-2.5252,-2.6258,-2.5297,-2.4268,-2.3314,-2.3175,-2.3078,-2.3078,-2.3078,-2.3078,-2.3078,-2.3005,-2.2457,-2.1549,-2.0211,-1.8931,-1.017,-1.0883,-1.1382,-1.1427,-1.2303,-1.3189,0.0,0.0,0.0,0.0,0.0,0.0,0.0,0.0,0.0,0.0,0.0,0.0,0.0,0.0,0.0,0.0,0.0,0.0,0.0,0.0,0.0,0.0,0.0,0.0,-2.8084,-2.8676,-2.9275,-2.9792,-3.0279,-3.0983,-3.1829,-3.2928,-3.4337,-3.6013,-3.5813,-3.6354,-3.7398,-3.7241,-3.7312,-3.7545,0.0,-3.8845,-3.8902,-3.9707,-3.9859,-3.9594,-4.0285,-4.0703,-4.0995,-4.1621,-4.2038,-4.2342,-4.2619,-4.2734,-4.2734,-4.2734,-4.2523,-4.2302,-4.2302,-4.208,-4.175,-4.1446,-4.0728,-3.9817,-3.9193,-3.8404,-3.776,-3.776,-3.7058,-3.6383,-3.606,-3.5951,-3.567,-3.4821,-3.4625,-3.4112,-3.2443,-3.1924,-3.1015,-2.8654,-2.75,-2.6219,-2.4374,-2.3578,-2.2882,-2.2273,-2.2553,-2.322,-2.4264,-2.4707,-2.532,-2.5945,-2.5523,-2.4745,-2.364,-2.3602,-2.3452,-2.3078,-2.3078,-2.3078,-2.3078,-2.3078,-2.2702,-2.1865,-2.0308,-1.9033,-1.0988,-1.1812,-1.2574,-1.3309,0.0,-1.4317,-1.4414,0.0,0.0,0.0,0.0,0.0,0.0,0.0,0.0,0.0,0.0,0.0,0.0,0.0,0.0,0.0,0.0,0.0,0.0,0.0,0.0,0.0,0.0,0.0,-2.9139,-2.9999,-3.0432,-3.0432,-3.1119,-3.1609,-3.1815,-3.349,-3.5007,-3.6417,-3.6481,-3.6678,-3.7075,-3.7655,-3.7631,-3.7231,-3.8564,-3.9193,-3.9262,-3.985,-4.0154,-4.0336,-4.0733,-4.1087,-4.1446,-4.2501,-4.2902,-4.2939,-4.3375,-4.3497,-4.3497,-4.3497,-4.3214,-4.2902,-4.2902,-4.258,-4.2144,-4.1895,-4.149,-4.0995,-4.0417,-3.9749,-3.9193,-3.9193,-3.8761,-3.8262,-3.8092,-3.8035,-3.7815,-3.6883,-3.6732,-3.6106,-3.4095,-3.393,-3.3207,-3.0391,-2.9451,-2.8333,-2.6382,-2.5183,-2.4328,-2.3818,-2.3795,-2.4264,-2.53,-2.537,-2.542,-2.5569,-2.5598,-2.5172,-2.423,-2.4067,-2.3791,-2.3339,-2.314,-2.3078,-2.3078,-2.3078,-2.2763,-2.2113,-2.0315,-1.9061,-1.2457,-1.3323,-1.3961,-1.4462,0.0,0.0,-1.5972,0.0,0.0,0.0,0.0,0.0,0.0,0.0,0.0,0.0,0.0,0.0,0.0,0.0,0.0,0.0,0.0,0.0,0.0,0.0,0.0,0.0,0.0,0.0,-3.2222,-3.2379,-3.2393,-3.2393,-3.2464,-3.289,-3.3808,-3.4648,-3.5484,-3.6222,-3.644,-3.7326,-3.8667,-3.8731,-3.8778,-3.8799,-3.9662,-4.002,-4.002,-4.007,-4.0417,-4.0874,-4.0903,-4.1578,-4.2655,-4.3214,-4.3444,-4.3444,-4.3497,-4.3497,-4.3497,-4.3497,-4.3479,-4.3444,-4.3444,-4.341,-4.316,-4.2103,-4.175,-4.1578,-4.0995,-4.0449,-4.002,-4.002,-3.9969,-3.9731,-3.8962,-3.8799,-3.858,-3.7847,-3.7674,-3.7377,-3.6336,-3.5561,-3.4519,-3.2861,-3.1075,-2.9521,-2.842,-2.6519,-2.5144,-2.4779,-2.485,-2.53,-2.6314,-2.6383,-2.6145,-2.5636,-2.5598,-2.5347,-2.4782,-2.4268,-2.3979,-2.3941,-2.3414,-2.3078,-2.3078,-2.3078,-2.3078,-2.2932,-2.0845,-1.9845,-1.3009,-1.3957,-1.4825,-1.5324,0.0,0.0,0.0,0.0,0.0,0.0,0.0,0.0,0.0,0.0,0.0,0.0,0.0,0.0,0.0,0.0,0.0,0.0,0.0,0.0,0.0,0.0,0.0,0.0,0.0,0.0,-3.2593,-3.2593,-3.2593,-3.2593,-3.3639,-3.4353,-3.4714,-3.6121,-3.7175,-3.7886,-3.7535,-3.7658,-3.8206,-3.8711,-3.8908,-3.8962,-3.9782,-4.0286,-4.0625,-4.0625,-4.0703,-4.0949,-4.1313,-4.2167,-4.3214,-4.341,-4.3497,-4.3497,-4.3497,-4.3497,-4.3497,-4.3497,-4.3497,-4.3497,-4.3497,-4.3497,-4.3321,-4.258,-4.208,-4.1578,-4.0625,-4.0237,-4.007,-4.007,-4.007,-4.002,-3.9714,-3.9662,-3.9558,-3.9279,-3.9226,-3.8962,-3.8092,-3.7719,-3.6986,-3.5559,-3.3862,-3.2436,-3.1637,-2.998,-2.8657,-2.8104,-2.7198,-2.6607,-2.6521,-2.6973,-2.7126,-2.6906,-2.6544,-2.5691,-2.4343,-2.4884,-2.4794,-2.4004,-2.4117,-2.4017,-2.3665,-2.3665,-2.3489,-2.3053,-2.1451,-2.0404,-1.3238,-1.4332,0.0,0.0,0.0,0.0,0.0,0.0,0.0,0.0,0.0,0.0,0.0,0.0,0.0,0.0,0.0,0.0,0.0,0.0,0.0,0.0,0.0,0.0,0.0,0.0,0.0,0.0,0.0,0.0,0.0,-3.4114,-3.4234,-3.4234,-3.5383,-3.6029,-3.6029,-3.7435,-3.8414,-3.8908,-3.8652,-3.8557,-3.8541,-3.9049,-3.9262,-3.9315,-4.0053,-4.0577,-4.0903,-4.1133,-4.1313,-4.1534,-4.2085,-4.281,-4.3497,-4.3497,-4.3497,-4.3497,-4.3497,-4.3497,-4.3497,-4.3497,-4.3497,-4.3497,-4.3497,-4.3497,-4.3375,-4.2637,-4.2121,-4.1552,-4.0385,-4.007,-4.007,-4.007,-4.007,-4.007,-4.007,-4.007,-4.007,-4.007,-4.007,-3.9901,-3.9368,-3.9086,-3.8564,-3.7621,-3.6153,-3.4985,-3.4524,-3.2886,-3.131,-3.0151,-2.8845,-2.7855,-2.7351,-2.7802,-2.8036,-2.7849,-2.7624,-2.6952,-2.5634,-2.6264,-2.6197,-2.5348,-2.5255,-2.5052,-2.4668,-2.4204,-2.3791,-2.3328,-2.2019,-2.1087,-1.3216,-1.452,0.0,0.0,0.0,0.0,0.0,0.0,0.0,0.0,0.0,0.0,0.0,0.0,0.0,0.0,0.0,0.0,0.0,0.0,0.0,0.0,0.0,0.0,0.0,0.0,0.0,0.0,0.0,0.0,0.0,-3.7397,-3.7822,-3.7822,-3.7822,-3.7806,-3.7822,-3.8525,-3.8908,-3.8908,-3.9714,-4.0121,-4.007,-4.007,-4.0121,-4.0121,-4.0655,-4.0903,-4.0949,-4.1578,-4.2162,-4.275,-4.3304,-4.3497,-4.3497,-4.3497,-4.3497,-4.3497,-4.3497,-4.3497,-4.3497,-4.3497,-4.3497,-4.3497,-4.3497,-4.3497,-4.3267,-4.2144,-4.1793,-4.1552,-4.0385,-4.0121,-4.007,-4.007,-4.007,-4.007,-4.007,-4.007,-4.007,-4.007,-4.007,-4.007,-4.007,-3.9437,-3.8908,-3.8908,-3.7725,-3.683,-3.6774,-3.4806,-3.2517,-3.028,-2.9425,-2.9002,-2.9002,-2.9002,-2.8803,-2.8269,-2.8905,-2.9234,-2.9024,-2.847,-2.8213,-2.8227,-2.6856,-2.6144,-2.6144,-2.4694,-2.4004,-2.3991,-2.2589,-2.1889,-1.4392,0.0,0.0,0.0,0.0,0.0,0.0,0.0,0.0,0.0,0.0,0.0,0.0,0.0,0.0,0.0,0.0,0.0,0.0,0.0,0.0,0.0,0.0,0.0,0.0,0.0,0.0,0.0,0.0,0.0,0.0,-3.769,-3.7822,-3.7822,-3.8302,-3.8767,-3.9218,-3.9918,-4.0314,-4.0297,-4.0995,-4.0861,-4.007,-4.007,-4.0286,-4.0655,-4.0827,-4.1402,-4.2162,-4.2342,-4.2752,-4.325,-4.3014,-4.3178,-4.3497,-4.3497,-4.3497,-4.3497,-4.3497,-4.3497,-4.3497,-4.3497,-4.3497,-4.3497,-4.3497,-4.3497,-4.3356,-4.2637,-4.2121,-4.1621,-4.0874,-4.0368,-4.007,-4.007,-4.007,-4.007,-4.007,-4.007,-4.007,-4.007,-4.007,-4.007,-4.007,-3.9901,-3.9714,-3.9714,-3.8474,-3.7302,-3.679,-3.5321,-3.3802,-3.2503,-3.0906,-2.969,-2.9066,-2.9566,-2.9864,-2.9679,-3.0426,-2.9914,-2.7913,-2.8088,-2.8274,-2.8213,-2.768,-2.7462,-2.7585,-2.6569,-2.5644,-2.4823,-2.384,-2.2823,-1.4057,0.0,0.0,0.0,0.0,0.0,0.0,0.0,0.0,0.0,0.0,0.0,0.0,0.0,0.0,0.0,0.0,0.0,0.0,0.0,0.0,0.0,0.0,0.0,0.0,0.0,0.0,0.0,0.0,0.0,0.0,-3.8947,-3.941,-3.941,-3.98,-4.0246,-4.0612,-4.1052,-4.1268,-4.1268,-4.1621,-4.1464,-4.0767,-4.0767,-4.0938,-4.1268,-4.149,-4.2144,-4.3014,-4.3014,-4.3214,-4.3463,-4.3142,-4.3214,-4.3497,-4.3497,-4.3497,-4.3497,-4.3497,-4.3497,-4.3497,-4.3497,-4.3497,-4.3497,-4.3497,-4.3497,-4.3321,-4.2541,-4.208,-4.1621,-4.0797,-4.0319,-4.007,-4.007,-4.007,-4.007,-4.007,-4.007,-4.007,-4.007,-4.007,-4.007,-4.007,-4.007,-4.007,-4.007,-3.9059,-3.7859,-3.6859,-3.578,-3.4755,-3.3944,-3.2294,-3.0999,-3.0497,-3.0615,-3.0777,-3.0777,-3.1219,-3.0733,-2.9014,-2.9363,-2.9552,-2.95,-2.9139,-2.8956,-2.9017,-2.7968,-2.6872,-2.5858,-2.4935,-2.3827,0.0,0.0,0.0,0.0,0.0,0.0,0.0,0.0,0.0,0.0,0.0,0.0,0.0,0.0,0.0,0.0,0.0,0.0,0.0,0.0,0.0,0.0,0.0,0.0,0.0,0.0,0.0,0.0,0.0,0.0,0.0,-4.063,-4.1704,-4.1704,-4.1775,-4.1853,-4.1895,-4.1895,-4.186,-4.1771,-4.1831,-4.1795,-4.1682,-4.174,-4.1853,-4.1895,-4.2519,-4.305,-4.3479,-4.3406,-4.3424,-4.3479,-4.3406,-4.3424,-4.3497,-4.3497,-4.3497,-4.3497,-4.3497,-4.3497,-4.3497,-4.3497,-4.3497,-4.3497,-4.3497,-4.3497,-4.3267,-4.2266,-4.1895,-4.1552,-4.0514,-4.0171,-4.007,-4.007,-4.007,-4.007,-4.007,-4.007,-4.007,-4.007,-4.007,-4.007,-4.007,-4.007,-4.0037,-3.9901,-3.9377,-3.847,-3.6936,-3.6141,-3.5413,-3.4796,-3.3448,-3.2586,-3.2586,-3.1894,-3.1482,-3.1482,-3.1482,-3.1482,-3.1482,-3.1422,-3.1407,-3.1482,-3.0704,-3.0332,-3.0389,-2.9064,-2.7975,-2.7093,-2.6001,-2.4988,0.0,0.0,0.0,0.0,0.0,0.0,0.0,0.0,0.0,0.0,0.0,0.0,0.0,0.0,0.0,0.0,0.0,0.0,0.0,0.0,0.0,0.0,0.0,0.0,0.0,0.0,0.0,0.0,0.0,0.0,-3.9238,-4.0299,-4.0866,-4.0866,-4.1492,-4.2038,-4.248,-4.2519,-4.2139,0.0,-4.196,-4.1597,-4.0574,-4.141,-4.208,-4.2519,-4.3087,-4.341,-4.3442,-4.2818,-4.2928,-4.3424,-4.28,-4.2928,-4.3497,-4.3497,-4.3497,-4.3497,-4.3497,-4.3497,-4.3497,-4.3497,-4.3497,-4.3497,-4.3497,-4.3497,-4.3444,-4.3196,-4.2483,-4.175,-4.1508,-4.0767,-4.007,-4.007,-4.007,-4.007,-4.007,-4.007,-4.007,-4.007,-4.007,-4.007,-4.007,-4.007,-3.9698,-3.8548,-3.8717,-3.8449,-3.6956,-3.6155,-3.563,-3.5463,-3.3768,-3.2586,-3.2586,-3.1894,-3.1482,-3.1482,-3.1482,-3.1482,-3.1482,-3.1016,-3.0986,-3.1467,-3.0815,-3.0743,-3.1219,-3.0319,-2.948,-2.8848,-2.7936,-2.6593,0.0,0.0,0.0,0.0,0.0,0.0,0.0,0.0,0.0,0.0,0.0,0.0,0.0,0.0,0.0,0.0,0.0,0.0,0.0,0.0,0.0,0.0,0.0,0.0,0.0,0.0,0.0,0.0,0.0,-3.8845,-3.9256,-4.0271,-4.0851,-4.0851,-4.1247,-4.1631,-4.1923,-4.1923,-4.1705,-4.125,-4.1565,-4.1345,-4.0633,-4.1197,-4.1631,-4.1941,-4.2239,-4.2359,-4.2323,-4.1901,-4.1974,-4.2359,-4.2304,-4.2561,-4.2965,-4.3351,-4.3497,-4.3497,-4.3497,-4.3497,-4.3497,-4.3497,-4.3497,-4.3497,-4.3497,-4.3497,-4.3444,-4.3178,-4.2483,-4.1707,-4.1446,-4.072,-4.007,-4.007,-4.007,-4.007,-4.007,-4.007,-4.007,-4.007,-4.007,-4.007,-4.007,-3.9783,-3.9191,-3.8075,-3.7922,-3.7405,-3.5944,-3.5682,-3.5523,-3.5201,-3.4198,-3.3531,-3.3531,-3.2625,-3.2007,-3.2007,-3.1697,-3.1482,-3.1482,-3.1505,-3.1475,-3.1524,-3.118,-3.118,-3.1482,-3.1087,-3.0528,-2.9795,-2.9078,-2.7792,0.0,0.0,0.0,0.0,0.0,0.0,0.0,0.0,0.0,0.0,0.0,0.0,0.0,0.0,0.0,0.0,0.0,0.0,0.0,0.0,0.0,0.0,0.0,0.0,0.0,0.0,0.0,0.0,0.0,-3.8808,-3.8808,-3.9999,-4.0634,-4.0487,-4.0763,-4.0836,-4.0708,-4.0836,-4.0836,-4.0708,-4.0708,-4.0708,-4.0708,-4.0708,-4.0855,-4.1111,-4.1111,-4.1111,-4.1111,-4.0965,-4.0983,-4.1167,-4.168,-4.1974,-4.2194,-4.3002,-4.3185,-4.313,-4.3387,-4.3406,-4.3314,-4.3442,-4.3497,-4.3497,-4.3497,-4.3497,-4.341,-4.2976,-4.2422,-4.1853,-4.1358,-4.0797,-4.0385,-4.0237,-4.0254,-4.0204,-4.0121,-4.007,-4.007,-4.007,-4.007,-4.007,-4.007,-3.9478,-3.8751,-3.8024,-3.7263,-3.6283,-3.4947,-3.5253,-3.5362,-3.4847,-3.4688,-3.4576,-3.4576,-3.3495,-3.2749,-3.2602,-3.2007,-3.164,-3.1539,-3.2064,-3.212,-3.1524,-3.164,-3.164,-3.1482,-3.1482,-3.1161,-3.051,-3.0017,-2.8902,0.0,0.0,0.0,0.0,0.0,0.0,0.0,0.0,0.0,0.0,0.0,0.0,0.0,0.0,0.0,0.0,0.0,0.0,0.0,0.0,0.0,0.0,0.0,0.0,0.0,0.0,0.0,0.0,-3.7625,-3.7711,-3.7711,-3.8548,-3.8707,-3.7991,-3.9313,-3.9735,-3.9038,-3.9717,-3.9717,-3.9019,-3.9019,-3.9019,-3.9019,-3.9019,-3.979,-4.1111,-4.1111,-4.1111,-4.1056,-4.0359,-4.0469,-4.1056,-4.0451,-4.0653,-4.1368,-4.2158,-4.2029,-4.1625,-4.302,-4.3039,-4.258,-4.3259,-4.3497,-4.3497,-4.3497,-4.3497,-4.3497,-4.341,-4.3014,-4.2577,-4.248,-4.2038,-4.1446,-4.092,-4.078,-4.0655,-4.0204,-4.007,-4.007,-4.007,-4.007,-4.007,-4.007,-3.9478,-3.8751,-3.8024,-3.7263,-3.6502,-3.5571,-3.5515,-3.5577,-3.547,-3.4941,-3.4576,-3.4576,-3.3887,-3.3235,-3.2641,-3.2492,-3.2176,-3.1524,-3.1582,-3.1582,-3.1482,-3.212,-3.212,-3.1482,-3.1482,-3.1409,-3.1351,-3.1261,-3.0455,0.0,0.0,0.0,0.0,0.0,0.0,0.0,0.0,0.0,0.0,0.0,0.0,0.0,0.0,0.0,0.0,0.0,0.0,0.0,0.0,0.0,0.0,0.0,0.0,0.0,0.0,0.0,0.0,-3.6817,-3.6817,-3.6817,-3.7165,-3.7184,-3.6835,-3.7496,-3.7698,-3.7367,-3.7698,-3.7698,-3.7367,-3.7367,-3.7367,-3.7367,-3.7808,-3.8652,-3.9772,-3.9772,-3.9772,-3.9735,-3.9368,-3.9441,-3.9772,-3.9863,-4.012,-4.0524,-4.1332,-4.1405,-4.1203,-4.1919,-4.1919,-4.1772,-4.2561,-4.2525,-4.2323,-4.3222,-4.3185,-4.291,-4.3369,-4.3087,-4.2603,-4.2116,-4.1321,-4.0595,-4.0279,-4.0036,-3.9754,-3.9561,-3.9783,-3.9952,-3.9546,-3.98,-3.9817,-3.9005,-3.8599,-3.8125,-3.7381,-3.662,-3.584,-3.5148,-3.5362,-3.547,-3.5098,-3.5098,-3.5161,-3.5161,-3.4544,-3.3887,-3.3182,-3.2788,-3.2272,-3.1524,-3.191,-3.212,-3.212,-3.2007,-3.2007,-3.212,-3.1697,-3.1682,-3.212,-3.1697,-3.0925,0.0,0.0,0.0,0.0,0.0,0.0,0.0,0.0,0.0,0.0,0.0,0.0,0.0,0.0,0.0,0.0,0.0,0.0,0.0,0.0,0.0,0.0,0.0,0.0,0.0,0.0,0.0,0.0,-3.5844,-3.5973,-3.5973,-3.5973,-3.5881,-3.5661,-3.5862,-3.5862,-3.5661,-3.5862,-3.5973,-3.5973,-3.6193,-3.6303,-3.6321,-3.6909,-3.7514,-3.812,-3.8524,-3.8707,-3.8707,-3.8707,-3.8707,-3.8762,-3.935,-3.9588,-3.968,-4.0506,-4.0671,-4.0561,-4.0965,-4.1111,-4.1203,-4.1809,-4.1882,-4.1901,-4.2892,-4.2782,-4.247,-4.3259,-4.3068,-4.2503,-4.205,-4.1252,-4.0421,-4.0053,-3.9554,-3.9149,-3.9037,-3.9276,-3.9377,-3.8819,-3.9157,-3.9174,-3.8091,-3.7905,-3.7719,-3.7144,-3.6569,-3.5996,-3.5507,-3.5887,-3.5912,-3.5241,-3.5602,-3.5825,-3.5639,-3.5144,-3.4592,-3.3887,-3.3391,-3.2788,-3.2048,-3.2741,-3.3029,-3.2841,-3.2481,-3.2481,-3.2841,-3.2312,-3.2312,-3.2841,-3.212,-3.148,0.0,0.0,0.0,0.0,0.0,0.0,0.0,0.0,0.0,0.0,0.0,0.0,0.0,0.0,0.0,0.0,0.0,0.0,0.0,0.0,0.0,0.0,0.0,0.0,0.0,0.0,0.0,0.0,-3.4651,-3.5064,-3.5064,-3.5064,-3.4715,-3.3954,-3.4688,-3.4706,-3.3935,-3.4706,-3.5064,-3.5064,-3.5917,-3.6303,-3.6303,-3.634,-3.6376,-3.6505,-3.8046,-3.8707,-3.8707,-3.8707,-3.8707,-3.8707,-3.8762,-3.8762,-3.8854,-3.9662,-3.9478,-3.9038,-4.0579,-4.1111,-4.113,-4.1167,-4.2176,-4.324,-4.2561,-4.2323,-4.247,-4.3259,-4.2947,-4.2491,-4.3188,-4.2978,-4.2228,-4.0961,-4.0193,-3.9646,-3.9117,-3.8481,-3.8007,-3.7973,-3.799,-3.799,-3.7922,-3.7905,-3.7889,-3.7855,-3.7821,-3.7787,-3.7739,-3.7739,-3.7516,-3.6743,-3.6721,-3.6417,-3.5673,-3.5577,-3.5253,-3.4576,-3.4528,-3.4186,-3.3531,-3.4186,-3.4286,-3.3547,-3.4202,-3.4217,-3.3547,-3.3479,-3.3479,-3.3531,-3.2841,-3.2532,0.0,0.0,0.0,0.0,0.0,0.0,0.0,0.0,0.0,0.0,0.0,0.0,0.0,0.0,0.0,0.0,0.0,0.0,0.0,0.0,0.0,0.0,0.0,0.0,0.0,0.0,0.0,0.0,0.0,-3.2687,-3.2687,-3.2687,-3.2559,-3.2265,-3.254,-3.2797,-3.3036,-3.333,-3.3733,-3.4229,-3.4559,-3.4688,-3.4706,-3.5238,-3.5477,-3.5532,-3.667,-3.7441,-3.7955,-3.8487,-3.8707,-3.8707,-3.8707,-3.8707,-3.8726,-3.9019,-3.8946,-3.8781,-3.9368,-3.957,-3.9735,-4.0763,-4.1148,-4.1332,-4.2066,-4.2304,-4.2249,-4.2029,-4.2121,-4.2249,-4.2029,-4.0944,-3.9665,-3.8486,-3.8385,-3.8529,-3.8343,-3.7702,-3.7178,-3.7178,-3.7584,-3.7753,-3.7263,-3.7584,-3.7905,-3.7905,-3.7905,-3.7905,-3.7905,-3.7905,-3.7804,-3.7533,-3.706,-3.6671,-3.6383,-3.591,-3.5299,-3.4624,-3.4576,-3.4497,-3.4306,-3.4579,-3.4997,-3.564,-3.5901,-3.546,-3.4235,-3.3786,-3.3836,-3.4235,-3.3531,-3.2986,0.0,0.0,0.0,0.0,0.0,0.0,0.0,0.0,0.0,0.0,0.0,0.0,0.0,0.0,0.0,0.0,0.0,0.0,0.0,0.0,0.0,0.0,0.0,0.0,0.0,0.0,0.0,0.0,0.0,0.0,-3.1384,-3.1384,-3.1384,-3.1384,-3.1384,-3.1659,-3.2192,-3.221,-3.2596,-3.3403,-3.3403,-3.3532,-3.3825,-3.4357,-3.4614,-3.4651,-3.5495,-3.6321,-3.7129,-3.7661,-3.8046,-3.8267,-3.7991,-3.823,-3.867,-3.8395,-3.8469,-3.8707,-3.8707,-3.8891,-3.9239,-4.0047,-4.0304,-4.0451,-4.124,-4.168,-4.1791,-4.1258,-4.1497,-4.1772,-4.1258,-3.995,-3.8478,-3.7298,-3.7284,-3.7533,-3.7533,-3.7144,-3.6772,-3.6772,-3.7398,-3.7669,-3.6907,-3.7618,-3.8278,-3.8278,-3.8481,-3.8633,-3.8633,-3.8633,-3.8531,-3.8311,-3.7601,-3.7161,-3.7161,-3.6451,-3.5912,-3.5738,-3.5473,-3.5463,-3.5789,-3.5754,-3.6073,-3.6771,-3.707,-3.6421,-3.4941,-3.4758,-3.4742,-3.4941,-3.4235,-3.3443,0.0,0.0,0.0,0.0,0.0,0.0,0.0,0.0,0.0,0.0,0.0,0.0,0.0,0.0,0.0,0.0,0.0,0.0,0.0,0.0,0.0,0.0,0.0,0.0,0.0,0.0,0.0,0.0,-3.0852,-3.1292,-3.1329,-3.1329,-3.1329,-3.1329,-3.1329,-3.1329,-3.1347,-3.1347,-3.177,-3.2577,-3.2577,-3.2999,-3.3752,-3.3752,-3.377,-3.3844,-3.4633,-3.5459,-3.6229,-3.6266,-3.6743,-3.7397,-3.6597,-3.7257,-3.8542,-3.7771,-3.7991,-3.867,-3.8689,-3.9203,-3.9735,-3.8982,-3.979,-4.0928,-4.0139,-4.0469,-4.1111,-4.1056,-4.1056,-4.1075,-4.1005,-4.0275,-3.9176,-3.7826,-3.7175,-3.6869,-3.684,-3.684,-3.684,-3.6823,-3.7398,-3.7686,-3.6958,-3.8041,-3.9005,-3.9022,-3.9631,-4.007,-4.007,-4.007,-3.9817,-3.9106,-3.8379,-3.7939,-3.7939,-3.7246,-3.7127,-3.7855,-3.7212,-3.7144,-3.7905,-3.7922,-3.7567,-3.6857,-3.755,-3.7161,-3.5656,-3.64,-3.6349,-3.5577,-3.4894,-3.3887,-2.1441,0.0,0.0,0.0,0.0,0.0,0.0,0.0,0.0,0.0,0.0,0.0,0.0,0.0,0.0,0.0,0.0,0.0,0.0,0.0,0.0,0.0,0.0,0.0,0.0,0.0,0.0,0.0,-2.8576,-2.9053,-2.9641,-2.9659,-2.9659,-2.9659,-2.9659,-2.9953,-3.0522,-3.0522,-3.0944,-3.1733,-3.1733,-3.2155,-3.2944,-3.2944,-3.3256,-3.3807,-3.4045,-3.4266,-3.4578,-3.5789,-3.6431,-3.6597,-3.6376,-3.656,-3.7,-3.7349,-3.7624,-3.7918,-3.8505,-3.8854,-3.9093,-3.9441,-3.9863,-4.0194,-3.9955,-4.0469,-4.0873,-3.9698,-3.979,-4.002,-3.9034,-3.9373,-3.9593,-3.791,-3.7828,-3.8145,-3.834,-3.8379,-3.8227,-3.7702,-3.777,-3.8007,-3.8328,-3.8717,-3.9174,-3.9698,-3.9952,-4.007,-4.007,-4.007,-4.0003,-3.98,-3.9123,-3.87,-3.87,-3.8024,-3.7686,-3.7889,-3.7719,-3.7922,-3.8667,-3.8176,-3.8058,-3.8379,-3.8075,-3.7432,-3.6451,-3.6113,-3.5825,-3.5577,-3.4894,-3.4137,0.0,0.0,0.0,0.0,0.0,0.0,-2.2443,-2.1874,0.0,0.0,0.0,0.0,0.0,0.0,0.0,0.0,0.0,0.0,0.0,0.0,0.0,0.0,0.0,0.0,0.0,-2.5615,-2.6038,-2.6995,-2.753,-2.8154,-2.8957,-2.8686,-2.8668,-2.8975,-2.8994,-2.9214,-2.9696,-2.9714,-3.0099,-3.0889,-3.0889,-3.1311,-3.2118,-3.2467,-3.2871,-3.333,-3.3642,-3.3807,-3.388,-3.4853,-3.5459,-3.5734,-3.5385,-3.5881,-3.6817,-3.6945,-3.7404,-3.8065,-3.8542,-3.8707,-3.8781,-3.9239,-3.9405,-3.9405,-3.9405,-3.9955,-4.0341,-3.9056,-3.9038,-3.9213,-3.8427,-3.8954,-3.9372,-3.8005,-3.8357,-3.8947,-3.8865,-3.9301,-3.9434,-3.8509,-3.8616,-3.8853,-3.8971,-3.9242,-3.958,-4.002,-4.007,-4.007,-4.007,-4.007,-4.007,-4.007,-3.9428,-3.9106,-3.9411,-3.8768,-3.8481,-3.8802,-3.8531,-3.8684,-3.9411,-3.8751,-3.8413,-3.8531,-3.8125,-3.7381,-3.6299,-3.6163,-3.5943,-3.5577,-3.5207,-3.464,0.0,0.0,0.0,0.0,0.0,0.0,-2.1545,-2.1797,-2.1922,0.0,0.0,0.0,0.0,0.0,0.0,0.0,0.0,0.0,0.0,0.0,0.0,0.0,0.0,0.0,-2.5142,-2.5236,-2.5585,-2.641,-2.72,-2.8026,-2.881,-2.8191,-2.8172,-2.8957,-2.8994,-2.8994,-2.8994,-2.8994,-2.9365,-3.0081,-3.0081,-3.0522,-3.1403,-3.2063,-3.2485,-3.2779,-3.3403,-3.3715,-3.3807,-3.3807,-3.4229,-3.4789,-3.4082,-3.5147,-3.7048,-3.6486,-3.7202,-3.8469,-3.8652,-3.8652,-3.8579,-3.867,-3.8634,-3.8579,-3.867,-3.9203,-3.9625,-3.8909,-3.8707,-3.8707,-3.8707,-3.8828,-3.8831,-3.8164,-3.874,-3.9305,-3.879,-3.9673,-4.0285,-3.9354,-3.9712,-4.0,-3.9306,-3.9697,-4.007,-4.007,-4.007,-4.007,-4.007,-4.007,-4.007,-4.007,-3.9495,-3.9377,-4.002,-3.9478,-3.9394,-4.0037,-3.9462,-3.9411,-4.0054,-3.9377,-3.865,-3.7922,-3.7736,-3.6975,-3.5622,-3.6315,-3.6299,-3.5622,-3.5622,-3.5253,0.0,0.0,0.0,0.0,0.0,0.0,-2.2254,-2.2024,-2.2111,0.0,0.0,0.0,0.0,0.0,0.0,0.0,0.0,0.0,0.0,0.0,0.0,0.0,0.0,0.0,-2.4013,-2.4273,-2.4759,-2.5566,-2.6374,-2.72,-2.7989,-2.7879,-2.8172,-2.8957,-2.8994,-2.8994,-2.8994,-2.8994,-2.9067,-2.9214,-2.9214,-2.9989,-3.1366,-3.0889,-3.1733,-3.3532,-3.3054,-3.3201,-3.3807,-3.3807,-3.3899,-3.4027,-3.3862,-3.41,-3.4669,-3.5862,-3.6486,-3.6945,-3.8248,-3.8267,-3.7826,-3.8487,-3.8267,-3.7845,-3.8505,-3.8817,-3.8909,-3.8744,-3.8707,-3.8707,-3.8707,-3.8737,-3.8761,-3.8758,-3.896,-3.9117,-3.9211,-3.9435,-3.9776,-4.0217,-4.0537,-4.0698,-4.0543,-4.0266,-4.007,-4.007,-4.007,-4.007,-4.007,-4.007,-4.007,-4.007,-3.9952,-3.9918,-4.007,-3.9952,-3.9935,-4.007,-3.9935,-3.9935,-4.007,-3.9377,-3.865,-3.7922,-3.6688,-3.5926,-3.5622,-3.5774,-3.5774,-3.5622,-3.5622,-3.5253,0.0,0.0,0.0,-2.2441,0.0,0.0,0.0,-2.2208,-2.2254,0.0,0.0,0.0,0.0,0.0,0.0,0.0,0.0,0.0,0.0,0.0,0.0,0.0,0.0,0.0,-2.3937,-2.4094,-2.452,-2.5348,-2.5401,-2.5933,-2.7145,-2.6814,-2.7145,-2.8374,-2.8411,-2.8594,-2.8994,-2.8994,-2.8994,-2.8994,-2.8994,-2.9439,-3.021,-3.021,-3.1072,-3.2596,-3.2614,-3.2834,-3.3238,-3.3623,-3.3568,-3.3238,-3.3642,-3.4045,-3.4504,-3.5349,-3.5936,-3.6468,-3.7679,-3.7826,-3.7551,-3.7955,-3.7826,-3.7599,-3.7973,-3.8377,-3.8707,-3.8707,-3.8707,-3.8707,-3.8707,-3.8707,-3.8737,-3.8842,-3.9158,-3.9494,-3.9743,-4.0053,-4.0543,-4.1497,-4.1375,-4.117,-4.1332,-4.0874,-4.0497,-4.0497,-4.0286,-4.007,-4.007,-4.007,-3.9935,-3.958,-3.9868,-3.9935,-3.9563,-3.9868,-4.007,-4.007,-4.007,-4.007,-4.007,-3.9732,-3.9022,-3.7922,-3.6789,-3.6197,-3.6197,-3.6197,-3.5994,-3.5622,-3.5622,-3.5407,0.0,0.0,0.0,0.0,0.0,-2.2084,0.0,0.0,0.0,0.0,0.0,0.0,0.0,0.0,0.0,0.0,0.0,0.0,0.0,0.0,0.0,0.0,0.0,0.0,0.0,-2.4357,-2.4688,-2.5127,-2.4762,-2.5056,-2.63,-2.5897,-2.6227,-2.753,-2.786,-2.8282,-2.8778,-2.892,-2.8994,-2.8994,-2.8994,-2.9067,-2.9255,-2.9751,-3.0485,-3.1421,-3.1916,-3.2247,-3.243,-3.3073,-3.2963,-3.2467,-3.344,-3.4211,-3.477,-3.4935,-3.5459,-3.6193,-3.7147,-3.7386,-3.7312,-3.7624,-3.7606,-3.7544,-3.7661,-3.8065,-3.8505,-3.867,-3.8707,-3.8707,-3.8707,-3.8707,-3.8707,-3.8707,-3.9203,-3.9713,-3.9875,-4.0443,-4.1162,-4.2214,-4.1977,-4.1607,-4.1795,-4.1313,-4.0856,-4.078,-4.0368,-4.007,-4.007,-4.007,-3.98,-3.9073,-3.9648,-3.9783,-3.9056,-3.9665,-4.007,-4.007,-4.007,-4.007,-4.007,-3.9935,-3.9326,-3.8142,-3.7381,-3.6992,-3.6992,-3.6992,-3.6603,-3.5842,-3.569,-3.5622,0.0,0.0,0.0,0.0,-2.2558,0.0,0.0,0.0,-2.3199,-2.3175,0.0,0.0,0.0,0.0,0.0,0.0,0.0,0.0,0.0,0.0,0.0,0.0,0.0,0.0,0.0,-2.4893,-2.5208,-2.4393,-2.5079,-2.5542,-2.5531,-2.6135,-2.6557,-2.6741,-2.8136,-2.8576,-2.7934,-2.865,-2.8994,-2.8994,-2.8994,-2.9384,-3.0044,-2.9439,-2.9971,-3.1366,-3.0742,-3.0889,-3.1531,-3.1623,-3.1604,-3.1678,-3.3201,-3.3862,-3.4027,-3.4734,-3.5045,-3.5357,-3.6945,-3.7019,-3.667,-3.8102,-3.8065,-3.7624,-3.834,-3.812,-3.7771,-3.8505,-3.8707,-3.8707,-3.8707,-3.8707,-3.8707,-3.8707,-3.8781,-3.8823,-3.8884,-3.9483,-4.0304,-4.1137,-4.1763,-4.2086,-4.1837,-4.1313,-4.0733,-4.0237,-4.0121,-4.007,-4.007,-4.007,-3.98,-3.9073,-3.9648,-3.9783,-3.9056,-3.9665,-4.007,-4.007,-4.007,-4.007,-4.007,-3.9462,-3.9039,-3.887,-3.8159,-3.7787,-3.7787,-3.7787,-3.7381,-3.6637,-3.5943,-3.5622,0.0,0.0,0.0,0.0,0.0,0.0,-2.2526,0.0,-2.3241,0.0,0.0,0.0,0.0,0.0,0.0,0.0,-2.3636,0.0,0.0,0.0,0.0,0.0,0.0,0.0,0.0,0.0,0.0,0.0,-2.4484,-2.4725,-2.4429,-2.4917,-2.564,-2.6576,-2.7273,-2.7897,-2.8503,-2.881,-2.8994,-2.8994,-2.8994,-2.9177,-2.9494,-2.914,-2.9622,-3.0687,-3.0356,-3.0393,-3.0742,-3.1201,-3.1384,-3.1494,-3.2669,-3.3109,-3.3201,-3.4009,-3.4302,-3.4541,-3.6211,-3.6578,-3.6413,-3.7092,-3.7074,-3.6853,-3.7202,-3.7716,-3.8267,-3.8597,-3.8707,-3.8707,-3.8707,-3.8707,-3.8707,-3.8707,-3.8707,-3.8836,-3.9294,-3.9294,-3.9717,-4.146,-4.1699,-4.177,-4.2246,-4.181,-4.1223,-4.0655,-4.0286,-4.007,-4.007,-4.007,-3.9631,-3.8481,-3.9005,-3.8971,-3.7804,-3.8396,-3.9005,-3.9411,-3.9834,-4.007,-4.007,-3.9377,-3.8988,-3.8988,-3.87,-3.8531,-3.8531,-3.8531,-3.8159,-3.7415,-3.6654,-3.6299,-2.233,0.0,0.0,0.0,0.0,0.0,0.0,0.0,0.0,0.0,0.0,0.0,0.0,0.0,0.0,0.0,0.0,-2.2685,0.0,0.0,0.0,0.0,0.0,0.0,0.0,0.0,0.0,-2.3777,-2.42,-2.4237,-2.3732,-2.4135,-2.4862,-2.5915,-2.6576,-2.7383,-2.8315,-2.8773,-2.8994,-2.8994,-2.8994,-2.8994,-2.8994,-2.8994,-2.9305,-2.9879,-2.9879,-2.9879,-2.9934,-3.0503,-3.087,-3.1146,-3.1971,-3.2412,-3.2706,-3.3495,-3.3935,-3.4339,-3.5789,-3.6597,-3.6909,-3.6688,-3.6615,-3.6615,-3.6615,-3.7441,-3.8414,-3.8634,-3.8707,-3.8707,-3.8707,-3.8707,-3.8707,-3.8707,-3.8707,-3.8854,-3.9441,-3.9294,-3.9551,-4.1295,-4.135,-4.1348,-4.221,-4.206,-4.1578,-4.0995,-4.0577,-4.0336,-4.0336,-4.0336,-3.9756,-3.8291,-3.8814,-3.8616,-3.6924,-3.7652,-3.843,-3.8954,-3.9681,-4.007,-4.007,-3.958,-3.9292,-3.9292,-3.9292,-3.9292,-3.9292,-3.9089,-3.8717,-3.8176,-3.7229,-3.6772,0.0,0.0,0.0,-2.2694,0.0,0.0,0.0,0.0,-2.3119,0.0,0.0,0.0,0.0,0.0,0.0,0.0,0.0,0.0,0.0,0.0,0.0,0.0,0.0,0.0,0.0,0.0,-2.5207,-2.3998,-2.4699,-2.473,-2.375,-2.4454,-2.4693,-2.43,-2.6539,-2.7402,-2.6686,-2.8205,-2.8994,-2.8994,-2.8994,-2.8994,-2.8994,-2.8994,-2.8994,-2.903,-2.903,-2.903,-2.903,-2.9067,-2.9549,-3.032,-3.1109,-3.1916,-3.2706,-3.3495,-3.4302,-3.5082,-3.5991,-3.7312,-3.8487,-3.7698,-3.7441,-3.7441,-3.7441,-3.7507,-3.7679,-3.8487,-3.8707,-3.8707,-3.8707,-3.8707,-3.8707,-3.8707,-3.8707,-3.8707,-3.8726,-3.9331,-3.9882,-3.9955,-4.0579,-4.1165,-4.1414,-4.1627,-4.1578,-4.0995,-4.0903,-4.0856,-4.0856,-4.0856,-4.0331,-3.8851,-3.9494,-3.9157,-3.6975,-3.8125,-3.8971,-3.8988,-3.9681,-4.007,-4.007,-4.0054,-4.0037,-4.0037,-4.0037,-4.0037,-4.0037,-3.9343,-3.8988,-3.892,-3.7466,-3.6772,0.0,0.0,-2.1228,-2.1907,0.0,0.0,0.0,0.0,0.0,0.0,0.0,0.0,0.0,0.0,0.0,0.0,0.0,0.0,0.0,0.0,0.0,0.0,0.0,0.0,0.0,0.0,0.0,-2.3563,-2.3976,-2.3949,-2.341,-2.4049,-2.4604,-2.4979,-2.5807,-2.6576,-2.7383,-2.7934,-2.8484,-2.8994,-2.8994,-2.8994,-2.8994,-2.8994,-2.8994,-2.8994,-2.8994,-2.931,-2.9787,-2.9787,-3.0595,-3.1825,-3.21,-3.2687,-3.3495,-3.4302,-3.4752,-3.5192,-3.6597,-3.7441,-3.7845,-3.7569,-3.7507,-3.7507,-3.7507,-3.7863,-3.834,-3.8615,-3.8707,-3.8707,-3.8707,-3.8707,-3.8707,-3.8707,-3.8707,-3.8707,-3.8707,-3.8909,-3.9258,-3.979,-4.012,-4.0478,-4.1113,-4.1377,-4.152,-4.149,-4.1178,-4.1041,-4.1446,-4.1133,-4.0522,-3.9544,-3.9375,-3.8853,-3.7635,-3.843,-3.8988,-3.8988,-3.9681,-4.007,-4.007,-4.007,-4.007,-4.007,-4.007,-4.007,-4.007,-3.9834,-3.9225,-3.8278,-3.8244,-3.7719,-2.1228,-2.107,0.0,-2.1777,-2.1685,0.0,-2.2371,0.0,-2.2544,0.0,0.0,0.0,0.0,0.0,0.0,0.0,0.0,0.0,0.0,-2.1763,0.0,0.0,0.0,0.0,0.0,0.0,-2.2592,-2.2645,-2.3245,-2.3482,0.0,0.0,-2.4194,-2.4942,-2.5256,-2.6046,-2.7365,-2.7658,-2.8209,-2.8994,-2.8994,-2.8994,-2.8994,-2.8994,-2.8994,-2.8994,-2.8994,-2.9475,-3.021,-3.021,-3.1164,-3.2614,-3.2614,-3.3091,-3.3862,-3.4394,-3.4963,-3.5679,-3.7019,-3.7679,-3.7863,-3.7569,-3.7679,-3.7863,-3.7569,-3.8046,-3.8707,-3.8707,-3.8707,-3.8707,-3.8707,-3.8707,-3.8707,-3.8707,-3.8707,-3.8707,-3.8707,-3.8707,-3.8946,-3.9735,-3.9662,-3.9827,-4.0928,-4.0778,-4.0755,-4.1268,-4.1271,-4.1251,-4.1446,-4.1133,-4.0626,-3.9863,-3.9546,-3.9089,-3.8345,-3.8717,-3.8988,-3.8988,-3.9681,-4.007,-4.007,-4.007,-4.007,-4.007,-4.007,-3.9952,-3.9698,-3.9428,-3.8684,-3.7533,-3.8261,-3.7956]}]]